[[{"header":{"parameterUnit":"m.s-1","parameterCategory":1,"la1":31.0,"la2":29.5877,"lo1":-88.7671,"lo2":-86.6584,"dy":0.0162,"dx":0.0185,"nx":115,"ny":88,"refTime":"2024-08-20T12:00:00:Z","depth":0,"parameterNumber":2,"parameterNumberName":"U-component_of_WINDS"},"data":[0.0,0.0,0.0,0.0,0.0,0.0,0.0,0.0,0.0,0.0,0.0,0.0,0.0,0.0,0.0,0.0,0.0,0.0,0.0,0.0,0.0,0.0,0.0,0.0,0.0,0.0,0.0,0.0,0.0,0.0,0.0,0.0,0.0,0.0,0.0,0.0,0.0,0.0,0.0,0.0,0.0,0.0,0.0,0.0,0.0,0.0,0.0,0.0,0.0,0.0,0.0,0.0,0.0,0.0,0.0,0.0,0.0,0.0,0.0,0.0,0.0,0.0,0.0,0.0,0.0,0.0,0.0,0.0,0.0,0.0,0.0,0.0,0.0,0.0,0.0,0.0,0.0,0.0,0.0,0.0,0.0,0.0,0.0,0.0,0.0,0.0,0.0,0.0,0.0,0.0,0.0,0.0,0.0,0.0,0.0,0.0,0.0,0.0,0.0,0.0,0.0,0.0,0.0,0.0,0.0,0.0,0.0,0.0,0.0,0.0,0.0,0.0,0.0,0.0,0.0,0.0,0.0,0.0,0.0,0.0,0.0,0.0,0.0,0.0,0.0,0.0,0.0,0.0,0.0,0.0,0.0,0.0,0.0,0.0,0.0,0.0,0.0,0.0,0.0,0.0,0.0,0.0,0.0,0.0,0.0,0.0,0.0,0.0,0.0,0.0,0.0,0.0,0.0,0.0,0.0,0.0,0.0,0.0,0.0,0.0,0.0,0.0,0.0,0.0,0.0,0.0,0.0,0.0,0.0,0.0,0.0,0.0,0.0,0.0,0.0,0.0,0.0,0.0,0.0,0.0,0.0,0.0,0.0,0.0,0.0,0.0,0.0,0.0,0.0,0.0,0.0,0.0,0.0,0.0,0.0,0.0,0.0,0.0,0.0,0.0,0.0,0.0,0.0,0.0,0.0,0.0,0.0,0.0,0.0,0.0,0.0,0.0,0.0,0.0,0.0,0.0,0.0,0.0,0.0,0.0,0.0,0.0,0.0,0.0,0.0,0.0,0.0,0.0,0.0,0.0,0.0,0.0,0.0,0.0,0.0,0.0,0.0,0.0,0.0,0.0,0.0,0.0,0.0,0.0,0.0,0.0,0.0,0.0,0.0,0.0,0.0,0.0,0.0,0.0,0.0,0.0,0.0,0.0,0.0,0.0,0.0,0.0,0.0,0.0,0.0,0.0,0.0,0.0,0.0,0.0,0.0,0.0,0.0,0.0,0.0,0.0,0.0,0.0,0.0,0.0,0.0,0.0,0.0,0.0,0.0,0.0,0.0,0.0,0.0,0.0,0.0,0.0,0.0,0.0,0.0,0.0,0.0,0.0,0.0,0.0,0.0,0.0,0.0,0.0,0.0,0.0,0.0,0.0,0.0,0.0,0.0,0.0,0.0,0.0,0.0,0.0,0.0,0.0,0.0,0.0,0.0,0.0,0.0,0.0,0.0,0.0,0.0,0.0,0.0,0.0,0.0,0.0,0.0,0.0,0.0,0.0,0.0,0.0,0.0,0.0,0.0,0.0,0.0,0.0,0.0,0.0,0.0,0.0,0.0,0.0,0.0,0.0,0.0,0.0,0.0,0.0,0.0,0.0,0.0,0.0,0.0,0.0,0.0,0.0,0.0,0.0,0.0,0.0,0.0,0.0,0.0,0.0,0.0,0.0,0.0,0.0,0.0,0.0,0.0,0.0,0.0,0.0,0.0,0.0,0.0,0.0,0.0,0.0,0.0,0.0,0.0,0.0,0.0,0.0,0.0,0.0,0.0,0.0,0.0,0.0,0.0,0.0,0.0,0.0,0.0,0.0,0.0,0.0,0.0,0.0,0.0,0.0,0.0,0.0,0.0,0.0,0.0,0.0,0.0,0.0,0.0,0.0,0.0,0.0,0.0,0.0,0.0,0.0,0.0,0.0,0.0,0.0,0.0,0.0,0.0,0.0,0.0,0.0,0.0,0.0,0.0,0.0,0.0,0.0,0.0,0.0,0.0,0.0,0.0,0.0,0.0,0.0,0.0,0.0,0.0,0.0,0.0,0.0,0.0,0.0,0.0,0.0,0.0,0.0,0.0,0.0,0.0,0.0,0.0,0.0,0.0,0.0,0.0,0.0,0.0,0.0,0.0,0.0,0.0,0.0,0.0,0.0,0.0,0.0,0.0,0.0,0.0,0.0,0.0,0.0,0.0,0.0,0.0,0.0,0.0,0.0,0.0,0.0,0.0,0.0,0.0,0.0,0.0,0.0,0.0,0.0,0.0,0.0,0.0,0.0,0.0,0.0,0.0,0.0,0.0,0.0,0.0,0.0,0.0,0.0,0.0,0.0,0.0,0.0,0.0,0.0,0.0,0.0,0.0,0.0,0.0,0.0,0.0,0.0,0.0,0.0,0.0,0.0,0.0,0.0,0.0,0.0,0.0,0.0,0.0,0.0,0.0,0.0,0.0,0.0,0.0,0.0,0.0,0.0,0.0,0.0,0.0,0.0,0.0,0.0,0.0,0.0,0.0,0.0,0.0,0.0,0.0,0.0,0.0,0.0,0.0,0.0,0.0,0.0,0.0,0.0,0.0,0.0,0.0,0.0,0.0,0.0,0.0,0.0,0.0,0.0,0.0,0.0,0.0,0.0,0.0,0.0,0.0,0.0,0.0,0.0,0.0,0.0,0.0,0.0,0.0,0.0,0.0,0.0,0.0,0.0,0.0,0.0,0.0,0.0,0.0,0.0,0.0,0.0,0.0,0.0,0.0,0.0,0.0,0.0,0.0,0.0,0.0,0.0,0.0,0.0,0.0,0.0,0.0,0.0,0.0,0.0,0.0,0.0,0.0,0.0,0.0,0.0,0.0,0.0,0.0,0.0,0.0,0.0,0.0,0.0,0.0,0.0,0.0,0.0,0.0,0.0,0.0,0.0,0.0,0.0,0.0,0.0,0.0,0.0,0.0,0.0,0.0,0.0,0.0,0.0,0.0,0.0,0.0,0.0,0.0,0.0,0.0,0.0,0.0,0.0,0.0,0.0,0.0,0.0,0.0,0.0,0.0,0.0,0.0,0.0,0.0,0.0,0.0,0.0,0.0,0.0,0.0,0.0,0.0,0.0,0.0,0.0,0.0,0.0,0.0,0.0,0.0,0.0,0.0,0.0,0.0,0.0,0.0,0.0,0.0,0.0,0.0,0.0,0.0,0.0,0.0,0.0,0.0,0.0,0.0,0.0,0.0,0.0,0.0,0.0,0.0,0.0,0.0,0.0,0.0,0.0,0.0,0.0,0.0,0.0,0.0,0.0,0.0,0.0,0.0,0.0,0.0,0.0,0.0,0.0,0.0,0.0,0.0,0.0,0.0,0.0,0.0,0.0,0.0,0.0,0.0,0.0,0.0,0.0,0.0,0.0,0.0,0.0,0.0,0.0,0.0,0.0,0.0,0.0,0.0,0.0,0.0,0.0,0.0,0.0,0.0,0.0,0.0,0.0,0.0,0.0,0.0,0.0,0.0,0.0,0.0,0.0,0.0,0.0,0.0,0.0,0.0,0.0,0.0,0.0,0.0,0.0,0.0,0.0,0.0,0.0,0.0,0.0,0.0,0.0,0.0,0.0,0.0,0.0,0.0,0.0,0.0,0.0,0.0,0.0,0.0,0.0,0.0,0.0,0.0,0.0,0.0,0.0,0.0,0.0,0.0,0.0,0.0,0.0,0.0,0.0,0.0,0.0,0.0,0.0,0.0,0.0,0.0,0.0,0.0,0.0,0.0,0.0,0.0,0.0,0.0,0.0,0.0,0.0,0.0,0.0,0.0,0.0,0.0,0.0,0.0,0.0,0.0,0.0,0.0,0.0,0.0,0.0,0.0,0.0,0.0,0.0,0.0,0.0,0.0,0.0,0.0,0.0,0.0,0.0,0.0,0.0,0.0,0.0,0.0,0.0,0.0,0.0,0.0,0.0,0.0,0.0,0.0,0.0,0.0,0.0,0.0,0.0,0.0,0.0,0.0,0.0,0.0,0.0,0.0,0.0,0.0,0.0,0.0,0.0,0.0,0.0,0.0,0.0,0.0,0.0,0.0,0.0,0.0,0.0,0.0,0.0,0.0,0.0,0.0,0.0,0.0,0.0,0.0,0.0,0.0,0.0,0.0,0.0,0.0,0.0,0.0,0.0,0.0,0.0,0.0,0.0,0.0,0.0,0.0,0.0,0.0,0.0,0.0,0.0,0.0,0.0,0.0,0.0,0.0,0.0,0.0,0.0,0.0,0.0,0.0,0.0,0.0,0.0,0.0,0.0,0.0,0.0,0.0,0.0,2.1039,0.0,0.0,0.0,0.0,0.0,0.0,0.0,0.0,0.0,0.0,0.0,0.0,0.0,0.0,0.0,0.0,0.0,0.0,0.0,0.0,0.0,0.0,0.0,0.0,0.0,0.0,0.0,0.0,0.0,0.0,0.0,0.0,0.0,0.0,0.0,0.0,0.0,0.0,0.0,0.0,0.0,0.0,0.0,0.0,0.0,0.0,0.0,0.0,0.0,0.0,0.0,0.0,0.0,0.0,0.0,0.0,0.0,0.0,0.0,0.0,0.0,0.0,0.0,0.0,0.0,0.0,0.0,0.0,0.0,0.0,0.0,0.0,0.0,0.0,0.0,0.0,0.0,0.0,0.0,0.0,0.0,0.0,0.0,0.0,0.0,0.0,0.0,0.0,0.0,0.0,0.0,0.0,0.0,0.0,0.0,0.0,0.0,0.0,0.0,0.0,0.0,0.0,0.0,0.0,0.0,0.0,0.0,0.0,0.0,0.0,2.2327,2.2327,2.2327,2.1886,2.1039,0.0,0.0,0.0,0.0,0.0,0.0,0.0,0.0,0.0,0.0,0.0,0.0,0.0,0.0,0.0,0.0,0.0,0.0,0.0,0.0,0.0,0.0,0.0,0.0,0.0,0.0,0.0,0.0,0.0,0.0,0.0,0.0,0.0,0.0,0.0,0.0,0.0,0.0,0.0,0.0,0.0,0.0,0.0,0.0,0.0,0.0,0.0,0.0,0.0,0.0,0.0,0.0,0.0,0.0,0.0,0.0,0.0,0.0,0.0,0.0,0.0,0.0,0.0,0.0,0.0,0.0,0.0,0.0,0.0,0.0,0.0,0.0,0.0,0.0,0.0,0.0,0.0,0.0,0.0,0.0,0.0,0.0,0.0,0.0,0.0,0.0,0.0,0.0,0.0,0.0,0.0,0.0,0.0,0.0,0.0,0.0,0.0,0.0,0.0,0.0,0.0,0.0,0.0,0.0,0.0,0.0,0.0,0.0,0.0,0.0,0.0,0.0,2.2547,2.2119,2.1263,0.0,0.0,0.0,0.0,0.0,0.0,0.0,0.0,0.0,0.0,0.0,0.0,0.0,0.0,0.0,0.0,0.0,0.0,0.0,0.0,0.0,0.0,0.0,0.0,0.0,0.0,0.0,0.0,0.0,0.0,0.0,0.0,0.0,0.0,0.0,0.0,0.0,0.0,0.0,0.0,0.0,0.0,0.0,0.0,0.0,0.0,0.0,0.0,0.0,0.0,0.0,0.0,0.0,0.0,0.0,0.0,0.0,0.0,0.0,0.0,0.0,0.0,0.0,0.0,0.0,0.0,0.0,0.0,0.0,0.0,0.0,0.0,0.0,0.0,0.0,0.0,0.0,0.0,0.0,0.0,0.0,0.0,0.0,0.0,0.0,0.0,0.0,0.0,0.0,0.0,0.0,0.0,0.0,0.0,0.0,0.0,0.0,0.0,0.0,0.0,0.0,0.0,0.0,0.0,0.0,0.0,0.0,0.0,0.0,0.0,2.2615,2.3274,2.3291,0.0,2.2019,0.0,0.0,0.0,0.0,0.0,0.0,0.0,0.0,0.0,0.0,0.0,0.0,0.0,0.0,0.0,0.0,0.0,0.0,0.0,0.0,0.0,0.0,0.0,0.0,0.0,0.0,0.0,0.0,0.0,0.0,0.0,0.0,0.0,0.0,0.0,0.0,0.0,0.0,0.0,0.0,0.0,0.0,0.0,0.0,0.0,0.0,0.0,0.0,0.0,0.0,0.0,0.0,0.0,0.0,0.0,0.0,0.0,0.0,0.0,0.0,0.0,0.0,0.0,0.0,0.0,0.0,0.0,0.0,0.0,0.0,0.0,0.0,0.0,0.0,0.0,0.0,0.0,0.0,0.0,0.0,0.0,0.0,0.0,0.0,0.0,0.0,0.0,0.0,0.0,0.0,0.0,0.0,0.0,0.0,0.0,0.0,0.0,0.0,0.0,0.0,0.0,0.0,0.0,0.0,0.0,0.0,0.0,0.0,0.0,0.0,0.0,2.3393,2.2903,2.228,0.0,0.0,0.0,0.0,0.0,0.0,0.0,0.0,0.0,0.0,0.0,0.0,0.0,0.0,0.0,0.0,0.0,0.0,0.0,0.0,0.0,0.0,0.0,0.0,0.0,0.0,0.0,0.0,0.0,0.0,0.0,0.0,0.0,0.0,0.0,0.0,0.0,0.0,0.0,0.0,0.0,0.0,0.0,0.0,0.0,0.0,0.0,0.0,0.0,0.0,0.0,0.0,0.0,0.0,0.0,0.0,0.0,0.0,0.0,0.0,0.0,0.0,0.0,0.0,0.0,0.0,0.0,0.0,0.0,0.0,0.0,0.0,0.0,0.0,0.0,0.0,0.0,0.0,0.0,0.0,0.0,0.0,0.0,0.0,0.0,0.0,0.0,0.0,0.0,0.0,0.0,0.0,0.0,0.0,0.0,0.0,0.0,0.0,0.0,0.0,0.0,0.0,0.0,0.0,0.0,0.0,0.0,0.0,0.0,0.0,2.3224,0.0,2.3634,2.2638,2.1761,2.1118,0.0,0.0,0.0,0.0,0.0,0.0,0.0,0.0,0.0,0.0,0.0,0.0,0.0,0.0,0.0,0.0,0.0,0.0,0.0,0.0,0.0,0.0,0.0,0.0,0.0,0.0,0.0,0.0,0.0,0.0,0.0,0.0,0.0,0.0,0.0,0.0,0.0,0.0,0.0,0.0,0.0,0.0,0.0,0.0,0.0,0.0,0.0,0.0,0.0,0.0,0.0,0.0,0.0,0.0,0.0,0.0,0.0,0.0,0.0,0.0,0.0,0.0,0.0,0.0,0.0,0.0,0.0,0.0,0.0,0.0,0.0,0.0,0.0,0.0,0.0,0.0,0.0,0.0,0.0,0.0,0.0,0.0,0.0,0.0,0.0,0.0,0.0,0.0,0.0,0.0,0.0,0.0,0.0,0.0,0.0,0.0,0.0,0.0,0.0,0.0,0.0,0.0,0.0,0.0,0.0,0.0,0.0,0.0,0.0,2.3761,2.3731,2.4374,2.2867,2.1695,0.0,0.0,0.0,0.0,0.0,0.0,0.0,0.0,0.0,0.0,0.0,0.0,0.0,0.0,0.0,0.0,0.0,0.0,0.0,0.0,0.0,0.0,0.0,0.0,0.0,0.0,0.0,0.0,0.0,0.0,0.0,0.0,0.0,0.0,0.0,0.0,0.0,0.0,0.0,0.0,0.0,0.0,0.0,0.0,0.0,0.0,0.0,0.0,0.0,0.0,0.0,0.0,0.0,0.0,0.0,0.0,0.0,0.0,0.0,0.0,0.0,0.0,0.0,0.0,0.0,0.0,0.0,0.0,0.0,0.0,0.0,0.0,0.0,0.0,0.0,0.0,0.0,0.0,0.0,0.0,0.0,0.0,0.0,0.0,0.0,0.0,0.0,0.0,0.0,0.0,0.0,0.0,0.0,0.0,0.0,0.0,0.0,0.0,0.0,0.0,0.0,0.0,0.0,0.0,0.0,0.0,0.0,0.0,0.0,2.3337,2.3567,2.3949,0.0,2.249,2.1119,0.0,0.0,0.0,0.0,0.0,0.0,0.0,0.0,0.0,0.0,0.0,0.0,0.0,0.0,0.0,0.0,0.0,0.0,0.0,0.0,0.0,0.0,0.0,0.0,0.0,0.0,0.0,0.0,0.0,0.0,0.0,0.0,0.0,0.0,0.0,0.0,0.0,0.0,0.0,0.0,0.0,0.0,0.0,0.0,0.0,0.0,0.0,0.0,0.0,0.0,0.0,0.0,0.0,0.0,0.0,0.0,0.0,0.0,0.0,0.0,0.0,0.0,0.0,0.0,0.0,0.0,0.0,0.0,0.0,0.0,0.0,0.0,0.0,0.0,0.0,0.0,0.0,0.0,0.0,0.0,0.0,0.0,0.0,0.0,0.0,0.0,0.0,0.0,0.0,0.0,0.0,0.0,0.0,0.0,0.0,0.0,0.0,0.0,0.0,0.0,0.0,0.0,0.0,0.0,0.0,0.0,0.0,0.0,0.0,2.344,0.0,2.4379,0.0,2.2153,2.0532,0.0,0.0,0.0,0.0,0.0,0.0,0.0,0.0,0.0,0.0,0.0,0.0,0.0,0.0,0.0,0.0,0.0,0.0,0.0,0.0,0.0,0.0,0.0,0.0,0.0,0.0,0.0,0.0,0.0,0.0,0.0,0.0,0.0,0.0,0.0,0.0,0.0,0.0,0.0,0.0,0.0,0.0,0.0,0.0,0.0,0.0,0.0,0.0,0.0,0.0,0.0,0.0,0.0,0.0,0.0,0.0,0.0,0.0,0.0,0.0,0.0,0.0,0.0,0.0,0.0,0.0,0.0,0.0,0.0,0.0,0.0,0.0,0.0,0.0,0.0,0.0,0.0,0.0,0.0,0.0,0.0,0.0,0.0,0.0,0.0,0.0,0.0,0.0,0.0,0.0,0.0,0.0,0.0,0.0,0.0,0.0,0.0,0.0,0.0,0.0,0.0,0.0,0.0,0.0,0.0,0.0,0.0,0.0,2.3457,2.485,2.4975,2.4833,2.4438,2.1903,2.007,0.0,0.0,0.0,0.0,0.0,0.0,0.0,0.0,0.0,0.0,0.0,0.0,0.0,0.0,0.0,0.0,0.0,0.0,0.0,0.0,0.0,0.0,0.0,0.0,0.0,0.0,0.0,0.0,0.0,0.0,0.0,0.0,0.0,0.0,0.0,0.0,0.0,0.0,0.0,0.0,0.0,0.0,0.0,0.0,0.0,0.0,0.0,0.0,0.0,0.0,0.0,0.0,0.0,0.0,0.0,0.0,0.0,0.0,0.0,0.0,0.0,0.0,0.0,0.0,0.0,0.0,0.0,0.0,0.0,0.0,0.0,0.0,0.0,0.0,0.0,0.0,0.0,0.0,0.0,0.0,0.0,0.0,0.0,0.0,0.0,0.0,0.0,0.0,0.0,0.0,0.0,0.0,0.0,0.0,0.0,0.0,0.0,0.0,0.0,0.0,0.0,0.0,0.0,0.0,0.0,0.0,0.0,0.0,0.0,2.3776,2.4312,2.4346,2.3693,2.1431,2.0245,0.0,0.0,0.0,0.0,0.0,0.0,0.0,0.0,0.0,0.0,0.0,0.0,0.0,0.0,0.0,0.0,0.0,0.0,0.0,0.0,0.0,0.0,0.0,0.0,0.0,0.0,0.0,0.0,0.0,0.0,0.0,0.0,0.0,0.0,0.0,0.0,0.0,0.0,0.0,0.0,0.0,0.0,0.0,0.0,0.0,0.0,0.0,0.0,0.0,0.0,0.0,0.0,0.0,0.0,0.0,0.0,0.0,0.0,0.0,0.0,0.0,0.0,0.0,0.0,0.0,0.0,0.0,0.0,0.0,0.0,0.0,0.0,0.0,0.0,0.0,0.0,0.0,0.0,0.0,0.0,0.0,0.0,0.0,0.0,0.0,0.0,0.0,0.0,0.0,0.0,0.0,0.0,0.0,0.0,0.0,0.0,0.0,0.0,0.0,0.0,0.0,0.0,0.0,0.0,0.0,0.0,0.0,0.0,0.0,2.3962,2.4655,2.4684,2.3829,2.1711,2.0615,2.0653,0.0,0.0,0.0,0.0,0.0,0.0,0.0,0.0,0.0,0.0,0.0,0.0,0.0,0.0,0.0,0.0,0.0,0.0,0.0,0.0,0.0,0.0,0.0,0.0,0.0,0.0,0.0,0.0,0.0,0.0,0.0,0.0,0.0,0.0,0.0,0.0,0.0,0.0,0.0,0.0,0.0,0.0,0.0,0.0,0.0,0.0,0.0,0.0,0.0,0.0,0.0,0.0,0.0,0.0,0.0,0.0,0.0,0.0,0.0,0.0,0.0,0.0,0.0,0.0,0.0,0.0,0.0,0.0,0.0,0.0,0.0,0.0,0.0,0.0,0.0,0.0,0.0,0.0,0.0,0.0,0.0,0.0,0.0,0.0,0.0,0.0,0.0,0.0,0.0,0.0,0.0,0.0,0.0,0.0,0.0,0.0,0.0,0.0,0.0,0.0,0.0,0.0,0.0,0.0,0.0,0.0,0.0,0.0,2.5126,2.5888,2.5773,2.4659,2.2701,2.1171,0.0,0.0,0.0,0.0,0.0,0.0,0.0,0.0,0.0,0.0,0.0,0.0,0.0,0.0,0.0,0.0,0.0,0.0,0.0,0.0,0.0,0.0,0.0,0.0,0.0,0.0,0.0,0.0,0.0,0.0,0.0,0.0,0.0,0.0,0.0,0.0,0.0,0.0,0.0,0.0,0.0,0.0,0.0,0.0,0.0,0.0,0.0,0.0,0.0,0.0,0.0,0.0,0.0,0.0,0.0,0.0,0.0,0.0,0.0,0.0,0.0,0.0,0.0,0.0,0.0,0.0,0.0,0.0,0.0,0.0,0.0,0.0,0.0,0.0,0.0,0.0,0.0,0.0,0.0,0.0,0.0,0.0,0.0,0.0,0.0,0.0,0.0,0.0,0.0,0.0,0.0,0.0,0.0,0.0,0.0,0.0,0.0,0.0,0.0,0.0,0.0,0.0,0.0,0.0,0.0,0.0,0.0,0.0,0.0,2.6623,2.7108,2.6961,2.6099,2.344,2.2085,0.0,0.0,0.0,0.0,0.0,0.0,0.0,0.0,0.0,0.0,0.0,0.0,0.0,0.0,0.0,0.0,0.0,0.0,0.0,0.0,0.0,0.0,0.0,0.0,0.0,0.0,0.0,0.0,0.0,0.0,0.0,0.0,0.0,0.0,0.0,0.0,0.0,0.0,0.0,0.0,0.0,0.0,0.0,0.0,0.0,0.0,0.0,0.0,0.0,0.0,0.0,0.0,0.0,0.0,0.0,0.0,0.0,0.0,0.0,0.0,0.0,0.0,0.0,0.0,0.0,0.0,0.0,0.0,0.0,0.0,0.0,0.0,0.0,0.0,0.0,0.0,0.0,0.0,0.0,0.0,0.0,0.0,0.0,0.0,0.0,0.0,0.0,0.0,0.0,0.0,0.0,0.0,0.0,0.0,0.0,0.0,0.0,0.0,0.0,0.0,0.0,0.0,0.0,0.0,0.0,0.0,0.0,0.0,2.639,2.7416,2.8152,2.8236,2.7655,2.4638,2.2884,0.0,0.0,0.0,0.0,0.0,0.0,0.0,0.0,0.0,0.0,0.0,0.0,0.0,0.0,0.0,0.0,0.0,0.0,0.0,0.0,0.0,0.0,0.0,0.0,0.0,0.0,0.0,0.0,0.0,0.0,0.0,0.0,0.0,0.0,0.0,0.0,0.0,0.0,0.0,0.0,0.0,0.0,0.0,0.0,0.0,0.0,0.0,0.0,0.0,0.0,0.0,0.0,0.0,0.0,0.0,0.0,0.0,0.0,0.0,0.0,0.0,0.0,0.0,0.0,0.0,0.0,0.0,0.0,0.0,0.0,0.0,0.0,0.0,0.0,0.0,0.0,0.0,0.0,0.0,0.0,0.0,0.0,0.0,0.0,0.0,0.0,0.0,0.0,0.0,0.0,0.0,0.0,0.0,0.0,0.0,0.0,0.0,0.0,0.0,0.0,0.0,0.0,0.0,0.0,0.0,0.0,0.0,0.0,2.6914,2.8044,2.9059,2.9385,2.8924,2.593,2.3638,0.0,0.0,0.0,0.0,0.0,0.0,0.0,0.0,0.0,0.0,0.0,0.0,0.0,0.0,0.0,0.0,0.0,0.0,0.0,0.0,0.0,0.0,0.0,0.0,0.0,0.0,0.0,0.0,0.0,0.0,0.0,0.0,0.0,0.0,0.0,0.0,0.0,0.0,0.0,0.0,0.0,0.0,0.0,0.0,0.0,0.0,0.0,0.0,0.0,0.0,0.0,0.0,0.0,0.0,0.0,0.0,0.0,0.0,0.0,0.0,0.0,0.0,0.0,0.0,0.0,0.0,0.0,0.0,0.0,0.0,0.0,0.0,0.0,0.0,0.0,0.0,0.0,0.0,0.0,0.0,0.0,0.0,0.0,0.0,0.0,0.0,0.0,0.0,0.0,0.0,0.0,0.0,0.0,0.0,0.0,0.0,0.0,0.0,0.0,0.0,0.0,0.0,0.0,0.0,0.0,0.0,0.0,0.0,2.8149,2.9567,2.9844,2.9678,2.9028,2.6421,2.4429,0.0,0.0,0.0,0.0,0.0,0.0,0.0,0.0,0.0,0.0,0.0,0.0,0.0,0.0,0.0,0.0,0.0,0.0,0.0,0.0,0.0,0.0,0.0,0.0,0.0,0.0,0.0,0.0,0.0,0.0,0.0,0.0,0.0,0.0,0.0,0.0,0.0,0.0,0.0,0.0,0.0,0.0,0.0,0.0,0.0,0.0,0.0,0.0,2.2225,0.0,0.0,0.0,0.0,0.0,0.0,0.0,0.0,0.0,0.0,0.0,0.0,0.0,0.0,0.0,0.0,0.0,0.0,0.0,0.0,0.0,0.0,0.0,0.0,0.0,0.0,0.0,0.0,0.0,0.0,0.0,0.0,0.0,0.0,0.0,0.0,0.0,0.0,0.0,0.0,0.0,0.0,0.0,0.0,0.0,0.0,0.0,0.0,0.0,0.0,0.0,0.0,0.0,0.0,0.0,0.0,0.0,0.0,0.0,2.8569,3.0057,3.0446,3.0091,2.9008,2.7208,2.5313,0.0,0.0,0.0,0.0,0.0,0.0,0.0,0.0,0.0,0.0,0.0,0.0,0.0,0.0,0.0,0.0,0.0,0.0,0.0,0.0,0.0,0.0,0.0,0.0,0.0,0.0,0.0,0.0,0.0,0.0,0.0,0.0,0.0,0.0,0.0,0.0,0.0,0.0,0.0,0.0,0.0,0.0,0.0,0.0,0.0,0.0,0.0,0.0,0.0,0.0,0.0,0.0,0.0,0.0,0.0,0.0,0.0,0.0,0.0,0.0,0.0,0.0,0.0,0.0,0.0,0.0,0.0,0.0,0.0,0.0,0.0,0.0,0.0,0.0,0.0,0.0,0.0,0.0,0.0,0.0,0.0,0.0,0.0,0.0,0.0,0.0,0.0,0.0,0.0,0.0,0.0,0.0,0.0,0.0,0.0,0.0,0.0,0.0,0.0,0.0,0.0,0.0,0.0,0.0,0.0,0.0,0.0,2.7147,2.8583,3.0226,3.0768,3.0362,2.9025,2.7846,2.5956,2.332,0.0,0.0,0.0,0.0,0.0,0.0,0.0,0.0,0.0,0.0,0.0,0.0,0.0,0.0,0.0,0.0,0.0,0.0,0.0,0.0,0.0,0.0,0.0,0.0,0.0,0.0,0.0,0.0,0.0,0.0,0.0,0.0,0.0,0.0,0.0,0.0,0.0,0.0,2.1677,2.2237,0.0,0.0,0.0,0.0,0.0,0.0,0.0,0.0,2.1899,0.0,0.0,0.0,0.0,0.0,0.0,0.0,0.0,0.0,0.0,0.0,0.0,0.0,0.0,0.0,0.0,0.0,0.0,0.0,0.0,0.0,0.0,0.0,0.0,0.0,0.0,0.0,0.0,0.0,0.0,0.0,0.0,0.0,0.0,0.0,0.0,0.0,0.0,0.0,0.0,0.0,0.0,0.0,0.0,0.0,0.0,0.0,0.0,0.0,0.0,0.0,0.0,0.0,0.0,0.0,0.0,2.7384,2.7671,2.8856,3.0937,3.0531,2.9871,2.9008,2.7388,2.5452,2.3285,0.0,0.0,0.0,0.0,0.0,0.0,0.0,0.0,0.0,0.0,0.0,0.0,0.0,0.0,0.0,0.0,0.0,0.0,0.0,0.0,0.0,0.0,0.0,0.0,0.0,0.0,0.0,0.0,0.0,0.0,0.0,0.0,0.0,0.0,0.0,0.0,0.0,0.0,0.0,2.2292,2.2349,0.0,0.0,0.0,0.0,0.0,0.0,0.0,0.0,2.1582,0.0,0.0,0.0,0.0,0.0,0.0,0.0,0.0,0.0,0.0,0.0,0.0,0.0,0.0,0.0,0.0,0.0,0.0,0.0,0.0,0.0,0.0,0.0,0.0,0.0,0.0,0.0,0.0,0.0,0.0,0.0,0.0,0.0,0.0,0.0,0.0,0.0,0.0,0.0,0.0,0.0,0.0,0.0,0.0,0.0,0.0,0.0,0.0,0.0,0.0,0.0,0.0,0.0,0.0,0.0,2.7148,2.801,2.9127,3.0565,3.0294,2.955,2.8381,2.67,2.4954,0.0,0.0,0.0,0.0,0.0,0.0,0.0,0.0,0.0,0.0,0.0,0.0,0.0,0.0,0.0,0.0,0.0,0.0,0.0,0.0,0.0,0.0,0.0,0.0,0.0,0.0,0.0,0.0,0.0,0.0,0.0,0.0,0.0,0.0,0.0,0.0,0.0,0.0,0.0,0.0,2.2997,2.3188,2.2605,0.0,0.0,0.0,0.0,0.0,0.0,2.2106,2.1974,0.0,0.0,0.0,0.0,0.0,0.0,0.0,0.0,0.0,0.0,0.0,0.0,0.0,0.0,0.0,0.0,0.0,0.0,0.0,0.0,0.0,0.0,0.0,0.0,0.0,0.0,0.0,0.0,0.0,0.0,0.0,0.0,0.0,0.0,0.0,0.0,0.0,0.0,0.0,0.0,0.0,0.0,0.0,0.0,0.0,0.0,0.0,0.0,0.0,0.0,0.0,0.0,0.0,0.0,0.0,2.6674,2.8044,2.9178,3.0057,2.9973,2.9175,2.7681,2.6101,2.4564,0.0,0.0,0.0,0.0,0.0,0.0,0.0,0.0,0.0,0.0,0.0,0.0,0.0,0.0,0.0,0.0,0.0,0.0,0.0,0.0,0.0,0.0,0.0,0.0,0.0,0.0,0.0,0.0,0.0,0.0,0.0,0.0,0.0,0.0,0.0,0.0,0.0,0.0,0.0,0.0,0.0,2.4204,2.3111,2.3562,0.0,0.0,0.0,0.0,2.2733,2.2647,0.0,0.0,0.0,0.0,0.0,0.0,0.0,0.0,0.0,0.0,0.0,0.0,0.0,0.0,0.0,0.0,0.0,0.0,0.0,0.0,0.0,0.0,0.0,0.0,0.0,0.0,0.0,0.0,0.0,0.0,0.0,0.0,0.0,0.0,0.0,0.0,0.0,0.0,0.0,0.0,0.0,0.0,0.0,0.0,0.0,0.0,0.0,0.0,0.0,0.0,0.0,0.0,0.0,0.0,0.0,0.0,2.664,2.752,2.8653,3.0006,2.9448,2.8505,2.721,2.5913,2.436,0.0,0.0,0.0,0.0,0.0,0.0,0.0,0.0,0.0,0.0,0.0,0.0,0.0,0.0,0.0,0.0,0.0,0.0,0.0,0.0,0.0,0.0,0.0,0.0,0.0,0.0,0.0,0.0,0.0,0.0,0.0,0.0,0.0,0.0,0.0,0.0,0.0,0.0,0.0,0.0,0.0,2.5067,2.39,2.39,2.4033,0.0,0.0,2.3494,2.415,2.3861,0.0,0.0,0.0,0.0,0.0,0.0,0.0,0.0,0.0,0.0,0.0,0.0,0.0,0.0,0.0,0.0,0.0,0.0,0.0,0.0,0.0,0.0,0.0,0.0,0.0,0.0,0.0,0.0,0.0,0.0,0.0,0.0,0.0,0.0,0.0,0.0,0.0,0.0,0.0,0.0,0.0,0.0,0.0,0.0,0.0,0.0,0.0,0.0,0.0,0.0,0.0,0.0,0.0,0.0,0.0,2.4492,2.664,2.7875,2.8822,2.9431,2.9161,2.8166,2.6508,2.4908,2.3374,0.0,0.0,0.0,0.0,0.0,0.0,0.0,0.0,0.0,0.0,0.0,0.0,0.0,0.0,0.0,0.0,0.0,0.0,0.0,0.0,0.0,0.0,0.0,0.0,0.0,0.0,0.0,0.0,0.0,0.0,0.0,0.0,0.0,0.0,0.0,0.0,0.0,0.0,0.0,0.0,0.0,0.0,2.4875,2.5253,0.0,0.0,0.0,2.4137,2.4472,0.0,0.0,0.0,0.0,0.0,0.0,0.0,0.0,0.0,0.0,0.0,0.0,0.0,0.0,0.0,0.0,0.0,0.0,0.0,0.0,0.0,0.0,0.0,0.0,0.0,0.0,0.0,0.0,0.0,0.0,0.0,0.0,0.0,0.0,0.0,0.0,0.0,0.0,0.0,0.0,0.0,0.0,0.0,0.0,0.0,0.0,0.0,0.0,0.0,0.0,0.0,0.0,0.0,0.0,0.0,0.0,0.0,2.6657,2.8197,2.9011,2.9011,2.9011,2.7978,2.5864,2.4272,0.0,0.0,0.0,0.0,0.0,0.0,0.0,0.0,0.0,0.0,0.0,0.0,0.0,0.0,0.0,0.0,0.0,0.0,0.0,0.0,0.0,0.0,0.0,0.0,0.0,0.0,0.0,1.612,0.0,0.0,0.0,0.0,0.0,0.0,0.0,0.0,0.0,0.0,0.0,0.0,0.0,0.0,2.6091,2.5844,2.6435,2.6498,0.0,0.0,2.4831,2.5031,2.4483,2.3792,0.0,0.0,0.0,0.0,0.0,0.0,0.0,0.0,0.0,0.0,0.0,0.0,0.0,0.0,0.0,0.0,0.0,0.0,0.0,0.0,0.0,0.0,0.0,0.0,0.0,0.0,0.0,0.0,0.0,0.0,0.0,0.0,0.0,0.0,0.0,0.0,0.0,0.0,0.0,0.0,0.0,0.0,0.0,0.0,0.0,0.0,0.0,0.0,0.0,0.0,0.0,0.0,0.0,0.0,0.0,2.6657,2.8197,2.9011,2.9011,2.9011,2.7814,2.5346,2.4521,2.3059,0.0,0.0,0.0,0.0,0.0,0.0,0.0,0.0,0.0,0.0,0.0,0.0,0.0,0.0,0.0,0.0,0.0,0.0,0.0,0.0,0.0,0.0,0.0,0.0,0.0,0.0,0.0,0.0,0.0,0.0,0.0,0.0,0.0,0.0,0.0,0.0,0.0,0.0,0.0,0.0,0.0,2.7472,2.6727,2.6988,2.7106,0.0,0.0,2.5761,2.6437,2.6132,2.5215,2.3442,0.0,0.0,0.0,0.0,0.0,0.0,0.0,0.0,0.0,0.0,0.0,0.0,0.0,0.0,0.0,0.0,0.0,0.0,0.0,0.0,0.0,0.0,0.0,0.0,0.0,0.0,0.0,0.0,0.0,0.0,0.0,0.0,0.0,0.0,0.0,0.0,0.0,0.0,0.0,0.0,0.0,0.0,0.0,0.0,0.0,0.0,0.0,0.0,0.0,0.0,0.0,0.0,0.0,2.4036,2.6657,2.8197,2.9011,2.9011,2.9011,2.7942,2.5721,2.4596,2.3141,0.0,0.0,0.0,0.0,0.0,0.0,0.0,0.0,0.0,0.0,0.0,0.0,0.0,0.0,0.0,0.0,0.0,0.0,0.0,0.0,0.0,0.0,0.0,0.0,0.0,0.0,0.0,0.0,1.9418,2.0179,2.0923,0.0,0.0,0.0,0.0,0.0,0.0,0.0,0.0,0.0,0.0,2.7727,2.831,2.8181,0.0,0.0,2.7148,2.6911,2.6725,2.6185,2.5178,2.3492,2.2264,0.0,0.0,0.0,0.0,0.0,0.0,0.0,0.0,0.0,0.0,0.0,0.0,0.0,0.0,0.0,0.0,0.0,0.0,0.0,0.0,0.0,0.0,0.0,0.0,0.0,0.0,0.0,0.0,0.0,0.0,0.0,0.0,0.0,0.0,0.0,0.0,0.0,0.0,0.0,0.0,0.0,0.0,0.0,0.0,0.0,0.0,0.0,0.0,0.0,0.0,0.0,0.0,2.4188,2.6674,2.8416,2.9313,2.9296,2.9093,2.8169,2.636,2.4975,2.342,0.0,0.0,0.0,0.0,0.0,0.0,0.0,0.0,0.0,0.0,0.0,0.0,0.0,0.0,0.0,0.0,0.0,0.0,0.0,0.0,0.0,0.0,0.0,0.0,0.0,0.0,0.0,0.0,2.072,2.1481,2.2226,0.0,0.0,0.0,0.0,0.0,0.0,0.0,0.0,0.0,0.0,2.8215,2.9332,2.8972,2.8494,2.8198,2.7774,2.7385,2.708,2.6607,2.5648,2.38,0.0,0.0,0.0,0.0,0.0,0.0,0.0,0.0,0.0,0.0,0.0,0.0,0.0,0.0,0.0,0.0,0.0,0.0,0.0,0.0,0.0,0.0,0.0,0.0,0.0,0.0,0.0,0.0,0.0,0.0,1.7856,0.0,0.0,0.0,0.0,0.0,0.0,0.0,0.0,0.0,0.0,0.0,0.0,0.0,0.0,0.0,0.0,0.0,0.0,0.0,0.0,0.0,0.0,2.5184,2.6691,2.8907,3.0057,3.004,2.9364,2.835,2.7106,2.5702,2.408,2.2131,0.0,0.0,0.0,0.0,0.0,0.0,0.0,0.0,0.0,0.0,0.0,0.0,0.0,0.0,0.0,0.0,0.0,0.0,0.0,0.0,0.0,0.0,0.0,0.0,0.0,0.0,2.0052,2.0737,2.1525,0.0,0.0,0.0,0.0,0.0,0.0,0.0,0.0,0.0,0.0,2.8271,2.9087,2.9455,2.9211,2.8994,2.8994,2.7723,2.6996,2.7706,2.7739,2.6935,0.0,0.0,0.0,0.0,0.0,0.0,0.0,0.0,0.0,0.0,0.0,0.0,0.0,0.0,0.0,0.0,0.0,0.0,0.0,0.0,0.0,0.0,0.0,0.0,0.0,0.0,0.0,2.1397,2.1075,0.0,0.0,0.0,0.0,0.0,0.0,0.0,0.0,0.0,0.0,0.0,2.4154,2.4864,0.0,0.0,0.0,0.0,0.0,0.0,0.0,0.0,0.0,0.0,0.0,0.0,2.5203,2.6725,2.8941,3.0108,3.0091,2.9381,2.8547,2.7576,2.6168,2.4296,2.1964,0.0,0.0,0.0,0.0,0.0,0.0,0.0,0.0,0.0,0.0,0.0,0.0,0.0,0.0,0.0,0.0,0.0,0.0,0.0,0.0,0.0,0.0,0.0,0.0,0.0,2.1549,0.0,0.0,0.0,0.0,0.0,0.0,0.0,0.0,0.0,0.0,0.0,2.6572,2.8203,2.9185,2.9926,3.0534,3.0136,2.9736,0.0,0.0,0.0,0.0,0.0,0.0,0.0,0.0,0.0,0.0,0.0,0.0,0.0,0.0,2.5601,2.3428,2.2637,2.2353,2.2353,0.0,0.0,0.0,0.0,0.0,0.0,0.0,0.0,0.0,0.0,0.0,0.0,0.0,0.0,2.346,0.0,2.2141,0.0,0.0,0.0,0.0,0.0,0.0,0.0,0.0,2.4763,2.571,2.6404,2.7131,2.6994,0.0,2.6351,2.4929,0.0,0.0,0.0,0.0,0.0,0.0,0.0,0.0,2.5862,2.7114,2.933,3.048,3.0446,2.9499,2.8738,2.8213,2.6522,2.4757,2.2973,2.1061,1.9763,0.0,0.0,0.0,0.0,0.0,0.0,0.0,0.0,0.0,0.0,0.0,0.0,0.0,0.0,0.0,0.0,0.0,0.0,0.0,0.0,0.0,0.0,0.0,2.2327,0.0,0.0,0.0,0.0,0.0,0.0,0.0,0.0,0.0,2.5206,2.6404,2.7796,2.955,3.0176,3.0751,3.1478,0.0,0.0,0.0,0.0,0.0,0.0,0.0,2.7905,2.713,2.6167,2.5201,2.4417,2.56,2.6497,2.6019,0.0,0.0,2.4852,2.4058,2.3699,2.3699,2.3659,2.357,2.357,2.3902,2.3908,0.0,0.0,0.0,0.0,0.0,0.0,0.0,0.0,2.5998,2.5676,0.0,2.4847,0.0,0.0,0.0,0.0,0.0,2.4628,0.0,0.0,2.7875,2.8586,2.7941,2.8651,2.831,2.7049,2.7689,2.7301,2.5806,2.4293,0.0,0.0,0.0,0.0,0.0,0.0,2.7114,2.7892,3.004,3.119,3.114,2.977,2.8991,2.8873,2.6776,2.5412,2.4961,2.3126,2.166,2.0579,1.8781,0.0,0.0,0.0,0.0,0.0,0.0,0.0,0.0,0.0,0.0,0.0,0.0,0.0,0.0,0.0,0.0,0.0,0.0,0.0,0.0,2.1387,0.0,0.0,0.0,0.0,0.0,0.0,0.0,0.0,0.0,0.0,2.6927,2.764,2.8903,3.0982,0.0,0.0,0.0,0.0,3.0734,3.2104,3.0552,2.9888,3.1968,3.11,2.9783,2.8699,0.0,0.0,2.6144,2.7335,2.8188,2.6946,2.7784,2.8412,2.7709,2.6437,2.5553,2.5461,2.4502,2.365,2.3583,2.3702,2.3592,2.6364,0.0,0.0,0.0,0.0,2.604,2.6909,2.9042,2.774,2.7503,2.7926,2.6623,0.0,0.0,0.0,0.0,0.0,0.0,2.6674,2.7249,2.8433,2.8908,2.881,2.9556,2.9206,2.7927,2.812,2.7972,2.7432,2.6974,2.5729,2.3779,0.0,0.0,0.0,0.0,2.8433,2.8738,3.0328,3.119,3.119,3.0277,2.9245,2.818,2.6505,2.5527,2.5429,2.4017,2.2751,2.1676,2.0322,0.0,0.0,0.0,0.0,0.0,0.0,0.0,0.0,0.0,0.0,0.0,0.0,0.0,0.0,0.0,0.0,0.0,0.0,0.0,2.1539,2.2057,2.2716,0.0,0.0,0.0,0.0,0.0,0.0,0.0,0.0,0.0,2.9716,2.9799,3.0236,0.0,0.0,3.2645,3.2324,3.2374,3.2611,3.3034,3.2544,0.0,3.2966,3.1572,3.0467,3.0557,3.0033,2.9282,2.8584,2.8921,2.9175,2.8771,2.9041,2.9235,2.8966,2.753,2.6247,2.5658,2.5199,2.4889,2.4833,2.4816,2.4641,2.9431,2.8839,2.7195,2.7381,2.8688,2.8208,2.9145,3.0948,2.9993,2.9854,3.0247,2.9008,2.8146,2.7571,2.7131,0.0,0.0,0.0,2.8991,2.9178,2.9715,2.9842,2.9667,2.9825,2.9403,2.8426,2.8381,2.8455,2.8623,2.8884,2.8273,2.6776,0.0,0.0,2.5896,2.7909,2.9127,2.9465,3.0598,3.119,3.119,3.048,2.9364,2.7875,2.6962,2.6336,2.6031,2.4661,2.3594,2.2932,2.135,2.0051,0.0,0.0,0.0,0.0,0.0,0.0,0.0,0.0,0.0,0.0,0.0,1.8707,0.0,0.0,0.0,0.0,2.0018,2.1522,2.3038,2.3444,0.0,0.0,0.0,0.0,0.0,0.0,0.0,2.8878,2.8764,2.923,3.1118,3.1051,3.143,3.2959,3.3305,3.3339,3.3186,0.0,3.3508,3.3795,3.3592,3.3507,3.3784,3.2406,3.1277,3.1127,3.0258,2.9633,2.9594,2.9774,2.9939,2.9939,2.9939,2.9829,2.9537,2.8233,2.7158,2.664,2.5889,2.5384,2.5578,2.519,2.4747,3.2076,3.2431,2.9832,2.9126,2.9822,3.0881,3.1691,3.2418,3.2379,3.2357,3.2324,3.1664,3.0615,2.9272,2.9201,0.0,2.85,3.1031,3.1789,3.1234,3.1321,3.0997,3.0303,2.9762,2.917,2.8585,2.8585,2.8951,2.9598,3.0236,3.0511,3.0323,2.8938,2.8213,2.811,2.8924,2.9651,3.0294,3.0954,3.1258,3.1173,3.048,2.9414,2.7941,2.7823,2.7452,2.6725,2.5196,2.4285,2.4051,2.2031,2.049,1.9711,0.0,0.0,0.0,0.0,0.0,0.0,0.0,0.0,0.0,0.0,0.0,0.0,0.0,0.0,0.0,2.1623,0.0,2.4489,2.5236,0.0,0.0,0.0,2.6552,2.8029,2.8212,2.8526,2.9354,0.0,0.0,3.1564,3.1657,3.2352,3.4203,3.3912,3.3753,3.4404,3.3981,3.3812,3.4506,3.4032,3.3832,3.4372,3.3356,3.2033,3.0925,3.0103,2.9834,2.9849,3.0208,3.0552,3.0597,3.0597,3.0342,2.9522,2.8814,2.8355,2.8139,2.6558,2.5348,2.5585,2.4882,2.4381,3.3141,3.3156,3.2025,3.1636,3.1768,3.155,3.1813,3.2467,3.2949,3.3136,3.3136,3.2966,3.2412,3.1576,3.1059,3.0741,3.0665,3.132,3.1526,3.135,3.1402,3.1055,3.0443,3.0295,2.9924,2.935,2.935,2.9894,3.099,3.1182,3.172,3.257,3.2256,3.1512,3.048,3.1698,3.2154,3.1765,3.1935,3.1765,3.119,3.048,2.9668,2.8738,2.8129,2.7469,2.6742,2.599,2.4903,2.3513,2.252,2.1271,1.9771,1.7787,0.0,0.0,0.0,0.0,0.0,0.0,0.0,0.0,0.0,2.0771,1.9029,0.0,2.0957,0.0,2.36,2.4966,2.5304,2.5998,0.0,0.0,2.7827,2.8217,3.0344,2.9643,2.9518,3.0778,3.0677,3.1004,3.2222,3.2354,3.2698,3.3695,3.4133,3.4384,3.4486,3.4861,3.5148,3.5222,3.5104,3.4959,3.4541,3.347,3.2284,3.1399,3.115,3.1076,3.1061,3.1165,3.1285,3.1285,3.1228,3.0909,3.0144,2.9412,2.856,2.794,2.6671,2.5576,2.5141,2.4835,2.4849,3.3499,3.3469,3.3095,3.2953,3.2889,3.2264,3.2331,3.2982,3.3669,3.3757,3.3395,3.2796,3.2161,3.1582,3.1789,3.1736,3.1568,3.2103,3.2221,3.1884,3.1636,3.1127,3.0505,3.0195,2.9925,2.9579,2.9594,3.0105,3.1079,3.1709,3.2478,3.3428,3.4088,3.3981,3.3203,3.3339,3.3203,3.278,3.2442,3.2087,3.1681,3.097,3.0074,2.9062,2.8569,2.7824,2.6742,2.5894,2.4912,2.369,2.273,2.1677,2.0457,1.8991,1.8605,0.0,0.0,0.0,0.0,0.0,0.0,0.0,0.0,0.0,0.0,0.0,2.2615,2.3697,2.5812,2.7112,2.7097,2.8098,2.9095,2.9967,2.9464,2.9656,3.1265,3.0479,3.0259,3.1332,3.1166,3.1204,3.2018,3.212,3.2367,3.3039,3.3495,3.3792,3.4114,3.4708,3.5068,3.4752,3.4704,3.4512,3.3836,3.2826,3.1951,3.1582,3.1467,3.1409,3.1029,3.097,3.0837,3.0464,3.0389,3.0133,2.9317,2.8798,2.8168,2.7326,2.6659,2.6076,2.5681,2.5347,2.5393,3.3754,3.3739,3.3664,3.3619,3.3591,3.2955,3.3045,3.3623,3.4316,3.4185,3.3432,3.2128,3.1247,3.0835,3.1876,3.2107,3.1696,3.2809,3.297,3.2349,3.1862,3.1235,3.0612,3.0075,2.9834,2.9834,2.9834,3.0221,3.0907,3.2133,3.308,3.3796,3.4997,3.5639,3.5571,3.4336,3.3643,3.3541,3.2797,3.2374,3.2273,3.1664,3.0581,2.9076,2.9011,2.83,2.6759,2.5712,2.4898,2.4293,2.316,2.2213,2.1588,2.0766,2.042,0.0,2.0157,0.0,0.0,0.0,0.0,0.0,0.0,0.0,0.0,2.3866,2.4644,2.593,2.8078,2.9391,2.9288,3.0603,3.1417,3.1389,3.0955,3.0824,3.1336,3.093,3.0896,3.1526,3.1526,3.1511,3.1794,3.1601,3.1811,3.2505,3.2703,3.2879,3.3271,3.3971,3.4284,3.3684,3.3531,3.3339,3.2788,3.2048,3.1524,3.1524,3.1336,3.1102,3.045,3.0208,2.9875,2.924,2.9129,2.8812,2.7868,2.7736,2.7471,2.6714,2.6526,2.6433,2.6408,2.6025,2.5954,3.513,3.507,3.4532,3.4292,3.428,3.3622,3.3417,3.3568,3.4271,3.4185,3.3542,3.2709,3.2291,3.216,3.186,3.16,3.1501,3.1777,3.1834,3.1713,3.1558,3.1426,3.1321,3.1165,3.1165,3.1165,3.1165,3.1778,3.2994,3.3275,3.404,3.516,3.5448,3.5639,3.5622,0.0,0.0,0.0,3.3558,3.2899,3.2347,3.2195,3.1128,2.9113,2.9011,0.0,2.6826,2.7028,2.65,2.4972,2.5151,0.0,0.0,0.0,0.0,0.0,0.0,0.0,0.0,0.0,0.0,0.0,2.6167,2.527,2.4441,2.6538,2.808,2.8366,3.04,3.1439,3.0952,3.1654,3.1963,3.1467,3.1316,3.129,3.1438,3.1387,3.1599,3.2228,3.181,3.1943,3.2856,3.2213,3.1822,3.2432,3.2568,3.2398,3.2038,3.3055,3.37,3.3598,3.3077,3.2734,3.2641,3.1951,3.1467,3.1409,3.0911,3.0524,3.0208,2.9628,2.9254,2.8939,2.8989,2.8684,2.7855,2.7749,2.7417,2.6645,2.6521,2.6521,2.6521,2.6377,2.6587,3.5489,0.0,3.513,3.4981,0.0,3.4637,3.4316,3.3983,3.4369,3.4345,3.3975,3.3352,3.3054,3.3054,3.2675,3.2497,3.2482,3.2168,3.2033,3.2003,3.1631,3.1467,3.1467,3.1467,3.1467,3.1467,3.1467,3.1894,3.2571,3.3287,3.3953,3.4609,3.5253,3.5424,3.5098,3.5098,3.5069,3.5047,3.432,3.3575,3.2865,3.2476,3.141,2.9634,2.9533,0.0,0.0,0.0,0.0,0.0,0.0,0.0,0.0,0.0,0.0,2.4645,2.4727,2.5345,2.659,2.6742,2.7078,2.7848,2.7982,2.7755,2.7299,2.8736,2.9955,3.0649,3.2059,3.2479,3.147,3.2012,3.2246,3.1525,3.1764,3.1853,3.1642,3.2064,3.2497,3.2512,3.2512,3.2781,3.3395,3.2961,3.2647,3.2916,3.2989,3.2922,3.26,3.2823,3.2986,3.261,3.2312,3.2064,3.2007,3.1796,3.1336,3.097,3.0584,2.995,2.9129,2.8684,2.8247,2.7868,2.7736,2.7604,2.7229,2.7095,2.6973,2.6577,2.6521,2.6521,2.6521,2.6521,2.6714,3.5489,3.5489,3.5489,3.5489,3.5489,3.5489,3.519,3.467,0.0,0.0,0.0,3.3774,3.3499,3.3499,3.3499,3.3499,3.3469,3.2931,3.2691,3.2662,3.2123,3.1884,3.1884,3.1825,3.1824,3.1661,3.1765,3.1865,3.1894,3.3134,3.3848,3.4053,3.5068,3.5299,3.4783,3.464,3.4941,3.5543,3.5013,3.4336,3.3609,3.2865,3.1782,3.0328,3.0176,2.9753,2.9045,2.8484,2.7698,2.6692,2.6488,2.5933,2.493,2.5698,2.6471,2.7063,2.7672,2.8366,2.911,2.9087,2.887,2.8534,2.9143,2.9681,3.0122,3.0444,3.1145,3.2321,3.3083,3.3,3.188,3.2331,3.2486,3.1912,3.2377,3.2467,3.2048,3.2796,3.329,3.2991,3.3215,3.3619,3.3858,3.3619,3.3544,3.3619,3.3546,3.3499,3.3411,3.2965,3.24,3.1769,3.1625,3.1524,3.1524,3.1524,3.1204,3.051,3.0208,2.9504,2.8182,2.7604,2.7229,2.6794,2.6521,2.6521,2.6521,2.6521,2.6521,2.6521,2.6658,2.6658,2.6602,2.6782,2.7162,3.5489,3.5489,3.5489,3.5489,3.5489,3.5489,3.5444,3.5265,3.4147,3.3668,3.3668,3.3561,3.3499,3.3499,3.3499,3.3499,3.3499,3.341,3.3365,3.335,3.326,3.3215,3.323,3.3215,3.2916,3.2437,3.2946,3.3218,3.3409,3.4101,3.4755,3.5308,3.5515,3.5532,3.5407,3.4894,3.4958,3.556,3.552,3.5098,3.4353,3.3626,3.2544,3.1106,3.0446,2.9753,2.9025,2.9499,2.9394,2.8648,2.9141,2.909,2.8345,2.8416,2.8552,2.8689,2.8755,2.9144,2.9867,2.9449,2.9435,2.9993,3.024,3.0349,3.0392,3.1414,3.2226,3.2482,3.3127,3.3437,3.3232,3.3274,3.3257,3.3186,3.329,3.329,3.3155,3.3395,3.3709,3.4053,3.3754,3.4008,3.4816,3.4233,3.3814,3.4128,3.4008,3.3559,3.3455,3.2916,3.2285,3.1674,3.1467,3.1467,3.1541,3.1467,3.1161,3.0389,2.969,2.8925,2.7789,2.7175,2.6726,2.6521,2.6521,2.6521,2.6521,2.6521,2.6589,2.6658,2.704,2.7351,2.6837,2.767,2.8376,3.5489,3.5489,3.5489,3.5489,3.5489,3.5489,3.5489,3.5444,3.4861,3.4577,3.4592,3.4592,3.4592,3.4592,3.4592,3.4592,3.4577,3.4188,3.4038,3.3993,3.3664,3.3499,3.3499,3.3499,3.3335,3.308,3.3335,3.3724,3.418,3.4854,3.5565,3.6171,3.5497,3.5101,3.5021,3.4399,3.4544,3.5577,3.5639,3.525,3.4506,3.4167,3.3491,3.2425,3.2053,3.1546,3.084,3.1106,3.0751,2.9634,2.9939,2.977,2.9042,2.9364,2.9583,2.96,2.9973,3.0381,3.0708,3.0214,3.0054,3.0411,3.0505,3.0502,3.0479,3.1391,3.2133,3.2505,3.3129,3.3338,3.3035,3.33,3.3486,3.3531,3.3799,3.3873,3.3649,3.4203,3.4562,3.4517,3.4562,3.4831,3.5429,3.4966,3.4666,3.4966,3.4726,3.4442,3.4083,3.3769,3.335,3.2721,3.2317,3.2078,3.2048,3.1691,3.0999,2.9813,2.9254,2.8492,2.7351,2.6658,2.6521,2.6521,2.6521,2.6521,2.6521,2.6905,2.7095,2.7217,2.7855,2.8103,2.8103,2.8876,2.9317,3.5489,3.5489,3.5489,3.5489,3.5489,3.5489,3.5489,3.5489,3.5489,3.5489,3.5489,3.5489,3.5489,3.5489,3.5489,3.5489,3.5429,3.4951,3.4711,3.4651,3.4188,3.3948,3.3948,3.3948,3.3873,3.3769,3.3858,3.4319,3.4966,3.5594,3.6324,3.6835,3.5782,3.5228,3.5297,3.4512,3.4644,3.5785,3.5707,3.5351,3.4776,3.4573,3.4218,3.3711,3.3474,3.3119,3.2577,3.2544,3.2019,3.0954,3.0852,3.0581,3.004,3.0531,3.0869,3.0903,3.1376,3.1558,3.1356,3.0954,3.067,3.0545,3.0618,3.0731,3.0803,3.1369,3.1989,3.2567,3.3125,3.3372,3.3156,3.341,3.3784,3.3933,3.4382,3.4517,3.4158,3.4891,3.5325,3.4861,3.519,3.5459,3.5489,3.5489,3.5459,3.5444,3.5489,3.5265,3.4816,3.4711,3.4472,3.3978,3.3275,3.2781,3.2691,3.2198,3.1144,2.9526,2.9085,2.826,2.7095,2.6521,2.6521,2.6521,2.6726,2.685,2.6837,2.7417,2.792,2.8038,2.8684,2.9303,2.9566,2.9827,2.9827,3.5489,3.5489,3.5489,3.5489,3.5489,3.5489,3.5489,3.5489,3.5489,3.5489,3.5489,3.5489,3.5489,3.5489,3.5489,3.5489,3.5489,3.5429,3.5385,3.537,3.534,3.531,3.525,3.528,3.4981,3.4532,3.4966,3.5385,3.5681,3.6382,3.7004,3.7633,3.7004,3.6871,3.7312,3.6174,3.5891,3.6654,3.5977,3.5588,3.5487,3.4844,3.4472,3.4387,3.3761,3.3372,3.3305,3.3288,3.3254,3.3119,3.3034,3.3034,3.2949,3.3034,3.3068,3.3034,3.3094,3.2717,3.1613,3.1381,3.1052,3.0614,3.1102,3.1377,3.1465,3.2032,3.245,3.2688,3.3181,3.3704,3.4222,3.4337,3.4607,3.507,3.5265,3.5385,3.528,3.5415,3.5474,3.5429,3.5429,3.5489,3.5489,3.5489,3.5489,3.5489,3.5489,3.5459,3.534,3.5295,3.528,3.504,3.4262,3.3529,3.335,3.2841,3.1731,3.0213,2.9425,2.8408,2.7237,2.6596,2.6533,2.6934,2.7229,2.7537,2.7789,2.8233,2.8812,2.8989,2.9566,3.0389,3.097,3.0777,2.9875,3.5489,3.5489,3.5489,3.5489,3.5489,3.5489,3.5489,3.5489,3.5489,3.5489,3.5489,3.5489,3.5489,3.5489,3.5489,3.5489,3.5489,3.5489,3.5489,3.5489,3.5489,3.5489,3.5489,3.5489,3.534,3.5115,3.5385,3.5983,3.6988,3.815,3.8482,3.7969,3.7649,3.7433,3.722,3.6671,3.6505,3.6772,3.6468,3.6079,3.5639,3.5334,3.5165,3.5131,3.4878,3.4489,3.41,3.4049,3.3846,3.344,3.3389,3.3389,3.3389,3.3389,3.3389,3.3381,3.3061,3.2657,3.211,3.1696,3.1373,3.1106,3.1734,3.2108,3.2138,3.2706,3.3245,3.3666,3.394,3.4197,3.449,3.4846,3.5205,3.5459,3.5489,3.5489,3.5489,3.5489,3.5489,3.5489,3.5489,3.5489,3.5489,3.5489,3.5489,3.5489,3.5489,3.5489,3.5489,3.5489,3.5489,3.5444,3.4981,3.4547,3.4143,3.3529,3.2225,3.0686,3.009,2.9429,2.7593,2.7447,2.7708,2.7708,2.8199,2.8536,2.8492,2.9115,2.9752,2.9936,3.0389,3.1161,3.1467,3.1219,3.045,3.5489,3.5489,3.5489,3.5489,3.5489,3.5489,3.5489,3.5489,3.5489,3.5489,3.5489,3.5489,3.5489,3.5489,3.5489,3.5489,3.5489,3.5489,3.5489,3.5489,3.5489,3.5489,3.5489,3.5489,3.5489,3.5554,3.5733,3.6585,3.8092,3.9401,3.9581,3.8702,3.8567,3.8284,3.7769,3.7552,3.7402,3.7368,3.7195,3.6705,3.6062,3.5943,3.5842,3.5656,3.5639,3.5351,3.4827,3.4793,3.4573,3.4049,3.4015,3.4015,3.4015,3.4015,3.4015,3.3946,3.3428,3.2996,3.2812,3.2299,3.1938,3.1854,3.2407,3.2781,3.2886,3.338,3.3948,3.4352,3.4637,3.4805,3.4816,3.5205,3.5474,3.5489,3.5489,3.5489,3.5489,3.5489,3.5489,3.5489,3.5489,3.5489,3.5489,3.5489,3.5489,3.5489,3.5489,3.5489,3.5489,3.5489,3.5489,3.5489,3.5489,3.5295,3.4816,3.3873,3.2498,3.1213,3.0567,2.9684,2.8184,2.8569,2.9065,2.9106,2.9498,2.9875,3.0129,3.0597,3.0744,3.0762,3.1117,3.1511,3.1467,3.1467,3.1146,3.5489,3.5504,3.5489,3.5489,3.5489,3.5489,3.5489,3.5489,3.5489,3.5489,3.5489,3.5489,3.5489,3.5489,3.5489,3.5489,3.5489,3.5489,3.5489,3.5489,3.5489,3.5489,3.5489,3.5489,3.5504,3.5668,3.6165,3.7247,3.8799,3.9679,4.0054,3.9952,3.9902,3.9919,3.9716,3.9126,3.8871,3.8684,3.8159,3.7483,3.6823,3.6721,3.6417,3.5825,3.5639,3.5588,3.5537,3.5537,3.552,3.5487,3.5419,3.547,3.5487,3.547,3.5436,3.5363,3.4825,3.417,3.3614,3.3357,3.3062,3.2646,3.308,3.3455,3.3484,3.4053,3.4472,3.4517,3.507,3.5385,3.5385,3.5429,3.5489,3.5489,3.5489,3.5489,3.5489,3.5489,3.5489,3.5489,3.5489,3.5489,3.5489,3.5489,3.5489,3.5489,3.5489,3.5489,3.5489,3.5489,3.5489,3.5489,3.5489,3.5474,3.5305,3.454,3.312,3.1977,3.0952,2.9811,2.9535,2.9552,3.0092,3.0662,3.1324,3.1717,3.2009,3.2046,3.1901,3.1767,3.1544,3.1674,3.1569,3.1482,3.1204,3.5878,3.5504,3.5489,3.5489,3.5489,3.5489,3.5489,3.5489,3.5489,3.5489,3.5489,3.5489,3.5489,3.5489,3.5489,3.5489,3.5489,3.5489,3.5489,3.5489,3.5489,3.5489,3.5489,3.5489,3.5782,3.6228,3.6492,3.7408,3.8854,3.9714,4.0087,4.0087,4.0087,4.0087,4.002,3.9817,3.9478,3.9022,3.8717,3.8244,3.7584,3.7499,3.7364,3.706,3.6113,3.5639,3.5639,3.5639,3.5639,3.5639,3.5639,3.5639,3.5639,3.5639,3.5639,3.5532,3.4941,3.448,3.4206,3.3779,3.3437,3.3261,3.3754,3.4113,3.4233,3.4726,3.513,3.519,3.531,3.5489,3.5489,3.5489,3.5489,3.5489,3.5489,3.5489,3.5489,3.5489,3.5489,3.5489,3.5489,3.5489,3.5489,3.5489,3.5489,3.5489,3.5489,3.5489,3.5489,3.5489,3.5489,3.5489,3.5489,3.5489,3.5489,3.513,3.4296,3.3283,3.2312,3.1764,3.1433,3.1488,3.1935,3.216,3.2861,3.2981,3.3048,3.2978,3.2841,3.2392,3.2153,3.1854,3.1614,3.1293,3.1132,3.6103,3.5549,3.5489,3.5489,3.5489,3.5489,3.5489,3.5489,3.5489,3.5489,3.5489,3.5489,3.5489,3.5489,3.5489,3.5489,3.5489,3.5489,3.5489,3.5489,3.5489,3.5489,3.5489,3.5489,3.5797,3.629,3.6783,3.7774,3.9193,3.9833,4.007,4.0087,4.0087,4.0087,4.0087,4.0087,3.9817,3.9411,3.9343,3.8988,3.8362,3.8261,3.8142,3.7804,3.6891,3.6231,3.6011,3.6011,3.5859,3.5628,3.5424,3.5371,3.5572,3.584,3.6113,3.627,3.5961,3.5547,3.5279,3.4841,3.443,3.4228,3.4523,3.4816,3.4846,3.5235,3.5459,3.5489,3.5489,3.5489,3.5489,3.5489,3.5489,3.5489,3.5489,3.5489,3.5489,3.5489,3.5489,3.5489,3.5489,3.5489,3.5489,3.5489,3.5489,3.5489,3.5489,3.5489,3.5489,3.5489,3.5489,3.5489,3.5489,3.5489,3.5489,3.527,3.4787,3.3897,3.3132,3.2873,3.305,3.3288,3.3483,3.3733,3.3883,3.3925,3.3918,3.3844,3.3469,3.2961,3.2527,3.2213,3.1693,3.0983,3.0791,3.6118,3.5579,3.5504,3.5489,3.5489,3.5489,3.5489,3.5489,3.5489,3.5489,3.5489,3.5489,3.5489,3.5489,3.5489,3.5489,3.5489,3.5489,3.5489,3.5489,3.5489,3.5489,3.5489,3.5489,3.5619,3.591,3.7175,3.8613,3.9952,4.007,4.0087,4.0087,4.0087,4.0087,4.0087,4.007,4.007,3.9986,3.9969,3.9648,3.9106,3.8988,3.8717,3.8142,3.7939,3.7567,3.6874,3.6806,3.6485,3.5768,3.5202,3.5036,3.5859,3.6441,3.7094,3.7601,3.7739,3.7433,3.6867,3.6567,3.6017,3.561,3.5501,3.5385,3.5385,3.5459,3.5489,3.5489,3.5489,3.5489,3.5489,3.5489,3.5489,3.5489,3.5489,3.5489,3.5489,3.5489,3.5489,3.5554,3.5554,3.5489,3.5489,3.5489,3.5489,3.5489,3.5489,3.5489,3.5489,3.5489,3.5489,3.5489,3.5489,3.5489,3.5489,3.5424,3.4905,3.4283,3.3654,3.3267,3.3801,3.4132,3.4398,3.4661,3.4777,3.4801,3.4577,3.4457,3.4143,3.3664,3.3155,3.2602,3.199,3.1322,3.043,3.6372,3.6133,3.5684,3.5489,3.5489,3.5489,3.5489,3.5489,3.5489,3.5489,3.5489,3.5489,3.5489,3.5489,3.5489,3.5489,3.5489,3.5489,3.5489,3.5489,3.5489,3.5489,3.5489,3.5489,3.6085,3.7175,3.8652,3.961,4.002,4.0087,4.0087,4.0087,4.0087,4.0087,4.0087,4.0087,4.0087,4.0087,4.0087,3.9935,3.9749,3.9732,3.9614,3.9428,3.9411,3.9056,3.8345,3.7838,3.7449,3.7161,3.6973,3.6978,3.7211,3.7438,3.7669,3.7872,3.7922,3.7834,3.7475,3.7009,3.6648,3.6257,3.5837,3.5539,3.5489,3.5489,3.5489,3.5489,3.5489,3.5489,3.5489,3.5489,3.5489,3.5489,3.5489,3.5489,3.5489,3.5489,3.5718,3.6117,3.5846,3.5569,3.5489,3.5489,3.5489,3.5489,3.5489,3.5489,3.5489,3.5489,3.5489,3.5489,3.5489,3.5489,3.5489,3.5489,3.5198,3.4905,3.4409,3.3973,3.4543,3.4824,3.5133,3.5279,3.5424,3.5415,3.5205,3.4996,3.4681,3.4247,3.3679,3.3065,3.2467,3.1558,3.0502,3.6701,3.6417,3.5774,3.5489,3.5489,3.5489,3.5489,3.5489,3.5489,3.5489,3.5489,3.5489,3.5489,3.5489,3.5489,3.5489,3.5489,3.5489,3.5489,3.5489,3.5489,3.5489,3.5554,3.5846,3.6692,3.8076,3.9226,3.9833,4.0087,4.0087,4.0087,4.0087,4.0087,4.0087,4.0087,4.0087,4.0087,4.0087,4.0087,4.0087,4.007,4.0087,4.0087,4.007,4.007,3.9834,3.9394,3.8937,3.8447,3.8041,3.7922,3.7911,3.7935,3.8149,3.843,3.8667,3.8751,3.8723,3.8548,3.7725,3.708,3.6886,3.607,3.5504,3.5489,3.5489,3.5489,3.5489,3.5489,3.5489,3.5489,3.5489,3.5489,3.5489,3.5489,3.5489,3.5504,3.5782,3.5894,3.607,3.5782,3.5554,3.5489,3.5489,3.5489,3.5489,3.5489,3.5489,3.5489,3.5489,3.5489,3.5489,3.5489,3.5489,3.5489,3.5489,3.5489,3.5424,3.5279,3.5052,3.5198,3.5264,3.5424,3.5424,3.5489,3.5489,3.5325,3.537,3.5175,3.4666,3.4113,3.3499,3.2735,3.135,3.0341,3.7075,3.6477,3.5789,3.5489,3.5489,3.5489,3.5489,3.5489,3.5489,3.5489,3.5489,3.5489,3.5489,3.5489,3.5489,3.5489,3.5489,3.5489,3.5489,3.5489,3.5489,3.5569,3.5718,3.6337,3.7424,3.8635,3.9016,3.9437,4.007,4.0087,4.0087,4.0087,4.0087,4.0087,4.0087,4.0087,4.0087,4.0087,4.0087,4.0087,4.0087,4.0087,4.0087,4.0087,4.007,4.0037,3.9969,3.9868,3.9326,3.8261,3.821,3.8236,3.8269,3.8724,3.9343,3.9851,4.007,3.9952,3.9697,3.8646,3.7783,3.7557,3.6492,3.5504,3.5504,3.5489,3.5489,3.5489,3.5489,3.5489,3.5489,3.5489,3.5489,3.5489,3.5489,3.5554,3.5733,3.6165,3.618,3.591,3.5619,3.5489,3.5489,3.5489,3.5489,3.5489,3.5489,3.5489,3.5489,3.5489,3.5489,3.5489,3.5489,3.5489,3.5489,3.5489,3.5489,3.5489,3.5489,3.5489,3.5489,3.5489,3.5489,3.5489,3.5489,3.5489,3.5429,3.537,3.5295,3.4906,3.4337,3.3769,3.2853,3.1586,3.0717,3.7315,3.7045,3.5968,3.5489,3.5489,3.5489,3.5489,3.5489,3.5489,3.5489,3.5489,3.5489,3.5489,3.5489,3.5489,3.5489,3.5489,3.5489,3.5489,3.5489,3.5489,3.5831,3.6399,3.71,3.7962,3.8908,3.9489,3.9901,4.007,4.0087,4.0087,4.0087,4.0087,4.0087,4.0087,4.0087,4.0087,4.0087,4.0087,4.0087,4.0087,4.0087,4.0087,4.0087,4.007,4.007,4.007,4.0087,3.9969,3.9597,3.9495,3.9496,3.9497,3.9632,3.9834,4.0003,4.0087,4.0087,3.9901,3.9156,3.8414,3.7806,3.6874,3.6054,3.5554,3.5489,3.5489,3.5489,3.5489,3.5489,3.5489,3.5489,3.5489,3.5489,3.5489,3.5846,3.66,3.6368,3.607,3.689,3.6148,3.5619,3.5489,3.5489,3.5489,3.5489,3.5489,3.5489,3.5489,3.5489,3.5489,3.5489,3.5489,3.5489,3.5489,3.5489,3.5489,3.5489,3.5489,3.5489,3.5489,3.5489,3.5489,3.5489,3.5489,3.5489,3.525,3.5085,3.4996,3.4921,3.4143,3.338,3.308,3.2198,3.1471,3.7404,3.73,3.6028,3.5489,3.5489,3.5489,3.5489,3.5489,3.5489,3.5489,3.5489,3.5489,3.5489,3.5489,3.5489,3.5489,3.5489,3.5489,3.5489,3.5569,3.5831,3.6415,3.716,3.7905,3.8635,3.9385,3.9901,4.007,4.0087,4.0087,4.0087,4.0087,4.0087,4.0087,4.0087,4.0087,4.0087,4.0087,4.0087,4.0087,4.0087,4.0087,4.0087,4.002,3.9833,3.961,3.961,3.9901,4.0087,4.007,4.007,4.0087,4.0087,4.0087,4.0087,4.0087,4.0087,4.0087,3.9952,3.9368,3.8728,3.8117,3.7306,3.6508,3.5991,3.5718,3.5489,3.5489,3.5489,3.5489,3.5489,3.5489,3.5489,3.5489,3.5489,3.5846,3.6768,3.629,3.6243,3.6477,3.6085,3.5489,3.5489,3.5489,3.5489,3.5489,3.5489,3.5489,3.5489,3.5489,3.5489,3.5489,3.5489,3.5489,3.5489,3.5489,3.5489,3.5489,3.5489,3.5489,3.5489,3.5489,3.5459,3.5459,3.5474,3.5355,3.5011,3.4771,3.4741,3.4427,3.3649,3.3125,3.2811,3.2437,3.1809,3.7375,3.721,3.6013,3.5489,3.5489,3.5489,3.5489,3.5489,3.5489,3.5489,3.5489,3.5489,3.5489,3.5489,3.5489,3.5489,3.5489,3.5489,3.5489,3.5718,3.629,3.71,3.769,3.8414,3.9193,3.9901,4.007,4.0087,4.0087,4.0087,4.0087,4.0087,4.0087,4.0087,4.0087,4.0087,4.0087,4.0087,4.0087,4.0087,4.0087,4.0087,4.0087,4.0003,3.961,3.9315,3.9368,3.9731,4.0087,4.0087,4.0087,4.0087,4.0087,4.0087,4.0087,4.0087,4.0087,4.0087,4.002,3.9489,3.8908,3.8509,3.7424,3.6615,3.6337,3.5782,3.5489,3.5489,3.5489,3.5489,3.5489,3.5489,3.5489,3.5489,3.5489,3.5489,3.5604,3.6117,3.6228,3.5733,3.5619,3.5504,3.5489,3.5489,3.5489,3.5489,3.5489,3.5489,3.5489,3.5489,3.5489,3.5489,3.5489,3.5489,3.5489,3.5489,3.5489,3.5489,3.5489,3.5489,3.5489,3.5474,3.5415,3.5355,3.5145,3.4876,3.4562,3.4442,3.4367,3.3933,3.317,3.2796,3.2497,3.2078,3.1467,3.712,3.6611,3.5848,3.5489,3.5489,3.5489,3.5489,3.5489,3.5489,3.5489,3.5489,3.5489,3.5489,3.5489,3.5489,3.5489,3.5489,3.5554,3.5489,3.5683,3.6951,3.7515,3.7978,3.8635,3.9315,3.9952,4.0087,4.0087,4.0087,4.0087,4.0087,4.0087,4.0087,4.0087,4.0087,4.0087,4.0087,4.0087,4.0087,4.0087,4.0087,4.0087,4.007,4.0003,3.985,3.9833,3.985,4.002,4.0087,4.0087,4.0087,4.0087,4.0087,4.0087,4.0087,4.0087,4.0087,4.0087,4.007,3.985,3.9332,3.8302,3.7847,3.7055,3.5831,3.5718,3.5554,3.5504,3.5489,3.5489,3.5489,3.5489,3.5489,3.5489,3.5489,3.5489,3.5489,3.5683,3.591,3.6054,3.5767,3.5489,3.5489,3.5489,3.5489,3.5489,3.5554,3.5489,3.5489,3.5554,3.5554,3.5554,3.5489,3.5489,3.5489,3.5489,3.5489,3.5489,3.5489,3.531,3.5325,3.5295,3.5175,3.4951,3.4666,3.4397,3.4143,3.3784,3.3649,3.3155,3.2766,3.2497,3.2183,3.1749,3.1467,3.6776,3.6417,3.5774,3.5489,3.5489,3.5489,3.5489,3.5489,3.5489,3.5489,3.5489,3.5489,3.5489,3.5489,3.5489,3.5489,3.5604,3.5894,3.5991,3.6399,3.7557,3.8302,3.8469,3.9032,3.9731,4.007,4.0087,4.0087,4.0087,4.0087,4.0087,4.0087,4.0087,4.0087,4.0087,4.0087,4.0087,4.0087,4.0087,4.0087,4.0087,4.0087,3.9833,3.9731,3.985,3.9952,3.9542,3.9885,4.007,4.0087,4.0087,4.0087,4.0087,4.0087,4.0087,4.0087,4.0087,4.0087,4.0087,4.007,3.9747,3.8887,3.8541,3.7962,3.704,3.6523,3.6006,3.5958,3.5718,3.5489,3.5489,3.5489,3.5489,3.5489,3.5489,3.5489,3.5489,3.5504,3.5619,3.5943,3.5718,3.5554,3.5489,3.5489,3.5554,3.5554,3.6054,3.6054,3.5718,3.5718,3.5718,3.5718,3.5554,3.5489,3.5489,3.5489,3.5489,3.5489,3.5489,3.519,3.4936,3.4906,3.4861,3.4547,3.4233,3.4053,3.3784,3.3395,3.2976,3.2736,3.2452,3.2213,3.1958,3.1644,3.1467,3.6432,3.6297,3.5744,3.5489,3.5489,3.5489,3.5489,3.5489,3.5489,3.5489,3.5489,3.5489,3.5489,3.5489,3.5489,3.5504,3.5846,3.6228,3.6508,3.698,3.8117,3.869,3.8978,3.9558,4.002,4.007,4.0087,4.0087,4.0087,4.0087,4.0087,4.0087,4.0087,4.0087,4.0087,4.0087,4.0087,4.0087,4.0087,4.0087,4.0087,4.007,3.9782,3.9542,3.9782,3.985,3.9542,3.9782,4.0087,4.0087,4.0087,4.0087,4.0087,4.0087,4.0087,4.0087,4.0087,4.0087,4.0087,4.007,4.0003,3.9952,3.9315,3.869,3.8117,3.7188,3.6508,3.6102,3.5831,3.5489,3.5489,3.5489,3.5489,3.5489,3.5489,3.5489,3.5489,3.5489,3.5554,3.5554,3.5554,3.5489,3.5489,3.5489,3.5554,3.5733,3.6275,3.6554,3.6228,3.6117,3.6243,3.6054,3.5943,3.5943,3.5943,3.6305,3.6196,3.5879,3.5767,3.5311,3.4871,3.4666,3.4577,3.4098,3.3799,3.3544,3.317,3.2662,3.2362,3.2273,3.2123,3.1869,3.1689,3.1482,3.1467,3.6178,3.5654,3.5549,3.5489,3.5489,3.5489,3.5554,3.5489,3.5554,3.5504,3.5554,3.5554,3.5619,3.5619,3.5504,3.5846,3.6399,3.6798,3.7084,3.7616,3.858,3.9032,3.9193,3.9731,4.007,4.0087,4.0087,4.0087,4.0087,4.0087,4.0087,4.0087,4.0087,4.0087,4.0087,4.0087,4.0087,4.0087,4.0087,4.0087,4.0087,4.007,4.002,3.9782,4.002,3.9952,3.9901,3.9969,4.0087,4.0087,4.0087,4.0087,4.0087,4.0087,4.0087,4.0087,4.0087,4.0087,4.0087,4.007,3.9714,3.9246,3.9086,3.8342,3.7541,3.6843,3.6446,3.5879,3.5668,3.5489,3.5489,3.5489,3.5489,3.5489,3.5489,3.5489,3.5489,3.5489,3.5489,3.5489,3.5489,3.5489,3.5489,3.5668,3.5894,3.6228,3.6783,3.7144,3.7115,3.7055,3.716,3.6859,3.6508,3.6508,3.6492,3.698,3.7235,3.66,3.6261,3.563,3.5217,3.4706,3.4325,3.3834,3.3216,3.2736,3.2317,3.1958,3.1869,3.1884,3.1704,3.1524,3.1467,3.1467,3.1467,3.5789,3.5569,3.5879,3.5831,3.5619,3.5894,3.6054,3.607,3.6054,3.629,3.66,3.6662,3.6662,3.6662,3.6662,3.6935,3.7203,3.7658,3.8003,3.8525,3.9139,3.9542,3.9489,3.9952,4.007,4.0087,4.0087,4.0087,4.0087,4.0087,4.0087,4.0087,4.0087,4.0087,4.0087,4.0087,4.0087,4.0087,4.0087,4.0087,4.0087,4.0087,4.0087,4.0087,4.0087,4.0087,4.0087,4.0087,4.0087,4.0087,4.0087,4.0087,4.0087,4.0087,4.0087,4.0087,4.0087,4.0087,4.0087,4.007,3.9901,3.9679,3.9489,3.9262,3.8398,3.7774,3.6692,3.5831,3.5489,3.5489,3.5489,3.5489,3.5489,3.5489,3.5489,3.5554,3.5489,3.5554,3.5554,3.5619,3.5619,3.5619,3.5604,3.5831,3.6228,3.6737,3.7291,3.7658,3.7921,3.8035,3.8076,3.7616,3.7203,3.7203,3.7247,3.7674,3.785,3.7266,3.6782,3.6154,3.5372,3.4842,3.416,3.3599,3.2915,3.2428,3.1898,3.1747,3.1584,3.1524,3.1582,3.1567,3.1524,3.1467,3.1582,3.5973,3.6022,3.6585,3.6523,3.6133,3.6569,3.6859,3.6843,3.6859,3.716,3.7748,3.7764,3.7706,3.7764,3.7748,3.7863,3.8035,3.8619,3.8908,3.9262,3.9714,4.007,4.007,4.0087,4.0087,4.0087,4.0087,4.0087,4.0087,4.0087,4.0087,4.0087,4.0087,4.0087,4.0087,4.0087,4.0087,4.0087,4.0087,4.0087,4.0087,4.0087,4.0087,4.0087,4.0087,4.0087,4.0087,4.0087,4.0087,4.0087,4.0087,4.0087,4.0087,4.0087,4.0087,4.0087,4.0087,4.0087,4.0087,4.0087,4.007,3.9969,4.007,3.9969,3.9454,3.8246,3.7175,3.607,3.5782,3.5782,3.5831,3.5718,3.5894,3.6022,3.5973,3.5797,3.6022,3.6085,3.6085,3.6022,3.5925,3.5958,3.607,3.6538,3.704,3.7483,3.8084,3.8509,3.8761,3.8995,3.8924,3.8358,3.8019,3.8019,3.8133,3.8358,3.8202,3.7648,3.7135,3.6566,3.5705,3.4895,3.4255,3.3678,3.3262,3.2767,3.2144,3.1951,3.2241,3.2296,3.1936,3.1879,3.2241,3.2104,3.1951,3.7515,3.7531,3.7648,3.7573,3.7456,3.7573,3.7632,3.7632,3.7632,3.769,3.7994,3.7879,3.7937,3.7978,3.7921,3.8246,3.8635,3.8978,3.9315,3.9799,4.002,4.0087,4.0087,4.0087,4.0087,4.0087,4.0087,4.0087,4.0087,4.0087,4.0087,4.0087,4.0087,4.0087,4.0087,4.0087,4.0087,4.0087,4.0087,4.0087,4.0087,4.0087,4.0087,4.0087,4.0087,4.0087,4.0087,4.0087,4.0087,4.0087,4.0087,4.0087,4.0087,4.0087,4.0087,4.0087,4.0087,4.0087,4.0087,4.0087,4.0087,4.0087,4.0087,3.9714,3.9156,3.8541,3.7515,3.6615,3.6446,3.6508,3.6523,3.6446,3.6798,3.6919,3.6768,3.6935,3.7115,3.6707,3.6723,3.7011,3.7071,3.6874,3.6843,3.7322,3.7863,3.8342,3.8837,3.9193,3.9437,3.961,3.961,3.9032,3.8816,3.8799,3.8668,3.8987,3.8619,3.8007,3.7396,3.6881,3.6075,3.5224,3.4546,3.4005,3.3657,3.3593,3.3419,3.3323,3.3323,3.3061,3.2664,3.2864,3.3339,3.2986,3.2477,3.8613,3.7863,3.8246,3.8206,3.7879,3.8246,3.8414,3.8414,3.8414,3.8707,3.9049,3.9102,3.9102,3.8995,3.9102,3.9262,3.9558,3.9558,3.9731,4.002,4.0087,4.0087,4.0087,4.0087,4.0087,4.0087,4.0087,4.0087,4.0087,4.0087,4.0087,4.0087,4.0087,4.0087,4.0087,4.0087,4.0087,4.0087,4.0087,4.0087,4.0087,4.0087,4.0087,4.0087,4.0087,4.0087,4.0087,4.0087,4.0087,4.0087,4.0087,4.0087,4.0087,4.0087,4.0087,4.0087,4.0087,4.0087,4.0087,4.0087,4.0087,4.0087,4.007,3.9731,3.9032,3.8635,3.8149,3.7322,3.7263,3.7279,3.7279,3.7263,3.7456,3.7573,3.7557,3.7616,3.7748,3.7515,3.7397,3.7806,3.8149,3.7946,3.7815,3.8173,3.8525,3.8745,3.9176,3.956,3.9817,3.9901,3.9885,3.9714,3.9594,3.9594,3.9393,3.9378,3.8925,3.8271,3.7319,3.6803,3.6338,3.5611,3.4972,3.4806,3.4805,3.4739,3.4657,3.4186,3.3735,3.3531,3.3391,3.3598,3.3786,3.3531,3.313,3.9647,3.843,3.8978,3.8887,3.843,3.8962,3.9209,3.9209,3.9193,3.9542,3.9969,4.002,4.007,4.007,4.002,3.9952,4.007,4.0087,4.0087,4.0087,4.0087,4.0087,4.0087,4.0087,4.0087,4.0087,4.0087,4.0087,4.0087,4.0087,4.0087,4.0087,4.0087,4.0087,4.0087,4.0087,4.0087,4.0087,4.0087,4.0087,4.0087,4.0087,4.0087,4.0087,4.0087,4.0087,4.0087,4.0087,4.0087,4.0087,4.0087,4.0087,4.0087,4.0087,4.0087,4.0087,4.0087,4.0087,4.0087,4.0087,4.0087,4.0087,4.007,3.9901,3.9437,3.9209,3.8854,3.8133,3.8076,3.8092,3.8092,3.8076,3.8318,3.8374,3.8262,3.8262,3.8262,3.8133,3.8302,3.8816,3.9049,3.9156,3.9086,3.9139,3.9262,3.9315,3.9577,3.9902,3.9851,3.9783,3.9513,3.9244,3.9126,3.9109,3.9075,3.9005,3.8751,3.8345,3.7364,3.6658,3.6118,3.5866,3.5455,3.5503,3.5639,3.547,3.5115,3.456,3.4103,3.4252,3.4301,3.4153,3.4087,3.3937,3.3836,4.1013,3.9952,4.0003,3.9952,3.9867,3.9969,4.0003,3.9901,3.9952,3.9952,4.007,4.0087,4.0087,4.0087,4.0087,4.0087,4.0087,4.0087,4.0087,4.0087,4.0087,4.0087,4.0087,4.0087,4.0087,4.0087,4.0087,4.0087,4.0087,4.0087,4.0087,4.0087,4.0087,4.0087,4.0087,4.0087,4.0087,4.0087,4.0087,4.0087,4.0087,4.0087,4.0087,4.0087,4.0087,4.0087,4.0087,4.0087,4.0087,4.0087,4.0087,4.0087,4.0087,4.0087,4.0087,4.0087,4.0087,4.0087,4.0087,4.0087,4.0087,4.0087,4.007,4.007,3.985,3.9952,3.961,3.8978,3.887,3.8854,3.8854,3.8854,3.9102,3.9209,3.9102,3.9119,3.9102,3.8924,3.9156,3.9731,3.9901,3.9782,3.9731,3.9662,3.9662,3.9662,3.9361,3.9631,3.9174,3.9005,3.8684,3.8415,3.8212,3.8145,3.8094,3.8007,3.7889,3.7584,3.6891,3.6315,3.583,3.5656,3.5639,3.5639,3.5639,3.5639,3.5577,3.5115,3.4911,3.5144,3.5144,3.4847,3.4752,3.4688,3.4592,4.1534,4.1105,4.075,4.04,4.0087,4.0087,4.0087,4.0087,4.0087,4.0087,4.0087,4.0087,4.0087,4.0087,4.0087,4.0087,4.0087,4.0087,4.0087,4.0087,4.0087,4.0087,4.0087,4.0087,4.0087,4.0087,4.0087,4.0087,4.0087,4.0087,4.0087,4.0087,4.0087,4.0087,4.0087,4.0087,4.0087,4.0087,4.0087,4.0087,4.0087,4.0087,4.0087,4.0087,4.0087,4.0087,4.0087,4.0087,4.0087,4.0087,4.0087,4.0087,4.0087,4.0087,4.0087,4.0087,4.0087,4.0087,4.0087,4.0087,4.0087,4.0087,4.0087,4.0087,4.0087,4.0087,4.002,3.9731,3.961,3.9542,3.961,3.961,3.9731,3.9901,3.9952,3.9901,3.9782,3.9542,3.9594,3.9952,4.007,4.002,4.002,4.002,4.007,4.0037,3.9631,3.9191,3.8667,3.8261,3.7973,3.7719,3.755,3.7584,3.7584,3.7364,3.711,3.6755,3.6383,3.6045,3.5673,3.5656,3.5639,3.5639,3.5639,3.5639,3.5639,3.5639,3.5577,3.547,3.5453,3.5362,3.5299,3.5299,3.5207,4.2103,4.181,4.1534,4.1013,4.0368,4.0154,4.0087,4.0087,4.0087,4.0087,4.0087,4.0087,4.0087,4.0087,4.0087,4.0087,4.0087,4.0087,4.0087,4.0087,4.0087,4.0087,4.0087,4.0087,4.0087,4.0087,4.0087,4.0087,4.0087,4.0087,4.0087,4.0087,4.0087,4.0087,4.0087,4.0087,4.0087,4.0087,4.0087,4.0087,4.0087,4.0087,4.0087,4.0087,4.0087,4.0087,4.0087,4.0087,4.0087,4.0087,4.0087,4.0087,4.0087,4.0087,4.0087,4.0087,4.0087,4.0087,4.0087,4.0087,4.0087,4.0087,4.0087,4.0087,4.0087,4.0087,4.002,4.007,4.007,4.0087,4.0087,4.002,3.9952,4.007,4.007,4.002,4.002,3.9901,3.9952,4.007,4.007,4.0054,3.9884,3.9817,3.9529,3.9546,3.9411,3.8717,3.7821,3.7483,3.7313,3.7094,3.6907,3.7026,3.7144,3.6755,3.6417,3.6299,3.5994,3.5876,3.5639,3.5639,3.5639,3.5639,3.5639,3.5639,3.5639,3.5639,3.5639,3.5577,3.5577,3.5515,3.5515,3.547,3.5515,4.281,4.1937,4.2382,4.1955,4.0903,4.0336,4.0121,4.0138,4.0087,4.0087,4.0087,4.0087,4.0087,4.0087,4.0087,4.0087,4.0087,4.0087,4.0087,4.0087,4.0087,4.0087,4.0087,4.0087,4.0087,4.0087,4.0154,4.0254,4.0121,4.0204,4.0204,4.007,4.0087,4.0087,4.0087,4.0087,4.0087,4.0087,4.0087,4.0087,4.0087,4.0087,4.0087,4.0087,4.0087,4.0087,4.0087,4.0087,4.0087,4.0087,4.0087,4.0087,4.0087,4.0087,4.0087,4.0087,4.0087,4.0087,4.0087,4.0087,4.0087,4.0087,4.0087,4.0087,4.0087,4.0087,4.0087,4.0087,4.0087,4.0087,4.0087,4.0087,4.0087,4.0087,4.0087,4.0087,4.0087,4.0087,4.0087,3.9986,4.0003,4.0053,3.9749,3.9478,3.9039,3.892,3.8988,3.8328,3.7178,3.6755,3.662,3.6518,3.6349,3.6332,3.6366,3.6011,3.574,3.5673,3.5673,3.5639,3.5639,3.5639,3.5639,3.5622,3.5639,3.5639,3.5639,3.5639,3.5711,3.5756,3.5622,3.5577,3.5622,3.5711,3.5827,4.3267,4.2903,4.2763,4.249,4.1937,4.1059,4.0466,4.0121,4.0087,4.0087,4.0087,4.0087,4.0087,4.0087,4.0087,4.0087,4.0087,4.0087,4.0087,4.0087,4.0087,4.0087,4.0121,4.0121,4.0121,4.0204,4.0368,4.0417,4.0087,4.0449,4.0368,4.0204,4.0121,4.0087,4.0087,4.0087,4.0087,4.0087,4.0087,4.0087,4.0087,4.0087,4.0087,4.0087,4.0087,4.0087,4.0087,4.0087,4.0087,4.0087,4.0087,4.0087,4.0087,4.0087,4.0087,4.0121,4.0121,4.0087,4.0087,4.0087,4.0087,4.0121,4.0138,4.0138,4.0087,4.0087,4.0087,4.0087,4.0087,4.0087,4.0087,4.0087,4.0087,4.0087,4.0087,4.0087,4.0087,4.0087,4.0054,3.9868,3.9817,3.9123,3.8717,3.8565,3.8244,3.7787,3.7719,3.7313,3.6332,3.6096,3.596,3.5926,3.5825,3.574,3.5622,3.5711,3.5756,3.5773,3.5684,3.5639,3.5639,3.5783,3.5783,3.5854,3.5739,3.5639,3.5783,3.5941,3.5941,3.5915,3.5941,3.6028,3.6139,3.6249,3.6357,4.3479,4.3444,4.3123,4.286,4.2516,4.1398,4.062,4.0138,4.0087,4.0087,4.0087,4.0087,4.0087,4.0087,4.0087,4.0087,4.0087,4.0087,4.0087,4.0087,4.0087,4.0087,4.0121,4.0286,4.0449,4.0528,4.0827,4.1013,4.0814,4.1059,4.092,4.0497,4.0204,4.0286,4.0286,4.0286,4.0087,4.0087,4.0087,4.0087,4.0087,4.0087,4.0087,4.0087,4.0087,4.0087,4.0087,4.0087,4.0121,4.0121,4.0121,4.0121,4.0121,4.0121,4.0121,4.0121,4.0286,4.0336,4.0417,4.04,4.0449,4.0449,4.0254,4.0138,4.0087,4.0087,4.0087,4.0087,4.0121,4.0171,4.0171,4.0171,4.0204,4.0204,4.0221,4.0221,3.9765,3.9781,3.9528,3.9393,3.9022,3.8311,3.7669,3.7499,3.7313,3.684,3.64,3.6011,3.574,3.5673,3.5639,3.5639,3.5622,3.5622,3.5739,3.5854,3.5898,3.5915,3.5941,3.6028,3.6207,3.6481,3.6274,3.6122,3.6291,3.6333,3.6249,3.6291,3.6416,3.6498,3.6481,3.6563,3.6643,3.6764,3.6865,4.3479,4.3479,4.3479,4.3178,4.2591,4.1579,4.0709,4.0188,4.0121,4.007,4.0087,4.0087,4.0087,4.0087,4.0087,4.0087,4.0087,4.0087,4.0087,4.0087,4.0087,4.0121,4.0319,4.0607,4.078,4.1087,4.1446,4.1775,4.1732,4.1722,4.142,4.1024,4.0672,4.072,4.072,4.0625,4.0385,4.0336,4.0121,4.0121,4.0087,4.0087,4.0087,4.0087,4.0087,4.0087,4.0087,4.0087,4.0171,4.0171,4.0154,4.0204,4.0154,4.0121,4.0121,4.0286,4.0672,4.0874,4.0967,4.0967,4.0949,4.0874,4.0546,4.0303,4.0204,4.0286,4.0385,4.0466,4.0514,4.0385,4.0303,4.0336,4.0385,4.0385,4.0385,4.0029,3.9421,3.9117,3.8781,3.8478,3.8108,3.755,3.6941,3.6654,3.662,3.6299,3.5977,3.5893,3.5673,3.5673,3.5639,3.5639,3.5622,3.5667,3.5783,3.6054,3.6291,3.6374,3.6684,3.6803,3.6981,3.702,3.6786,3.6746,3.702,3.7038,3.6803,3.6843,3.7076,3.7058,3.7058,3.7097,3.721,3.721,3.7285,4.3479,4.3479,4.3479,4.3391,4.3178,4.2468,4.1648,4.0754,4.0303,4.0087,4.0087,4.0087,4.007,4.0087,4.0087,4.007,4.007,4.0087,4.0087,4.0087,4.007,4.0319,4.0625,4.0856,4.1178,4.1621,4.2044,4.2411,4.221,4.2192,4.2192,4.1854,4.1402,4.1411,4.1402,4.1358,4.1059,4.0767,4.0466,4.0303,4.0254,4.0254,4.0254,4.0254,4.0221,4.0221,4.0171,4.0171,4.0303,4.0577,4.0672,4.0797,4.1286,4.092,4.0655,4.075,4.1178,4.1516,4.1534,4.1534,4.1534,4.1534,4.1331,4.1076,4.0844,4.075,4.0844,4.0938,4.1076,4.1001,4.1001,4.103,4.103,4.0984,4.0863,4.032,3.9681,3.9003,3.8601,3.7699,3.733,3.6891,3.6282,3.6096,3.6045,3.5774,3.5639,3.5639,3.5639,3.5639,3.5639,3.5639,3.5783,3.5827,3.6097,3.6333,3.6643,3.6882,3.7228,3.7414,3.734,3.7303,3.7228,3.7303,3.7487,3.7377,3.7152,3.7303,3.7578,3.7649,3.7649,3.7685,3.7703,3.7703,3.7826,4.3479,4.3479,4.3479,4.3479,4.3391,4.2939,4.2279,4.1569,4.0767,4.0336,4.0121,4.0087,3.9952,3.961,3.9542,3.9437,3.9119,3.9437,3.9542,3.961,3.9969,4.04,4.0733,4.1178,4.1639,4.2185,4.2775,4.3173,4.2973,4.2847,4.2829,4.2595,4.2282,4.2114,4.2044,4.1853,4.175,4.1464,4.1196,4.0861,4.0737,4.0737,4.0767,4.0672,4.0594,4.0417,4.0417,4.0417,4.0625,4.0949,4.1041,4.1402,4.175,4.1402,4.1251,4.1358,4.181,4.2062,4.2162,4.218,4.2162,4.2044,4.1926,4.1768,4.1595,4.1508,4.1534,4.1578,4.1682,4.1768,4.1768,4.181,4.1768,4.1768,4.1276,4.0768,3.9983,3.9199,3.8229,3.7148,3.6569,3.618,3.5859,3.5707,3.5639,3.5639,3.5639,3.5639,3.5639,3.5639,3.5639,3.5639,3.5871,3.6054,3.6374,3.6764,3.7135,3.747,3.7826,3.7913,3.7756,3.7755,3.7823,3.7859,3.7861,3.7719,3.754,3.779,3.8016,3.7975,3.795,3.8056,3.8111,3.8252,3.8368,4.3479,4.3479,4.3479,4.3479,4.3444,4.2976,4.2732,4.2577,4.1446,4.0655,4.0237,4.0003,3.9542,3.9139,3.8924,3.8541,3.8541,3.8816,3.9139,3.8945,3.9782,4.04,4.1105,4.1534,4.2109,4.2812,4.3435,4.3806,4.3983,4.3871,4.3676,4.3302,4.2796,4.2685,4.2775,4.2426,4.2364,4.2462,4.2144,4.1853,4.1682,4.1725,4.181,4.1621,4.1313,4.1013,4.0949,4.0995,4.0995,4.1223,4.149,4.1895,4.1895,4.2062,4.2003,4.1848,4.2135,4.2186,4.219,4.2118,4.2244,4.2201,4.2087,4.1916,4.1697,4.1979,4.2062,4.2266,4.2386,4.2171,4.2081,4.1974,4.1938,4.1629,4.116,4.0506,3.9682,3.8655,3.7448,3.6563,3.6158,3.5802,3.5757,3.5639,3.5639,3.5639,3.5639,3.5639,3.5622,3.5622,3.5705,3.5705,3.5985,3.6374,3.6847,3.723,3.7667,3.8047,3.8281,3.8196,3.7853,3.8072,3.8493,3.8045,3.7558,3.794,3.799,3.7867,3.7676,3.7789,3.7851,3.8224,3.8383,3.8193,3.8517,4.3479,4.3479,4.3479,4.3479,4.3479,4.3356,4.305,4.2655,4.1919,4.1223,4.059,3.9698,3.9086,3.8799,3.8262,3.7863,3.7962,3.8228,3.8783,3.9159,3.9732,4.0603,4.1446,4.186,4.2549,4.3398,4.3998,4.4327,4.4669,4.4706,4.4687,4.4518,4.3911,4.3619,4.3502,4.3122,4.3087,4.3214,4.3032,4.2523,4.2062,4.1853,4.181,4.181,4.1639,4.1595,4.1578,4.1578,4.1895,4.2221,4.2342,4.248,4.2498,4.2865,4.2466,4.1881,4.1996,4.1994,4.1809,4.1665,4.1683,4.159,4.1431,4.1409,4.1577,4.2134,4.2564,4.2793,4.2814,4.2487,4.2287,4.2141,4.1923,4.1451,4.0997,4.0167,3.9301,3.8019,3.6717,3.626,3.5871,3.5783,3.5739,3.5667,3.5639,3.5639,3.5639,3.5622,3.5622,3.565,3.5874,3.5959,3.619,3.6603,3.7193,3.7596,3.7975,3.8154,3.8327,3.8169,3.7881,3.779,3.7716,3.7349,3.7099,3.7386,3.7367,3.6879,3.6824,3.7165,3.7257,3.7422,3.7257,3.7081,3.7759,4.3479,4.3479,4.3479,4.3479,4.3479,4.3479,4.3321,4.2921,4.2185,4.1621,4.107,3.9699,3.8745,3.8342,3.7632,3.7306,3.7345,3.7689,3.828,3.8937,3.9614,4.0678,4.1427,4.2141,4.3013,4.3838,4.4382,4.4806,4.5222,4.536,4.53,4.5118,4.4632,4.4361,4.4128,4.3804,4.3612,4.3497,4.3479,4.3105,4.2483,4.2523,4.2562,4.2562,4.2364,4.2284,4.2221,4.2221,4.24,4.2732,4.2884,4.2686,4.265,4.2647,4.228,4.1683,4.1512,4.157,4.1222,4.0987,4.1001,4.0965,4.1042,4.1159,4.1214,4.1723,4.2086,4.2298,4.2024,4.1732,4.1988,4.1951,4.1588,4.1186,4.055,3.9792,3.8938,3.7935,3.7147,3.6816,3.6563,3.6563,3.6457,3.6139,3.6114,3.5941,3.5915,3.5694,3.5694,3.5727,3.599,3.6157,3.6295,3.6858,3.7542,3.7889,3.8164,3.8285,3.8175,3.7661,3.7147,3.7019,3.6835,3.6541,3.6431,3.6652,3.6505,3.6083,3.6229,3.6615,3.656,3.645,3.6229,3.6083,3.6699,4.3314,4.3332,4.3204,4.3167,4.3185,4.3149,4.3112,4.292,4.2045,4.1481,4.1094,3.9429,3.839,3.7716,3.7024,3.6675,3.6714,3.7231,3.7916,3.8377,3.9225,4.0252,4.1392,4.243,4.3273,4.414,4.4811,4.5182,4.5513,4.559,4.5534,4.5244,4.5067,4.4908,4.4317,4.3986,4.3818,4.3597,4.3479,4.3479,4.3444,4.3479,4.3356,4.3232,4.3087,4.2826,4.2788,4.2788,4.2826,4.283,4.3032,4.2719,4.2404,4.2234,4.1611,4.1119,4.0863,4.0818,4.0616,4.0487,4.0561,4.0671,4.0818,4.0818,4.0799,4.0932,4.1299,4.1427,4.1185,4.1222,4.1497,4.146,4.1111,4.0657,3.9965,3.9475,3.8685,3.7929,3.7596,3.7248,3.7135,3.7114,3.6843,3.658,3.6457,3.6291,3.6207,3.5968,3.5839,3.5918,3.6055,3.6171,3.6235,3.6934,3.7546,3.7689,3.7735,3.7546,3.7276,3.6817,3.6431,3.6211,3.6028,3.5826,3.5807,3.5899,3.5789,3.544,3.5716,3.5881,3.5569,3.533,3.5385,3.533,3.5662,4.2525,4.247,4.1846,4.1589,4.1607,4.1589,4.157,4.1452,4.0872,4.0331,3.9799,3.8619,3.7711,3.7732,3.698,3.6489,3.6279,3.6844,3.6975,3.725,3.8494,3.973,4.0967,4.2225,4.3338,4.4367,4.5223,4.5475,4.5661,4.572,4.5719,4.5512,4.5322,4.5031,4.4568,4.4223,4.3881,4.3612,4.3479,4.3479,4.3479,4.3479,4.3479,4.3444,4.341,4.3375,4.3339,4.3339,4.3339,4.321,4.2823,4.2472,4.2011,4.1552,4.0928,4.0377,4.012,3.9882,3.9735,3.9588,3.9588,3.9533,3.9551,3.9496,3.946,3.9441,3.99,4.0432,4.0341,4.0524,4.0671,4.0414,4.0065,3.9606,3.9006,3.897,3.8588,3.8201,3.7843,3.747,3.7135,3.6981,3.6701,3.6539,3.6539,3.6522,3.6764,3.6586,3.6516,3.6429,3.6217,3.6114,3.6107,3.6218,3.651,3.6784,3.6806,3.6652,3.6358,3.5881,3.5514,3.5302,3.5119,3.4981,3.4945,3.5,3.4835,3.4798,3.4614,3.4651,3.4339,3.4174,3.4366,3.4676,3.5073]},{"header":{"parameterUnit":"m.s-1","parameterCategory":1,"la1":31.0,"la2":29.5877,"lo1":-88.7671,"lo2":-86.6584,"dy":0.0162,"dx":0.0185,"nx":115,"ny":88,"refTime":"2024-08-20T12:00:00:Z","depth":0,"parameterNumber":3,"parameterNumberName":"V-component_of_WINDS"},"data":[0.0,0.0,0.0,0.0,0.0,0.0,0.0,0.0,0.0,0.0,0.0,0.0,0.0,0.0,0.0,0.0,0.0,0.0,0.0,0.0,0.0,0.0,0.0,0.0,0.0,0.0,0.0,0.0,0.0,0.0,0.0,0.0,0.0,0.0,0.0,0.0,0.0,0.0,0.0,0.0,0.0,0.0,0.0,0.0,0.0,0.0,0.0,0.0,0.0,0.0,0.0,0.0,0.0,0.0,0.0,0.0,0.0,0.0,0.0,0.0,0.0,0.0,0.0,0.0,0.0,0.0,0.0,0.0,0.0,0.0,0.0,0.0,0.0,0.0,0.0,0.0,0.0,0.0,0.0,0.0,0.0,0.0,0.0,0.0,0.0,0.0,0.0,0.0,0.0,0.0,0.0,0.0,0.0,0.0,0.0,0.0,0.0,0.0,0.0,0.0,0.0,0.0,0.0,0.0,0.0,0.0,0.0,0.0,0.0,0.0,0.0,0.0,0.0,0.0,0.0,0.0,0.0,0.0,0.0,0.0,0.0,0.0,0.0,0.0,0.0,0.0,0.0,0.0,0.0,0.0,0.0,0.0,0.0,0.0,0.0,0.0,0.0,0.0,0.0,0.0,0.0,0.0,0.0,0.0,0.0,0.0,0.0,0.0,0.0,0.0,0.0,0.0,0.0,0.0,0.0,0.0,0.0,0.0,0.0,0.0,0.0,0.0,0.0,0.0,0.0,0.0,0.0,0.0,0.0,0.0,0.0,0.0,0.0,0.0,0.0,0.0,0.0,0.0,0.0,0.0,0.0,0.0,0.0,0.0,0.0,0.0,0.0,0.0,0.0,0.0,0.0,0.0,0.0,0.0,0.0,0.0,0.0,0.0,0.0,0.0,0.0,0.0,0.0,0.0,0.0,0.0,0.0,0.0,0.0,0.0,0.0,0.0,0.0,0.0,0.0,0.0,0.0,0.0,0.0,0.0,0.0,0.0,0.0,0.0,0.0,0.0,0.0,0.0,0.0,0.0,0.0,0.0,0.0,0.0,0.0,0.0,0.0,0.0,0.0,0.0,0.0,0.0,0.0,0.0,0.0,0.0,0.0,0.0,0.0,0.0,0.0,0.0,0.0,0.0,0.0,0.0,0.0,0.0,0.0,0.0,0.0,0.0,0.0,0.0,0.0,0.0,0.0,0.0,0.0,0.0,0.0,0.0,0.0,0.0,0.0,0.0,0.0,0.0,0.0,0.0,0.0,0.0,0.0,0.0,0.0,0.0,0.0,0.0,0.0,0.0,0.0,0.0,0.0,0.0,0.0,0.0,0.0,0.0,0.0,0.0,0.0,0.0,0.0,0.0,0.0,0.0,0.0,0.0,0.0,0.0,0.0,0.0,0.0,0.0,0.0,0.0,0.0,0.0,0.0,0.0,0.0,0.0,0.0,0.0,0.0,0.0,0.0,0.0,0.0,0.0,0.0,0.0,0.0,0.0,0.0,0.0,0.0,0.0,0.0,0.0,0.0,0.0,0.0,0.0,0.0,0.0,0.0,0.0,0.0,0.0,0.0,0.0,0.0,0.0,0.0,0.0,0.0,0.0,0.0,0.0,0.0,0.0,0.0,0.0,0.0,0.0,0.0,0.0,0.0,0.0,0.0,0.0,0.0,0.0,0.0,0.0,0.0,0.0,0.0,0.0,0.0,0.0,0.0,0.0,0.0,0.0,0.0,0.0,0.0,0.0,0.0,0.0,0.0,0.0,0.0,0.0,0.0,0.0,0.0,0.0,0.0,0.0,0.0,0.0,0.0,0.0,0.0,0.0,0.0,0.0,0.0,0.0,0.0,0.0,0.0,0.0,0.0,0.0,0.0,0.0,0.0,0.0,0.0,0.0,0.0,0.0,0.0,0.0,0.0,0.0,0.0,0.0,0.0,0.0,0.0,0.0,0.0,0.0,0.0,0.0,0.0,0.0,0.0,0.0,0.0,0.0,0.0,0.0,0.0,0.0,0.0,0.0,0.0,0.0,0.0,0.0,0.0,0.0,0.0,0.0,0.0,0.0,0.0,0.0,0.0,0.0,0.0,0.0,0.0,0.0,0.0,0.0,0.0,0.0,0.0,0.0,0.0,0.0,0.0,0.0,0.0,0.0,0.0,0.0,0.0,0.0,0.0,0.0,0.0,0.0,0.0,0.0,0.0,0.0,0.0,0.0,0.0,0.0,0.0,0.0,0.0,0.0,0.0,0.0,0.0,0.0,0.0,0.0,0.0,0.0,0.0,0.0,0.0,0.0,0.0,0.0,0.0,0.0,0.0,0.0,0.0,0.0,0.0,0.0,0.0,0.0,0.0,0.0,0.0,0.0,0.0,0.0,0.0,0.0,0.0,0.0,0.0,0.0,0.0,0.0,0.0,0.0,0.0,0.0,0.0,0.0,0.0,0.0,0.0,0.0,0.0,0.0,0.0,0.0,0.0,0.0,0.0,0.0,0.0,0.0,0.0,0.0,0.0,0.0,0.0,0.0,0.0,0.0,0.0,0.0,0.0,0.0,0.0,0.0,0.0,0.0,0.0,0.0,0.0,0.0,0.0,0.0,0.0,0.0,0.0,0.0,0.0,0.0,0.0,0.0,0.0,0.0,0.0,0.0,0.0,0.0,0.0,0.0,0.0,0.0,0.0,0.0,0.0,0.0,0.0,0.0,0.0,0.0,0.0,0.0,0.0,0.0,0.0,0.0,0.0,0.0,0.0,0.0,0.0,0.0,0.0,0.0,0.0,0.0,0.0,0.0,0.0,0.0,0.0,0.0,0.0,0.0,0.0,0.0,0.0,0.0,0.0,0.0,0.0,0.0,0.0,0.0,0.0,0.0,0.0,0.0,0.0,0.0,0.0,0.0,0.0,0.0,0.0,0.0,0.0,0.0,0.0,0.0,0.0,0.0,0.0,0.0,0.0,0.0,0.0,0.0,0.0,0.0,0.0,0.0,0.0,0.0,0.0,0.0,0.0,0.0,0.0,0.0,0.0,0.0,0.0,0.0,0.0,0.0,0.0,0.0,0.0,0.0,0.0,0.0,0.0,0.0,0.0,0.0,0.0,0.0,0.0,0.0,0.0,0.0,0.0,0.0,0.0,0.0,0.0,0.0,0.0,0.0,0.0,0.0,0.0,0.0,0.0,0.0,0.0,0.0,0.0,0.0,0.0,0.0,0.0,0.0,0.0,0.0,0.0,0.0,0.0,0.0,0.0,0.0,0.0,0.0,0.0,0.0,0.0,0.0,0.0,0.0,0.0,0.0,0.0,0.0,0.0,0.0,0.0,0.0,0.0,0.0,0.0,0.0,0.0,0.0,0.0,0.0,0.0,0.0,0.0,0.0,0.0,0.0,0.0,0.0,0.0,0.0,0.0,0.0,0.0,0.0,0.0,0.0,0.0,0.0,0.0,0.0,0.0,0.0,0.0,0.0,0.0,0.0,0.0,0.0,0.0,0.0,0.0,0.0,0.0,0.0,0.0,0.0,0.0,0.0,0.0,0.0,0.0,0.0,0.0,0.0,0.0,0.0,0.0,0.0,0.0,0.0,0.0,0.0,0.0,0.0,0.0,0.0,0.0,0.0,0.0,0.0,0.0,0.0,0.0,0.0,0.0,0.0,0.0,0.0,0.0,0.0,0.0,0.0,0.0,0.0,0.0,0.0,0.0,0.0,0.0,0.0,0.0,0.0,0.0,0.0,0.0,0.0,0.0,0.0,0.0,0.0,0.0,0.0,0.0,0.0,0.0,0.0,0.0,0.0,0.0,0.0,0.0,0.0,0.0,0.0,0.0,0.0,0.0,0.0,0.0,0.0,0.0,0.0,0.0,0.0,0.0,0.0,0.0,0.0,0.0,0.0,0.0,0.0,0.0,0.0,0.0,0.0,0.0,0.0,0.0,0.0,0.0,0.0,0.0,0.0,0.0,0.0,0.0,0.0,0.0,0.0,0.0,0.0,0.0,0.0,0.0,0.0,0.0,0.0,0.0,0.0,0.0,0.0,0.0,0.0,0.0,0.0,0.0,0.0,0.0,0.0,0.0,0.0,0.0,0.0,0.0,0.0,0.0,0.0,0.0,0.0,0.0,0.0,0.0,0.0,0.0,0.0,0.0,0.0,0.0,0.0,0.0,0.0,0.0,0.0,0.0,0.0,0.0,0.0,0.0,0.0,0.0,0.0,0.0,0.0,0.0,0.0,0.0,0.0,0.0,0.0,0.0,0.0,0.0,0.0,0.0,0.0,0.0,0.0,0.0,0.0,0.0,0.0,1.4663,0.0,0.0,0.0,0.0,0.0,0.0,0.0,0.0,0.0,0.0,0.0,0.0,0.0,0.0,0.0,0.0,0.0,0.0,0.0,0.0,0.0,0.0,0.0,0.0,0.0,0.0,0.0,0.0,0.0,0.0,0.0,0.0,0.0,0.0,0.0,0.0,0.0,0.0,0.0,0.0,0.0,0.0,0.0,0.0,0.0,0.0,0.0,0.0,0.0,0.0,0.0,0.0,0.0,0.0,0.0,0.0,0.0,0.0,0.0,0.0,0.0,0.0,0.0,0.0,0.0,0.0,0.0,0.0,0.0,0.0,0.0,0.0,0.0,0.0,0.0,0.0,0.0,0.0,0.0,0.0,0.0,0.0,0.0,0.0,0.0,0.0,0.0,0.0,0.0,0.0,0.0,0.0,0.0,0.0,0.0,0.0,0.0,0.0,0.0,0.0,0.0,0.0,0.0,0.0,0.0,0.0,0.0,0.0,0.0,0.0,1.2891,1.2891,1.2891,1.3478,1.4663,0.0,0.0,0.0,0.0,0.0,0.0,0.0,0.0,0.0,0.0,0.0,0.0,0.0,0.0,0.0,0.0,0.0,0.0,0.0,0.0,0.0,0.0,0.0,0.0,0.0,0.0,0.0,0.0,0.0,0.0,0.0,0.0,0.0,0.0,0.0,0.0,0.0,0.0,0.0,0.0,0.0,0.0,0.0,0.0,0.0,0.0,0.0,0.0,0.0,0.0,0.0,0.0,0.0,0.0,0.0,0.0,0.0,0.0,0.0,0.0,0.0,0.0,0.0,0.0,0.0,0.0,0.0,0.0,0.0,0.0,0.0,0.0,0.0,0.0,0.0,0.0,0.0,0.0,0.0,0.0,0.0,0.0,0.0,0.0,0.0,0.0,0.0,0.0,0.0,0.0,0.0,0.0,0.0,0.0,0.0,0.0,0.0,0.0,0.0,0.0,0.0,0.0,0.0,0.0,0.0,0.0,0.0,0.0,0.0,0.0,0.0,0.0,1.3018,1.3621,1.482,0.0,0.0,0.0,0.0,0.0,0.0,0.0,0.0,0.0,0.0,0.0,0.0,0.0,0.0,0.0,0.0,0.0,0.0,0.0,0.0,0.0,0.0,0.0,0.0,0.0,0.0,0.0,0.0,0.0,0.0,0.0,0.0,0.0,0.0,0.0,0.0,0.0,0.0,0.0,0.0,0.0,0.0,0.0,0.0,0.0,0.0,0.0,0.0,0.0,0.0,0.0,0.0,0.0,0.0,0.0,0.0,0.0,0.0,0.0,0.0,0.0,0.0,0.0,0.0,0.0,0.0,0.0,0.0,0.0,0.0,0.0,0.0,0.0,0.0,0.0,0.0,0.0,0.0,0.0,0.0,0.0,0.0,0.0,0.0,0.0,0.0,0.0,0.0,0.0,0.0,0.0,0.0,0.0,0.0,0.0,0.0,0.0,0.0,0.0,0.0,0.0,0.0,0.0,0.0,0.0,0.0,0.0,0.0,0.0,0.0,1.3057,1.3437,1.3447,0.0,1.5204,0.0,0.0,0.0,0.0,0.0,0.0,0.0,0.0,0.0,0.0,0.0,0.0,0.0,0.0,0.0,0.0,0.0,0.0,0.0,0.0,0.0,0.0,0.0,0.0,0.0,0.0,0.0,0.0,0.0,0.0,0.0,0.0,0.0,0.0,0.0,0.0,0.0,0.0,0.0,0.0,0.0,0.0,0.0,0.0,0.0,0.0,0.0,0.0,0.0,0.0,0.0,0.0,0.0,0.0,0.0,0.0,0.0,0.0,0.0,0.0,0.0,0.0,0.0,0.0,0.0,0.0,0.0,0.0,0.0,0.0,0.0,0.0,0.0,0.0,0.0,0.0,0.0,0.0,0.0,0.0,0.0,0.0,0.0,0.0,0.0,0.0,0.0,0.0,0.0,0.0,0.0,0.0,0.0,0.0,0.0,0.0,0.0,0.0,0.0,0.0,0.0,0.0,0.0,0.0,0.0,0.0,0.0,0.0,0.0,0.0,0.0,1.3506,1.4173,1.4677,0.0,0.0,0.0,0.0,0.0,0.0,0.0,0.0,0.0,0.0,0.0,0.0,0.0,0.0,0.0,0.0,0.0,0.0,0.0,0.0,0.0,0.0,0.0,0.0,0.0,0.0,0.0,0.0,0.0,0.0,0.0,0.0,0.0,0.0,0.0,0.0,0.0,0.0,0.0,0.0,0.0,0.0,0.0,0.0,0.0,0.0,0.0,0.0,0.0,0.0,0.0,0.0,0.0,0.0,0.0,0.0,0.0,0.0,0.0,0.0,0.0,0.0,0.0,0.0,0.0,0.0,0.0,0.0,0.0,0.0,0.0,0.0,0.0,0.0,0.0,0.0,0.0,0.0,0.0,0.0,0.0,0.0,0.0,0.0,0.0,0.0,0.0,0.0,0.0,0.0,0.0,0.0,0.0,0.0,0.0,0.0,0.0,0.0,0.0,0.0,0.0,0.0,0.0,0.0,0.0,0.0,0.0,0.0,0.0,0.0,1.3408,0.0,1.3714,1.4772,1.5096,1.4514,0.0,0.0,0.0,0.0,0.0,0.0,0.0,0.0,0.0,0.0,0.0,0.0,0.0,0.0,0.0,0.0,0.0,0.0,0.0,0.0,0.0,0.0,0.0,0.0,0.0,0.0,0.0,0.0,0.0,0.0,0.0,0.0,0.0,0.0,0.0,0.0,0.0,0.0,0.0,0.0,0.0,0.0,0.0,0.0,0.0,0.0,0.0,0.0,0.0,0.0,0.0,0.0,0.0,0.0,0.0,0.0,0.0,0.0,0.0,0.0,0.0,0.0,0.0,0.0,0.0,0.0,0.0,0.0,0.0,0.0,0.0,0.0,0.0,0.0,0.0,0.0,0.0,0.0,0.0,0.0,0.0,0.0,0.0,0.0,0.0,0.0,0.0,0.0,0.0,0.0,0.0,0.0,0.0,0.0,0.0,0.0,0.0,0.0,0.0,0.0,0.0,0.0,0.0,0.0,0.0,0.0,0.0,0.0,0.0,1.3649,1.3701,1.4072,1.4992,1.5191,0.0,0.0,0.0,0.0,0.0,0.0,0.0,0.0,0.0,0.0,0.0,0.0,0.0,0.0,0.0,0.0,0.0,0.0,0.0,0.0,0.0,0.0,0.0,0.0,0.0,0.0,0.0,0.0,0.0,0.0,0.0,0.0,0.0,0.0,0.0,0.0,0.0,0.0,0.0,0.0,0.0,0.0,0.0,0.0,0.0,0.0,0.0,0.0,0.0,0.0,0.0,0.0,0.0,0.0,0.0,0.0,0.0,0.0,0.0,0.0,0.0,0.0,0.0,0.0,0.0,0.0,0.0,0.0,0.0,0.0,0.0,0.0,0.0,0.0,0.0,0.0,0.0,0.0,0.0,0.0,0.0,0.0,0.0,0.0,0.0,0.0,0.0,0.0,0.0,0.0,0.0,0.0,0.0,0.0,0.0,0.0,0.0,0.0,0.0,0.0,0.0,0.0,0.0,0.0,0.0,0.0,0.0,0.0,0.0,1.2605,1.2796,1.3275,0.0,1.4605,1.4582,0.0,0.0,0.0,0.0,0.0,0.0,0.0,0.0,0.0,0.0,0.0,0.0,0.0,0.0,0.0,0.0,0.0,0.0,0.0,0.0,0.0,0.0,0.0,0.0,0.0,0.0,0.0,0.0,0.0,0.0,0.0,0.0,0.0,0.0,0.0,0.0,0.0,0.0,0.0,0.0,0.0,0.0,0.0,0.0,0.0,0.0,0.0,0.0,0.0,0.0,0.0,0.0,0.0,0.0,0.0,0.0,0.0,0.0,0.0,0.0,0.0,0.0,0.0,0.0,0.0,0.0,0.0,0.0,0.0,0.0,0.0,0.0,0.0,0.0,0.0,0.0,0.0,0.0,0.0,0.0,0.0,0.0,0.0,0.0,0.0,0.0,0.0,0.0,0.0,0.0,0.0,0.0,0.0,0.0,0.0,0.0,0.0,0.0,0.0,0.0,0.0,0.0,0.0,0.0,0.0,0.0,0.0,0.0,0.0,1.2202,0.0,1.3099,0.0,1.4045,1.3849,0.0,0.0,0.0,0.0,0.0,0.0,0.0,0.0,0.0,0.0,0.0,0.0,0.0,0.0,0.0,0.0,0.0,0.0,0.0,0.0,0.0,0.0,0.0,0.0,0.0,0.0,0.0,0.0,0.0,0.0,0.0,0.0,0.0,0.0,0.0,0.0,0.0,0.0,0.0,0.0,0.0,0.0,0.0,0.0,0.0,0.0,0.0,0.0,0.0,0.0,0.0,0.0,0.0,0.0,0.0,0.0,0.0,0.0,0.0,0.0,0.0,0.0,0.0,0.0,0.0,0.0,0.0,0.0,0.0,0.0,0.0,0.0,0.0,0.0,0.0,0.0,0.0,0.0,0.0,0.0,0.0,0.0,0.0,0.0,0.0,0.0,0.0,0.0,0.0,0.0,0.0,0.0,0.0,0.0,0.0,0.0,0.0,0.0,0.0,0.0,0.0,0.0,0.0,0.0,0.0,0.0,0.0,0.0,1.2211,1.3005,1.2932,1.3204,1.4038,1.3488,1.3096,0.0,0.0,0.0,0.0,0.0,0.0,0.0,0.0,0.0,0.0,0.0,0.0,0.0,0.0,0.0,0.0,0.0,0.0,0.0,0.0,0.0,0.0,0.0,0.0,0.0,0.0,0.0,0.0,0.0,0.0,0.0,0.0,0.0,0.0,0.0,0.0,0.0,0.0,0.0,0.0,0.0,0.0,0.0,0.0,0.0,0.0,0.0,0.0,0.0,0.0,0.0,0.0,0.0,0.0,0.0,0.0,0.0,0.0,0.0,0.0,0.0,0.0,0.0,0.0,0.0,0.0,0.0,0.0,0.0,0.0,0.0,0.0,0.0,0.0,0.0,0.0,0.0,0.0,0.0,0.0,0.0,0.0,0.0,0.0,0.0,0.0,0.0,0.0,0.0,0.0,0.0,0.0,0.0,0.0,0.0,0.0,0.0,0.0,0.0,0.0,0.0,0.0,0.0,0.0,0.0,0.0,0.0,0.0,0.0,1.1532,1.1727,1.2405,1.361,1.3653,1.3784,0.0,0.0,0.0,0.0,0.0,0.0,0.0,0.0,0.0,0.0,0.0,0.0,0.0,0.0,0.0,0.0,0.0,0.0,0.0,0.0,0.0,0.0,0.0,0.0,0.0,0.0,0.0,0.0,0.0,0.0,0.0,0.0,0.0,0.0,0.0,0.0,0.0,0.0,0.0,0.0,0.0,0.0,0.0,0.0,0.0,0.0,0.0,0.0,0.0,0.0,0.0,0.0,0.0,0.0,0.0,0.0,0.0,0.0,0.0,0.0,0.0,0.0,0.0,0.0,0.0,0.0,0.0,0.0,0.0,0.0,0.0,0.0,0.0,0.0,0.0,0.0,0.0,0.0,0.0,0.0,0.0,0.0,0.0,0.0,0.0,0.0,0.0,0.0,0.0,0.0,0.0,0.0,0.0,0.0,0.0,0.0,0.0,0.0,0.0,0.0,0.0,0.0,0.0,0.0,0.0,0.0,0.0,0.0,0.0,1.1687,1.1959,1.2645,1.3688,1.3831,1.397,1.4261,0.0,0.0,0.0,0.0,0.0,0.0,0.0,0.0,0.0,0.0,0.0,0.0,0.0,0.0,0.0,0.0,0.0,0.0,0.0,0.0,0.0,0.0,0.0,0.0,0.0,0.0,0.0,0.0,0.0,0.0,0.0,0.0,0.0,0.0,0.0,0.0,0.0,0.0,0.0,0.0,0.0,0.0,0.0,0.0,0.0,0.0,0.0,0.0,0.0,0.0,0.0,0.0,0.0,0.0,0.0,0.0,0.0,0.0,0.0,0.0,0.0,0.0,0.0,0.0,0.0,0.0,0.0,0.0,0.0,0.0,0.0,0.0,0.0,0.0,0.0,0.0,0.0,0.0,0.0,0.0,0.0,0.0,0.0,0.0,0.0,0.0,0.0,0.0,0.0,0.0,0.0,0.0,0.0,0.0,0.0,0.0,0.0,0.0,0.0,0.0,0.0,0.0,0.0,0.0,0.0,0.0,0.0,0.0,1.315,1.3548,1.3848,1.4165,1.3979,1.3946,0.0,0.0,0.0,0.0,0.0,0.0,0.0,0.0,0.0,0.0,0.0,0.0,0.0,0.0,0.0,0.0,0.0,0.0,0.0,0.0,0.0,0.0,0.0,0.0,0.0,0.0,0.0,0.0,0.0,0.0,0.0,0.0,0.0,0.0,0.0,0.0,0.0,0.0,0.0,0.0,0.0,0.0,0.0,0.0,0.0,0.0,0.0,0.0,0.0,0.0,0.0,0.0,0.0,0.0,0.0,0.0,0.0,0.0,0.0,0.0,0.0,0.0,0.0,0.0,0.0,0.0,0.0,0.0,0.0,0.0,0.0,0.0,0.0,0.0,0.0,0.0,0.0,0.0,0.0,0.0,0.0,0.0,0.0,0.0,0.0,0.0,0.0,0.0,0.0,0.0,0.0,0.0,0.0,0.0,0.0,0.0,0.0,0.0,0.0,0.0,0.0,0.0,0.0,0.0,0.0,0.0,0.0,0.0,0.0,1.4081,1.4949,1.5332,1.5068,1.4933,1.5108,0.0,0.0,0.0,0.0,0.0,0.0,0.0,0.0,0.0,0.0,0.0,0.0,0.0,0.0,0.0,0.0,0.0,0.0,0.0,0.0,0.0,0.0,0.0,0.0,0.0,0.0,0.0,0.0,0.0,0.0,0.0,0.0,0.0,0.0,0.0,0.0,0.0,0.0,0.0,0.0,0.0,0.0,0.0,0.0,0.0,0.0,0.0,0.0,0.0,0.0,0.0,0.0,0.0,0.0,0.0,0.0,0.0,0.0,0.0,0.0,0.0,0.0,0.0,0.0,0.0,0.0,0.0,0.0,0.0,0.0,0.0,0.0,0.0,0.0,0.0,0.0,0.0,0.0,0.0,0.0,0.0,0.0,0.0,0.0,0.0,0.0,0.0,0.0,0.0,0.0,0.0,0.0,0.0,0.0,0.0,0.0,0.0,0.0,0.0,0.0,0.0,0.0,0.0,0.0,0.0,0.0,0.0,0.0,1.4553,1.5119,1.5605,1.5894,1.5967,1.5924,1.5875,0.0,0.0,0.0,0.0,0.0,0.0,0.0,0.0,0.0,0.0,0.0,0.0,0.0,0.0,0.0,0.0,0.0,0.0,0.0,0.0,0.0,0.0,0.0,0.0,0.0,0.0,0.0,0.0,0.0,0.0,0.0,0.0,0.0,0.0,0.0,0.0,0.0,0.0,0.0,0.0,0.0,0.0,0.0,0.0,0.0,0.0,0.0,0.0,0.0,0.0,0.0,0.0,0.0,0.0,0.0,0.0,0.0,0.0,0.0,0.0,0.0,0.0,0.0,0.0,0.0,0.0,0.0,0.0,0.0,0.0,0.0,0.0,0.0,0.0,0.0,0.0,0.0,0.0,0.0,0.0,0.0,0.0,0.0,0.0,0.0,0.0,0.0,0.0,0.0,0.0,0.0,0.0,0.0,0.0,0.0,0.0,0.0,0.0,0.0,0.0,0.0,0.0,0.0,0.0,0.0,0.0,0.0,0.0,1.4613,1.6191,1.586,1.6038,1.6699,1.6839,1.6399,0.0,0.0,0.0,0.0,0.0,0.0,0.0,0.0,0.0,0.0,0.0,0.0,0.0,0.0,0.0,0.0,0.0,0.0,0.0,0.0,0.0,0.0,0.0,0.0,0.0,0.0,0.0,0.0,0.0,0.0,0.0,0.0,0.0,0.0,0.0,0.0,0.0,0.0,0.0,0.0,0.0,0.0,0.0,0.0,0.0,0.0,0.0,0.0,0.0,0.0,0.0,0.0,0.0,0.0,0.0,0.0,0.0,0.0,0.0,0.0,0.0,0.0,0.0,0.0,0.0,0.0,0.0,0.0,0.0,0.0,0.0,0.0,0.0,0.0,0.0,0.0,0.0,0.0,0.0,0.0,0.0,0.0,0.0,0.0,0.0,0.0,0.0,0.0,0.0,0.0,0.0,0.0,0.0,0.0,0.0,0.0,0.0,0.0,0.0,0.0,0.0,0.0,0.0,0.0,0.0,0.0,0.0,0.0,1.6088,1.707,1.7057,1.6876,1.6675,1.7158,1.6868,0.0,0.0,0.0,0.0,0.0,0.0,0.0,0.0,0.0,0.0,0.0,0.0,0.0,0.0,0.0,0.0,0.0,0.0,0.0,0.0,0.0,0.0,0.0,0.0,0.0,0.0,0.0,0.0,0.0,0.0,0.0,0.0,0.0,0.0,0.0,0.0,0.0,0.0,0.0,0.0,0.0,0.0,0.0,0.0,0.0,0.0,0.0,0.0,1.3027,0.0,0.0,0.0,0.0,0.0,0.0,0.0,0.0,0.0,0.0,0.0,0.0,0.0,0.0,0.0,0.0,0.0,0.0,0.0,0.0,0.0,0.0,0.0,0.0,0.0,0.0,0.0,0.0,0.0,0.0,0.0,0.0,0.0,0.0,0.0,0.0,0.0,0.0,0.0,0.0,0.0,0.0,0.0,0.0,0.0,0.0,0.0,0.0,0.0,0.0,0.0,0.0,0.0,0.0,0.0,0.0,0.0,0.0,0.0,1.6494,1.7353,1.7578,1.7373,1.6748,1.7669,1.7479,0.0,0.0,0.0,0.0,0.0,0.0,0.0,0.0,0.0,0.0,0.0,0.0,0.0,0.0,0.0,0.0,0.0,0.0,0.0,0.0,0.0,0.0,0.0,0.0,0.0,0.0,0.0,0.0,0.0,0.0,0.0,0.0,0.0,0.0,0.0,0.0,0.0,0.0,0.0,0.0,0.0,0.0,0.0,0.0,0.0,0.0,0.0,0.0,0.0,0.0,0.0,0.0,0.0,0.0,0.0,0.0,0.0,0.0,0.0,0.0,0.0,0.0,0.0,0.0,0.0,0.0,0.0,0.0,0.0,0.0,0.0,0.0,0.0,0.0,0.0,0.0,0.0,0.0,0.0,0.0,0.0,0.0,0.0,0.0,0.0,0.0,0.0,0.0,0.0,0.0,0.0,0.0,0.0,0.0,0.0,0.0,0.0,0.0,0.0,0.0,0.0,0.0,0.0,0.0,0.0,0.0,0.0,1.5753,1.6586,1.7451,1.7764,1.7529,1.6758,1.8084,1.7923,1.6103,0.0,0.0,0.0,0.0,0.0,0.0,0.0,0.0,0.0,0.0,0.0,0.0,0.0,0.0,0.0,0.0,0.0,0.0,0.0,0.0,0.0,0.0,0.0,0.0,0.0,0.0,0.0,0.0,0.0,0.0,0.0,0.0,0.0,0.0,0.0,0.0,0.0,0.0,1.1526,1.1762,0.0,0.0,0.0,0.0,0.0,0.0,0.0,0.0,1.342,0.0,0.0,0.0,0.0,0.0,0.0,0.0,0.0,0.0,0.0,0.0,0.0,0.0,0.0,0.0,0.0,0.0,0.0,0.0,0.0,0.0,0.0,0.0,0.0,0.0,0.0,0.0,0.0,0.0,0.0,0.0,0.0,0.0,0.0,0.0,0.0,0.0,0.0,0.0,0.0,0.0,0.0,0.0,0.0,0.0,0.0,0.0,0.0,0.0,0.0,0.0,0.0,0.0,0.0,0.0,0.0,1.589,1.6056,1.666,1.7861,1.7627,1.7246,1.6748,1.7786,1.7656,1.6154,0.0,0.0,0.0,0.0,0.0,0.0,0.0,0.0,0.0,0.0,0.0,0.0,0.0,0.0,0.0,0.0,0.0,0.0,0.0,0.0,0.0,0.0,0.0,0.0,0.0,0.0,0.0,0.0,0.0,0.0,0.0,0.0,0.0,0.0,0.0,0.0,0.0,0.0,0.0,1.2677,1.2774,0.0,0.0,0.0,0.0,0.0,0.0,0.0,0.0,1.3815,0.0,0.0,0.0,0.0,0.0,0.0,0.0,0.0,0.0,0.0,0.0,0.0,0.0,0.0,0.0,0.0,0.0,0.0,0.0,0.0,0.0,0.0,0.0,0.0,0.0,0.0,0.0,0.0,0.0,0.0,0.0,0.0,0.0,0.0,0.0,0.0,0.0,0.0,0.0,0.0,0.0,0.0,0.0,0.0,0.0,0.0,0.0,0.0,0.0,0.0,0.0,0.0,0.0,0.0,0.0,1.5674,1.6172,1.6816,1.7646,1.749,1.7061,1.6468,1.7339,1.7311,0.0,0.0,0.0,0.0,0.0,0.0,0.0,0.0,0.0,0.0,0.0,0.0,0.0,0.0,0.0,0.0,0.0,0.0,0.0,0.0,0.0,0.0,0.0,0.0,0.0,0.0,0.0,0.0,0.0,0.0,0.0,0.0,0.0,0.0,0.0,0.0,0.0,0.0,0.0,0.0,1.2163,1.2135,1.2274,0.0,0.0,0.0,0.0,0.0,0.0,1.3152,1.3334,0.0,0.0,0.0,0.0,0.0,0.0,0.0,0.0,0.0,0.0,0.0,0.0,0.0,0.0,0.0,0.0,0.0,0.0,0.0,0.0,0.0,0.0,0.0,0.0,0.0,0.0,0.0,0.0,0.0,0.0,0.0,0.0,0.0,0.0,0.0,0.0,0.0,0.0,0.0,0.0,0.0,0.0,0.0,0.0,0.0,0.0,0.0,0.0,0.0,0.0,0.0,0.0,0.0,0.0,0.0,1.54,1.6191,1.6846,1.7353,1.7305,1.6929,1.6387,1.7113,1.712,0.0,0.0,0.0,0.0,0.0,0.0,0.0,0.0,0.0,0.0,0.0,0.0,0.0,0.0,0.0,0.0,0.0,0.0,0.0,0.0,0.0,0.0,0.0,0.0,0.0,0.0,0.0,0.0,0.0,0.0,0.0,0.0,0.0,0.0,0.0,0.0,0.0,0.0,0.0,0.0,0.0,1.1545,1.1903,1.2135,0.0,0.0,0.0,0.0,1.3125,1.3273,0.0,0.0,0.0,0.0,0.0,0.0,0.0,0.0,0.0,0.0,0.0,0.0,0.0,0.0,0.0,0.0,0.0,0.0,0.0,0.0,0.0,0.0,0.0,0.0,0.0,0.0,0.0,0.0,0.0,0.0,0.0,0.0,0.0,0.0,0.0,0.0,0.0,0.0,0.0,0.0,0.0,0.0,0.0,0.0,0.0,0.0,0.0,0.0,0.0,0.0,0.0,0.0,0.0,0.0,0.0,0.0,1.5381,1.5889,1.6543,1.7324,1.7002,1.6874,1.7085,1.7396,1.7376,0.0,0.0,0.0,0.0,0.0,0.0,0.0,0.0,0.0,0.0,0.0,0.0,0.0,0.0,0.0,0.0,0.0,0.0,0.0,0.0,0.0,0.0,0.0,0.0,0.0,0.0,0.0,0.0,0.0,0.0,0.0,0.0,0.0,0.0,0.0,0.0,0.0,0.0,0.0,0.0,0.0,1.1822,1.2375,1.2375,1.2711,0.0,0.0,1.3564,1.3873,1.4479,0.0,0.0,0.0,0.0,0.0,0.0,0.0,0.0,0.0,0.0,0.0,0.0,0.0,0.0,0.0,0.0,0.0,0.0,0.0,0.0,0.0,0.0,0.0,0.0,0.0,0.0,0.0,0.0,0.0,0.0,0.0,0.0,0.0,0.0,0.0,0.0,0.0,0.0,0.0,0.0,0.0,0.0,0.0,0.0,0.0,0.0,0.0,0.0,0.0,0.0,0.0,0.0,0.0,0.0,0.0,1.4141,1.5381,1.6094,1.6641,1.6992,1.6836,1.6757,1.6806,1.6721,1.6672,0.0,0.0,0.0,0.0,0.0,0.0,0.0,0.0,0.0,0.0,0.0,0.0,0.0,0.0,0.0,0.0,0.0,0.0,0.0,0.0,0.0,0.0,0.0,0.0,0.0,0.0,0.0,0.0,0.0,0.0,0.0,0.0,0.0,0.0,0.0,0.0,0.0,0.0,0.0,0.0,0.0,0.0,1.2132,1.2248,0.0,0.0,0.0,1.3936,1.4058,0.0,0.0,0.0,0.0,0.0,0.0,0.0,0.0,0.0,0.0,0.0,0.0,0.0,0.0,0.0,0.0,0.0,0.0,0.0,0.0,0.0,0.0,0.0,0.0,0.0,0.0,0.0,0.0,0.0,0.0,0.0,0.0,0.0,0.0,0.0,0.0,0.0,0.0,0.0,0.0,0.0,0.0,0.0,0.0,0.0,0.0,0.0,0.0,0.0,0.0,0.0,0.0,0.0,0.0,0.0,0.0,0.0,1.5391,1.6279,1.6665,1.6665,1.6665,1.6728,1.6797,1.6372,0.0,0.0,0.0,0.0,0.0,0.0,0.0,0.0,0.0,0.0,0.0,0.0,0.0,0.0,0.0,0.0,0.0,0.0,0.0,0.0,0.0,0.0,0.0,0.0,0.0,0.0,0.0,0.9307,0.0,0.0,0.0,0.0,0.0,0.0,0.0,0.0,0.0,0.0,0.0,0.0,0.0,0.0,1.2028,1.2051,1.2538,1.3212,0.0,0.0,1.4336,1.4379,1.435,1.4366,0.0,0.0,0.0,0.0,0.0,0.0,0.0,0.0,0.0,0.0,0.0,0.0,0.0,0.0,0.0,0.0,0.0,0.0,0.0,0.0,0.0,0.0,0.0,0.0,0.0,0.0,0.0,0.0,0.0,0.0,0.0,0.0,0.0,0.0,0.0,0.0,0.0,0.0,0.0,0.0,0.0,0.0,0.0,0.0,0.0,0.0,0.0,0.0,0.0,0.0,0.0,0.0,0.0,0.0,0.0,1.5391,1.6279,1.6665,1.6665,1.6665,1.6961,1.7501,1.7011,1.6908,0.0,0.0,0.0,0.0,0.0,0.0,0.0,0.0,0.0,0.0,0.0,0.0,0.0,0.0,0.0,0.0,0.0,0.0,0.0,0.0,0.0,0.0,0.0,0.0,0.0,0.0,0.0,0.0,0.0,0.0,0.0,0.0,0.0,0.0,0.0,0.0,0.0,0.0,0.0,0.0,0.0,1.2811,1.2605,1.3456,1.4337,0.0,0.0,1.4873,1.5264,1.5857,1.6219,1.5961,0.0,0.0,0.0,0.0,0.0,0.0,0.0,0.0,0.0,0.0,0.0,0.0,0.0,0.0,0.0,0.0,0.0,0.0,0.0,0.0,0.0,0.0,0.0,0.0,0.0,0.0,0.0,0.0,0.0,0.0,0.0,0.0,0.0,0.0,0.0,0.0,0.0,0.0,0.0,0.0,0.0,0.0,0.0,0.0,0.0,0.0,0.0,0.0,0.0,0.0,0.0,0.0,0.0,1.3877,1.5391,1.6279,1.6665,1.6665,1.6665,1.6789,1.6944,1.6203,1.6053,0.0,0.0,0.0,0.0,0.0,0.0,0.0,0.0,0.0,0.0,0.0,0.0,0.0,0.0,0.0,0.0,0.0,0.0,0.0,0.0,0.0,0.0,0.0,0.0,0.0,0.0,0.0,0.0,1.1211,1.165,1.208,0.0,0.0,0.0,0.0,0.0,0.0,0.0,0.0,0.0,0.0,1.39,1.4347,1.4514,0.0,0.0,1.5674,1.5537,1.543,1.5424,1.5581,1.5921,1.5807,0.0,0.0,0.0,0.0,0.0,0.0,0.0,0.0,0.0,0.0,0.0,0.0,0.0,0.0,0.0,0.0,0.0,0.0,0.0,0.0,0.0,0.0,0.0,0.0,0.0,0.0,0.0,0.0,0.0,0.0,0.0,0.0,0.0,0.0,0.0,0.0,0.0,0.0,0.0,0.0,0.0,0.0,0.0,0.0,0.0,0.0,0.0,0.0,0.0,0.0,0.0,0.0,1.3965,1.54,1.6406,1.6924,1.6914,1.6797,1.6675,1.6712,1.5758,1.5502,0.0,0.0,0.0,0.0,0.0,0.0,0.0,0.0,0.0,0.0,0.0,0.0,0.0,0.0,0.0,0.0,0.0,0.0,0.0,0.0,0.0,0.0,0.0,0.0,0.0,0.0,0.0,0.0,1.1963,1.2402,1.2832,0.0,0.0,0.0,0.0,0.0,0.0,0.0,0.0,0.0,0.0,1.5081,1.5433,1.5486,1.5632,1.6198,1.6035,1.5811,1.5635,1.5361,1.5411,1.6129,0.0,0.0,0.0,0.0,0.0,0.0,0.0,0.0,0.0,0.0,0.0,0.0,0.0,0.0,0.0,0.0,0.0,0.0,0.0,0.0,0.0,0.0,0.0,0.0,0.0,0.0,0.0,0.0,0.0,0.0,1.0361,0.0,0.0,0.0,0.0,0.0,0.0,0.0,0.0,0.0,0.0,0.0,0.0,0.0,0.0,0.0,0.0,0.0,0.0,0.0,0.0,0.0,0.0,1.4467,1.541,1.6689,1.7353,1.7344,1.6953,1.6867,1.7103,1.6217,1.5563,1.5282,0.0,0.0,0.0,0.0,0.0,0.0,0.0,0.0,0.0,0.0,0.0,0.0,0.0,0.0,0.0,0.0,0.0,0.0,0.0,0.0,0.0,0.0,0.0,0.0,0.0,0.0,1.1636,1.1973,1.2365,0.0,0.0,0.0,0.0,0.0,0.0,0.0,0.0,0.0,0.0,1.559,1.6373,1.5661,1.6192,1.6655,1.6655,1.6006,1.5586,1.5996,1.6096,1.6264,0.0,0.0,0.0,0.0,0.0,0.0,0.0,0.0,0.0,0.0,0.0,0.0,0.0,0.0,0.0,0.0,0.0,0.0,0.0,0.0,0.0,0.0,0.0,0.0,0.0,0.0,0.0,1.2353,1.2168,0.0,0.0,0.0,0.0,0.0,0.0,0.0,0.0,0.0,0.0,0.0,1.3945,1.4355,0.0,0.0,0.0,0.0,0.0,0.0,0.0,0.0,0.0,0.0,0.0,0.0,1.4551,1.543,1.6709,1.7383,1.7373,1.6963,1.6648,1.6487,1.5568,1.4816,1.4196,0.0,0.0,0.0,0.0,0.0,0.0,0.0,0.0,0.0,0.0,0.0,0.0,0.0,0.0,0.0,0.0,0.0,0.0,0.0,0.0,0.0,0.0,0.0,0.0,0.0,1.2441,0.0,0.0,0.0,0.0,0.0,0.0,0.0,0.0,0.0,0.0,0.0,1.5187,1.5794,1.6596,1.7191,1.7187,1.7137,1.7168,0.0,0.0,0.0,0.0,0.0,0.0,0.0,0.0,0.0,0.0,0.0,0.0,0.0,0.0,2.1387,1.9571,1.8995,1.8756,1.8756,0.0,0.0,0.0,0.0,0.0,0.0,0.0,0.0,0.0,0.0,0.0,0.0,0.0,0.0,1.3545,0.0,1.2783,0.0,0.0,0.0,0.0,0.0,0.0,0.0,0.0,1.4297,1.4844,1.5244,1.5664,1.5822,0.0,1.5833,1.5053,0.0,0.0,0.0,0.0,0.0,0.0,0.0,0.0,1.4932,1.5654,1.6934,1.7598,1.7578,1.7031,1.6592,1.6289,1.5312,1.4656,1.4355,1.4006,1.4032,0.0,0.0,0.0,0.0,0.0,0.0,0.0,0.0,0.0,0.0,0.0,0.0,0.0,0.0,0.0,0.0,0.0,0.0,0.0,0.0,0.0,0.0,0.0,1.2891,0.0,0.0,0.0,0.0,0.0,0.0,0.0,0.0,0.0,1.47,1.5553,1.6537,1.7061,1.7422,1.7754,1.8174,0.0,0.0,0.0,0.0,0.0,0.0,0.0,1.8208,1.8733,1.9275,1.9867,2.0307,2.1481,2.2234,2.1832,0.0,0.0,2.0761,2.0097,1.9886,1.9886,2.0206,2.0489,2.0489,2.1147,2.1812,0.0,0.0,0.0,0.0,0.0,0.0,0.0,0.0,1.501,1.4824,0.0,1.4346,0.0,0.0,0.0,0.0,0.0,1.4219,0.0,0.0,1.6094,1.6504,1.6213,1.6625,1.701,1.7482,1.7896,1.756,1.6599,1.4669,0.0,0.0,0.0,0.0,0.0,0.0,1.5654,1.6103,1.7344,1.8008,1.7978,1.7187,1.6738,1.667,1.5459,1.5044,1.5597,1.538,1.5308,1.5367,1.5073,0.0,0.0,0.0,0.0,0.0,0.0,0.0,0.0,0.0,0.0,0.0,0.0,0.0,0.0,0.0,0.0,0.0,0.0,0.0,0.0,1.241,0.0,0.0,0.0,0.0,0.0,0.0,0.0,0.0,0.0,0.0,1.5782,1.7021,1.8061,1.7978,0.0,0.0,0.0,0.0,1.7744,1.8535,1.7551,1.7256,1.8457,1.9151,1.9619,1.9725,0.0,0.0,2.1743,2.2937,2.3653,2.2611,2.3314,2.3841,2.3251,2.2184,2.1536,2.1554,2.1677,2.1862,2.1992,2.2888,2.3695,2.1445,0.0,0.0,0.0,0.0,1.6669,1.657,1.6768,1.6016,1.5879,1.6123,1.5371,0.0,0.0,0.0,0.0,0.0,0.0,1.54,1.5732,1.6416,1.7113,1.7915,1.8379,1.8786,1.9194,1.9326,1.8779,1.7645,1.7019,1.5767,1.4007,0.0,0.0,0.0,0.0,1.6416,1.6592,1.751,1.8008,1.8008,1.748,1.6885,1.6269,1.5303,1.4887,1.5054,1.5154,1.5274,1.5319,1.5384,0.0,0.0,0.0,0.0,0.0,0.0,0.0,0.0,0.0,0.0,0.0,0.0,0.0,0.0,0.0,0.0,0.0,0.0,0.0,1.2498,1.2734,1.3115,0.0,0.0,0.0,0.0,0.0,0.0,0.0,0.0,0.0,1.8931,1.8802,1.8802,0.0,0.0,1.8848,1.8662,1.8691,1.8828,1.9072,1.8789,0.0,1.9033,2.0017,2.0842,2.1297,2.2941,2.4139,2.3879,2.4268,2.4481,2.4142,2.4368,2.4531,2.4305,2.31,2.2318,2.27,2.2889,2.3312,2.4191,2.4708,2.5075,2.3833,2.193,2.1057,2.0261,1.9533,1.8494,1.83,1.8687,1.7579,1.7236,1.7375,1.6748,1.625,1.5918,1.5664,0.0,0.0,0.0,1.6738,1.6846,1.7591,1.8287,1.89,1.9554,2.0114,2.0653,2.0715,2.011,1.9035,1.9208,1.7925,1.5459,0.0,0.0,1.4951,1.6113,1.6816,1.7012,1.7666,1.8008,1.8008,1.7598,1.6953,1.6094,1.5566,1.5205,1.5029,1.556,1.584,1.5909,1.6162,1.6237,0.0,0.0,0.0,0.0,0.0,0.0,0.0,0.0,0.0,0.0,0.0,1.0801,0.0,0.0,0.0,0.0,1.1616,1.2488,1.3301,1.3535,0.0,0.0,0.0,0.0,0.0,0.0,0.0,2.0221,2.1479,2.2126,2.1789,2.1441,2.0705,1.9318,1.9228,1.9248,1.916,0.0,1.9346,1.9512,1.9394,1.9541,2.03,2.1246,2.2207,2.3243,2.4176,2.4755,2.4833,2.4983,2.5121,2.5121,2.5121,2.5252,2.5563,2.4651,2.3922,2.4411,2.4784,2.5384,2.6372,2.6661,2.6888,2.6091,2.511,2.3203,2.2552,2.2574,2.0928,2.0482,2.0652,1.9263,1.8682,1.8662,1.8281,1.7676,1.7071,1.7115,0.0,1.8332,1.8738,1.8725,1.8398,1.9572,1.9938,1.9679,2.0455,2.129,2.2133,2.2133,2.1619,2.0725,2.1073,2.0004,1.7595,1.6792,1.6289,1.6311,1.6699,1.7119,1.749,1.7871,1.8047,1.7998,1.7598,1.6982,1.6213,1.6145,1.585,1.543,1.6284,1.6769,1.6763,1.7135,1.7117,1.6466,0.0,0.0,0.0,0.0,0.0,0.0,0.0,0.0,0.0,0.0,0.0,0.0,0.0,0.0,0.0,1.2547,0.0,1.4068,1.457,0.0,0.0,0.0,1.7243,1.8376,1.9571,2.1012,2.2831,0.0,0.0,2.422,2.4291,2.329,2.0551,1.9777,1.9585,1.9863,1.9619,1.9521,1.9922,1.9648,2.0028,2.1582,2.2499,2.3595,2.5154,2.5259,2.5034,2.5046,2.5347,2.5636,2.5674,2.5674,2.5914,2.6816,2.6519,2.6326,2.647,2.7025,2.7662,2.8291,2.8498,2.8672,2.7563,2.7331,2.64,2.4828,2.2764,2.1887,2.1257,2.0684,1.9603,1.9131,1.9131,1.9033,1.9283,1.9827,2.0557,2.1029,2.1174,2.1325,2.1265,2.1246,2.1481,2.1947,2.2527,2.2725,2.3275,2.4087,2.4087,2.3251,2.17,2.1732,2.0797,1.8899,1.8623,1.8193,1.7598,1.8301,1.8564,1.834,1.8437,1.834,1.8008,1.7598,1.7129,1.6592,1.624,1.5859,1.5439,1.6162,1.6483,1.6236,1.6816,1.6995,1.6516,1.4991,0.0,0.0,0.0,0.0,0.0,0.0,0.0,0.0,0.0,1.1992,1.0986,0.0,1.21,0.0,1.3694,1.4414,1.4609,1.501,0.0,0.0,1.7899,1.8765,2.0952,2.1835,2.265,2.3831,2.4621,2.4995,2.4837,2.4826,2.4306,2.2834,2.185,2.0968,2.0112,2.0127,2.0293,2.0438,2.037,2.0695,2.1899,2.3436,2.4885,2.6115,2.6138,2.6076,2.6063,2.6151,2.6251,2.6251,2.6319,2.6633,2.738,2.7911,2.856,2.9059,2.8727,2.8405,2.9178,2.9337,2.9223,2.8109,2.8084,2.777,2.6685,2.5123,2.3874,2.2849,2.1934,2.0937,2.0383,2.0265,2.0493,2.1086,2.2012,2.2363,2.2742,2.3041,2.2899,2.2666,2.2533,2.288,2.3243,2.3513,2.3911,2.4341,2.482,2.4833,2.4054,2.2684,2.2409,2.1599,2.0285,1.9979,1.9619,1.917,1.9248,1.917,1.8926,1.873,1.8525,1.8291,1.7881,1.7363,1.6694,1.6494,1.6064,1.5439,1.5946,1.6255,1.6358,1.6364,1.6409,1.6418,1.4904,1.3767,0.0,0.0,0.0,0.0,0.0,0.0,0.0,0.0,0.0,0.0,0.0,1.3057,1.3682,1.4902,1.5891,1.6524,1.7134,1.8269,2.0118,2.044,2.1251,2.2925,2.3706,2.4394,2.5147,2.5692,2.5952,2.5697,2.5664,2.5288,2.4337,2.3672,2.29,2.1733,2.1374,2.1385,2.1821,2.1897,2.2199,2.3147,2.4624,2.5873,2.6383,2.6521,2.6589,2.6973,2.704,2.7162,2.755,2.7604,2.7855,2.8684,2.9178,2.9813,3.0482,3.0265,2.9997,3.0335,3.0208,2.9863,2.8323,2.831,2.8247,2.821,2.8061,2.6214,2.4788,2.3762,2.2713,2.2094,2.1711,2.2288,2.3016,2.3661,2.3479,2.3758,2.4431,2.4057,2.3735,2.3395,2.4119,2.4294,2.3917,2.4682,2.5034,2.5034,2.5034,2.4472,2.3502,2.3026,2.2313,2.1324,2.0821,2.0576,2.0537,1.9824,1.9424,1.9365,1.8936,1.8691,1.8633,1.8281,1.7656,1.6787,1.6665,1.6257,1.5449,1.5757,1.6169,1.6618,1.5992,1.5845,1.6268,1.488,1.3839,0.0,1.278,0.0,0.0,0.0,0.0,0.0,0.0,0.0,0.0,1.3779,1.4228,1.4971,1.6211,1.7486,1.8839,1.9684,2.0795,2.2286,2.3115,2.3867,2.4482,2.5271,2.5925,2.6571,2.6571,2.6559,2.6678,2.6634,2.6107,2.5396,2.4981,2.4552,2.3952,2.2914,2.2478,2.3368,2.3588,2.3891,2.4707,2.5721,2.6452,2.6452,2.6645,2.6918,2.7537,2.7802,2.8103,2.8734,2.8876,2.9192,3.0147,3.0269,3.051,3.1278,3.1334,3.1362,3.1332,3.1016,3.0795,2.9478,2.9428,2.8976,2.8775,2.8637,2.784,2.67,2.5295,2.4333,2.3605,2.3161,2.4093,2.4555,2.4789,2.5456,2.5933,2.6083,2.5963,2.5894,2.5795,2.6015,2.6021,2.5934,2.6151,2.6151,2.6151,2.6151,2.5277,2.3534,2.3408,2.2424,2.0814,2.0672,2.0576,2.0566,0.0,0.0,0.0,1.9375,1.8994,1.8582,1.8494,1.7881,1.6724,1.6665,0.0,1.5488,1.5841,1.6002,1.5909,1.61,0.0,0.0,0.0,0.0,0.0,0.0,0.0,0.0,0.0,0.0,0.0,1.5107,1.459,1.4111,1.5245,1.613,1.6377,1.7463,1.8704,1.9718,2.036,2.1559,2.3604,2.4029,2.4667,2.5915,2.6221,2.6515,2.7042,2.681,2.6804,2.757,2.703,2.6584,2.6735,2.579,2.5312,2.5828,2.4348,2.3379,2.3526,2.4253,2.4779,2.4933,2.5873,2.6521,2.6589,2.7108,2.7484,2.7802,2.8363,2.8748,2.9066,2.8989,2.9317,3.0133,3.0283,3.0584,3.1336,3.1467,3.1467,3.1467,3.1435,3.1129,2.9779,0.0,2.9478,2.9352,0.0,2.9063,2.8288,2.7274,2.6016,2.5298,2.514,2.6057,2.6528,2.6528,2.7055,2.7268,2.7256,2.6992,2.6879,2.6854,2.6659,2.6521,2.6521,2.6521,2.6521,2.6521,2.6521,2.5943,2.4992,2.3963,2.301,2.2048,2.1078,2.0867,2.1298,2.1298,2.0968,2.0234,1.9814,1.9385,1.8975,1.875,1.8135,1.7109,1.7051,0.0,0.0,0.0,0.0,0.0,0.0,0.0,0.0,0.0,0.0,1.4881,1.4858,1.5004,1.5352,1.5362,1.5871,1.6982,1.7655,1.7428,1.5841,1.7096,1.8177,1.869,1.9454,2.0592,2.2036,2.2624,2.3536,2.5188,2.5607,2.6025,2.6433,2.7024,2.7268,2.7281,2.7281,2.7507,2.8021,2.7657,2.7394,2.762,2.7073,2.666,2.6993,2.5529,2.4409,2.4909,2.5358,2.5734,2.5804,2.6094,2.6645,2.704,2.7417,2.8051,2.8876,2.9317,2.9766,3.0147,3.0269,3.0389,3.0777,3.0896,3.1029,3.1394,3.1467,3.1467,3.1467,3.1467,3.1278,2.9779,2.9779,2.9779,2.9779,2.9779,2.9779,2.9528,2.8963,0.0,0.0,0.0,2.7717,2.8109,2.8109,2.8109,2.8109,2.8084,2.7632,2.7431,2.7406,2.6954,2.6753,2.6753,2.6823,2.6703,2.6684,2.6773,2.6502,2.5943,2.4406,2.3372,2.2861,2.1385,2.1001,2.1735,2.1962,2.1517,2.0624,2.0215,1.9824,1.9404,1.8975,1.835,1.751,1.7422,1.7178,1.6685,1.6445,1.6397,1.6437,1.568,1.5276,1.5352,1.5213,1.5283,1.5625,1.5977,1.6377,1.6807,1.6963,1.7519,1.853,2.0217,2.0399,1.8279,1.9023,2.0033,2.109,2.128,2.2258,2.4352,2.492,2.561,2.6659,2.7168,2.7243,2.6892,2.7519,2.7934,2.7682,2.7871,2.821,2.8411,2.821,2.8147,2.821,2.8024,2.8109,2.7911,2.6576,2.5657,2.6188,2.6302,2.6452,2.6452,2.6452,2.6769,2.7471,2.7802,2.8492,2.9827,3.0389,3.0777,3.1234,3.1467,3.1467,3.1467,3.1467,3.1467,3.1467,3.1351,3.1351,3.1424,3.1219,3.0837,2.9779,2.9779,2.9779,2.9779,2.9779,2.9779,2.9741,2.9591,2.84,2.7877,2.7877,2.8036,2.8109,2.8109,2.8109,2.8109,2.8109,2.8034,2.7996,2.7984,2.7908,2.7871,2.7883,2.7871,2.762,2.7218,2.7645,2.6542,2.4162,2.41,2.3113,2.1215,2.0712,2.0722,2.0857,2.1593,2.1527,2.0634,2.0508,2.0264,1.9834,1.9414,1.8789,1.7959,1.7578,1.7178,1.6758,1.7031,1.7056,1.6707,1.6909,1.688,1.653,1.6406,1.6484,1.648,1.6602,1.6826,1.7331,1.7958,1.9116,2.0807,2.2275,2.2457,2.0986,2.0694,2.1129,2.2428,2.1927,2.2553,2.5156,2.5648,2.6336,2.7601,2.7934,2.7934,2.7821,2.8021,2.8285,2.8574,2.8323,2.8536,2.9214,2.8725,2.8373,2.8637,2.8536,2.816,2.8072,2.7498,2.6851,2.6578,2.6521,2.6521,2.6584,2.6521,2.685,2.7604,2.8298,2.9052,3.0194,3.0851,3.1292,3.1467,3.1467,3.1467,3.1467,3.1467,3.1409,3.1351,3.097,3.0644,3.1146,3.0329,2.9642,2.9779,2.9779,2.9779,2.9779,2.9779,2.9779,2.9779,2.9741,2.9252,2.9013,2.9026,2.9026,2.9026,2.9026,2.9026,2.9026,2.9013,2.8687,2.8561,2.8524,2.8247,2.8109,2.8109,2.8109,2.7971,2.7758,2.7971,2.7066,2.5292,2.4861,2.3764,2.2165,2.2397,2.2147,2.1461,2.2339,2.2113,2.0644,2.0576,2.0352,1.9922,1.9727,1.9336,1.8721,1.8506,1.8213,1.7716,1.7959,1.7754,1.7109,1.7285,1.7187,1.6768,1.6953,1.708,1.709,1.7305,1.7807,1.8818,2.038,2.1635,2.2503,2.3833,2.4371,2.3706,2.3017,2.3026,2.3943,2.3849,2.4557,2.6395,2.6846,2.7359,2.8011,2.836,2.8423,2.8235,2.8699,2.9001,2.8963,2.9001,2.9227,2.9729,2.934,2.9089,2.934,2.9139,2.89,2.8599,2.8335,2.7984,2.7457,2.7118,2.6917,2.6892,2.671,2.7066,2.8168,2.8748,2.9504,3.0644,3.1351,3.1467,3.1467,3.1467,3.1467,3.1467,3.1087,3.0896,3.0763,3.0133,2.9875,2.9875,2.9129,2.8684,2.9779,2.9779,2.9779,2.9779,2.9779,2.9779,2.9779,2.9779,2.9779,2.9779,2.9779,2.9779,2.9779,2.9779,2.9779,2.9779,2.9729,2.9327,2.9126,2.9076,2.8687,2.8486,2.8486,2.8486,2.8423,2.8335,2.8411,2.7667,2.623,2.5506,2.4385,2.3241,2.3684,2.3317,2.2056,2.2843,2.2498,2.0869,2.0615,2.041,2.0078,1.9961,1.9756,1.9463,1.9326,1.9121,1.8809,1.8789,1.8486,1.7871,1.7812,1.7656,1.7344,1.7627,1.7822,1.7842,1.8115,1.8962,2.046,2.249,2.3747,2.3972,2.5128,2.5787,2.5732,2.5289,2.5105,2.5444,2.5648,2.619,2.7454,2.8034,2.8348,2.8473,2.885,2.8963,2.8662,2.9277,2.9641,2.9252,2.9528,2.9754,2.9779,2.9779,2.9754,2.9741,2.9779,2.9591,2.9214,2.9126,2.8925,2.8511,2.7921,2.7507,2.7431,2.7017,2.7433,2.8889,2.9085,2.978,3.0896,3.1467,3.1467,3.1467,3.1292,3.1161,3.1146,3.0584,3.0072,2.9936,2.9317,2.8671,2.8427,2.8182,2.8182,2.9779,2.9779,2.9779,2.9779,2.9779,2.9779,2.9779,2.9779,2.9779,2.9779,2.9779,2.9779,2.9779,2.9779,2.9779,2.9779,2.9779,2.9729,2.9691,2.9679,2.9654,2.9628,2.9578,2.9603,2.9352,2.8976,2.934,2.8021,2.5451,2.5475,2.4492,2.2389,2.2898,2.2928,2.2088,2.2494,2.221,2.1162,2.0771,2.0547,2.0488,2.0117,1.9902,1.9853,1.9492,1.9268,1.9228,1.9219,1.9199,1.9121,1.9072,1.9072,1.9023,1.9072,1.9092,1.9072,1.9203,1.9951,2.1727,2.3327,2.459,2.5348,2.5983,2.6445,2.6402,2.6759,2.6989,2.6946,2.6275,2.6809,2.8462,2.8812,2.9038,2.9428,2.9591,2.9691,2.9603,2.9716,2.9767,2.9729,2.9729,2.9779,2.9779,2.9779,2.9779,2.9779,2.9779,2.9754,2.9654,2.9616,2.9603,2.9402,2.875,2.8134,2.7984,2.7557,2.795,2.9304,2.9297,2.9936,3.1057,3.1556,3.1482,3.1397,3.0777,3.045,3.0194,2.9752,2.9192,2.8989,2.8427,2.7604,2.704,2.7229,2.8103,2.9779,2.9779,2.9779,2.9779,2.9779,2.9779,2.9779,2.9779,2.9779,2.9779,2.9779,2.9779,2.9779,2.9779,2.9779,2.9779,2.9779,2.9779,2.9779,2.9779,2.9779,2.9779,2.9779,2.9779,2.9654,2.9465,2.9691,2.8494,2.6141,2.4775,2.3813,2.3267,2.3525,2.3391,2.2808,2.2915,2.248,2.123,2.1055,2.083,2.0576,2.04,2.0303,2.0283,2.0137,1.9912,1.9687,1.9658,1.9541,1.9307,1.9277,1.9277,1.9277,1.9277,1.9277,1.937,2.0659,2.1718,2.2484,2.4431,2.5747,2.6101,2.6628,2.6942,2.6967,2.7444,2.7896,2.8124,2.7854,2.8064,2.8813,2.9239,2.9541,2.9754,2.9779,2.9779,2.9779,2.9779,2.9779,2.9779,2.9779,2.9779,2.9779,2.9779,2.9779,2.9779,2.9779,2.9779,2.9779,2.9779,2.9779,2.9741,2.9352,2.8988,2.8649,2.8134,2.8511,2.9376,2.9959,3.0608,3.1602,3.1574,3.1319,3.1319,3.0373,2.9679,2.9504,2.8862,2.8233,2.8038,2.7604,2.685,2.6521,2.6782,2.7537,2.9779,2.9779,2.9779,2.9779,2.9779,2.9779,2.9779,2.9779,2.9779,2.9779,2.9779,2.9779,2.9779,2.9779,2.9779,2.9779,2.9779,2.9779,2.9779,2.9779,2.9779,2.9779,2.9779,2.9779,2.9779,2.9702,2.9456,2.8199,2.6058,2.4145,2.3315,2.3716,2.375,2.3576,2.3258,2.3125,2.2584,2.1683,2.1475,2.1191,2.082,2.0752,2.0693,2.0586,2.0576,2.041,2.0107,2.0088,1.9961,1.9658,1.9639,1.9639,1.9639,1.9639,1.9639,1.9797,2.1502,2.2784,2.3082,2.5121,2.6445,2.6728,2.7193,2.7507,2.7595,2.8009,2.8486,2.8825,2.9063,2.9075,2.9214,2.9541,2.9767,2.9779,2.9779,2.9779,2.9779,2.9779,2.9779,2.9779,2.9779,2.9779,2.9779,2.9779,2.9779,2.9779,2.9779,2.9779,2.9779,2.9779,2.9779,2.9779,2.9779,2.9616,2.9214,2.9058,2.9261,3.0011,3.0835,3.1417,3.2279,3.1729,3.1168,3.1076,2.9887,2.9231,2.9222,2.8532,2.7561,2.7335,2.693,2.6559,2.6521,2.6521,2.6837,2.9779,2.9792,2.9779,2.9779,2.9779,2.9779,2.9779,2.9779,2.9779,2.9779,2.9779,2.9779,2.9779,2.9779,2.9779,2.9779,2.9779,2.9779,2.9779,2.9779,2.9779,2.9779,2.9779,2.9779,2.9792,2.9534,2.8767,2.7186,2.4957,2.3724,2.3125,2.3183,2.3153,2.3163,2.3046,2.2817,2.2556,2.2334,2.2031,2.1641,2.126,2.1201,2.1025,2.0684,2.0576,2.0547,2.0518,2.0518,2.0508,2.0488,2.0449,2.0478,2.0488,2.0478,2.0459,2.0623,2.1445,2.251,2.3537,2.5022,2.6299,2.7151,2.7758,2.8072,2.8097,2.8574,2.8925,2.8963,2.9428,2.9691,2.9691,2.9729,2.9779,2.9779,2.9779,2.9779,2.9779,2.9779,2.9779,2.9779,2.9779,2.9779,2.9779,2.9779,2.9779,2.9779,2.9779,2.9779,2.9779,2.9779,2.9779,2.9779,2.9779,2.9767,2.9756,2.963,3.0349,3.088,3.1223,3.1968,3.2091,3.1969,3.1434,3.0796,2.9726,2.9191,2.9075,2.8477,2.7487,2.7012,2.6822,2.6578,2.649,2.6533,2.6769,3.0105,2.9792,2.9779,2.9779,2.9779,2.9779,2.9779,2.9779,2.9779,2.9779,2.9779,2.9779,2.9779,2.9779,2.9779,2.9779,2.9779,2.9779,2.9779,2.9779,2.9779,2.9779,2.9779,2.9779,2.9365,2.8688,2.8255,2.693,2.4872,2.3627,2.3144,2.3144,2.3144,2.3144,2.3105,2.2988,2.2793,2.2529,2.2353,2.208,2.1699,2.165,2.1572,2.1396,2.085,2.0576,2.0576,2.0576,2.0576,2.0576,2.0576,2.0576,2.0576,2.0576,2.0576,2.0722,2.1517,2.2606,2.3951,2.511,2.636,2.7663,2.8323,2.8624,2.8725,2.9139,2.9478,2.9528,2.9628,2.9779,2.9779,2.9779,2.9779,2.9779,2.9779,2.9779,2.9779,2.9779,2.9779,2.9779,2.9779,2.9779,2.9779,2.9779,2.9779,2.9779,2.9779,2.9779,2.9779,2.9779,2.9779,2.9779,2.9779,2.9779,2.9779,2.9872,3.0209,3.0633,3.1067,3.1488,3.1709,3.1351,3.0839,3.0519,2.9588,2.8924,2.8728,2.8541,2.7557,2.718,2.6979,2.6728,2.6527,2.6845,2.6943,3.0294,2.9829,2.9779,2.9779,2.9779,2.9779,2.9779,2.9779,2.9779,2.9779,2.9779,2.9779,2.9779,2.9779,2.9779,2.9779,2.9779,2.9779,2.9779,2.9779,2.9779,2.9779,2.9779,2.9779,2.9378,2.8609,2.7844,2.6449,2.4372,2.3464,2.3135,2.3144,2.3144,2.3144,2.3144,2.3144,2.2988,2.2754,2.2715,2.251,2.2148,2.209,2.2021,2.1826,2.1299,2.0918,2.0791,2.0791,2.0703,2.0673,2.0867,2.1148,2.1268,2.1006,2.085,2.1046,2.1607,2.2537,2.3908,2.5082,2.6419,2.7717,2.8712,2.9214,2.9239,2.9566,2.9754,2.9779,2.9779,2.9779,2.9779,2.9779,2.9779,2.9779,2.9779,2.9779,2.9779,2.9779,2.9779,2.9779,2.9779,2.9779,2.9779,2.9779,2.9779,2.9779,2.9779,2.9779,2.9779,2.9779,2.9779,2.9779,2.9779,2.9779,2.9779,2.9858,3.024,3.0655,3.1168,3.1469,3.1227,3.0771,3.0414,3.0108,2.9584,2.8847,2.8461,2.8398,2.8084,2.7657,2.7293,2.703,2.7069,2.7291,2.7361,3.0306,2.9854,2.9792,2.9779,2.9779,2.9779,2.9779,2.9779,2.9779,2.9779,2.9779,2.9779,2.9779,2.9779,2.9779,2.9779,2.9779,2.9779,2.9779,2.9779,2.9779,2.9779,2.9779,2.9779,2.9624,2.9209,2.7383,2.5316,2.3299,2.3135,2.3144,2.3144,2.3144,2.3144,2.3144,2.3135,2.3135,2.3086,2.3076,2.2891,2.2578,2.251,2.2353,2.2021,2.1904,2.1689,2.1289,2.125,2.1064,2.0859,2.1466,2.2213,2.2298,2.168,2.1416,2.1709,2.1899,2.2381,2.3374,2.4897,2.6288,2.7448,2.8876,2.9691,2.9691,2.9754,2.9779,2.9779,2.9779,2.9779,2.9779,2.9779,2.9779,2.9779,2.9779,2.9779,2.9779,2.9779,2.9779,2.9702,2.9702,2.9779,2.9779,2.9779,2.9779,2.9779,2.9779,2.9779,2.9779,2.9779,2.9779,2.9779,2.9779,2.9779,2.9779,2.9856,3.0343,3.0869,3.1383,3.1707,3.1109,3.0598,3.0299,2.9998,2.9834,2.9202,2.9013,2.8913,2.8649,2.8247,2.7821,2.7356,2.7322,2.7468,2.7762,3.052,3.0319,2.9942,2.9779,2.9779,2.9779,2.9779,2.9779,2.9779,2.9779,2.9779,2.9779,2.9779,2.9779,2.9779,2.9779,2.9779,2.9779,2.9779,2.9779,2.9779,2.9779,2.9779,2.9779,2.8961,2.7383,2.5221,2.38,2.3222,2.3144,2.3144,2.3144,2.3144,2.3144,2.3144,2.3144,2.3144,2.3144,2.3144,2.3057,2.2949,2.2939,2.2871,2.2764,2.2754,2.2549,2.2139,2.1846,2.1621,2.1455,2.1779,2.2,2.2028,2.1833,2.1748,2.1865,2.1894,2.2509,2.3874,2.5081,2.6382,2.7696,2.902,2.9689,2.9779,2.9779,2.9779,2.9779,2.9779,2.9779,2.9779,2.9779,2.9779,2.9779,2.9779,2.9779,2.9779,2.9779,2.9443,2.8858,2.9287,2.9714,2.9779,2.9779,2.9779,2.9779,2.9779,2.9779,2.9779,2.9779,2.9779,2.9779,2.9779,2.9779,2.9779,2.9779,3.0062,3.0343,3.0846,3.1267,3.0696,3.0406,3.0139,2.9998,2.9856,2.9716,2.9541,2.9365,2.9101,2.8737,2.826,2.7868,2.7485,2.7554,2.7828,3.0796,3.0557,3.0018,2.9779,2.9779,2.9779,2.9779,2.9779,2.9779,2.9779,2.9779,2.9779,2.9779,2.9779,2.9779,2.9779,2.9779,2.9779,2.9779,2.9779,2.9779,2.9779,2.9702,2.9287,2.8028,2.6047,2.4392,2.3464,2.3144,2.3144,2.3144,2.3144,2.3144,2.3144,2.3144,2.3144,2.3144,2.3144,2.3144,2.3144,2.3135,2.3144,2.3144,2.3135,2.3135,2.2998,2.2744,2.248,2.2197,2.1963,2.1894,2.2109,2.2569,2.2359,2.2187,2.2324,2.2373,2.2809,2.3854,2.5207,2.6449,2.7544,2.8949,2.9792,2.9779,2.9779,2.9779,2.9779,2.9779,2.9779,2.9779,2.9779,2.9779,2.9779,2.9779,2.9779,2.9792,2.9365,2.9197,2.8949,2.9365,2.9702,2.9779,2.9779,2.9779,2.9779,2.9779,2.9779,2.9779,2.9779,2.9779,2.9779,2.9779,2.9779,2.9779,2.9779,2.9779,2.9856,2.9998,3.0203,3.0062,2.9985,2.9856,2.9856,2.9779,2.9779,2.9641,2.9679,2.9515,2.9089,2.8624,2.8109,2.7713,2.7614,2.7802,3.111,3.0608,3.003,2.9779,2.9779,2.9779,2.9779,2.9779,2.9779,2.9779,2.9779,2.9779,2.9779,2.9779,2.9779,2.9779,2.9779,2.9779,2.9779,2.9779,2.9779,2.9714,2.9443,2.8518,2.6942,2.521,2.4617,2.4049,2.3135,2.3144,2.3144,2.3144,2.3144,2.3144,2.3144,2.3144,2.3144,2.3144,2.3144,2.3144,2.3144,2.3144,2.3144,2.3144,2.3135,2.3115,2.3076,2.3018,2.2705,2.209,2.206,2.2635,2.3451,2.3038,2.2715,2.3008,2.3018,2.3066,2.3617,2.4978,2.6333,2.6789,2.8383,2.9792,2.9792,2.9779,2.9779,2.9779,2.9779,2.9779,2.9779,2.9779,2.9779,2.9779,2.9779,2.9702,2.9456,2.8767,2.8779,2.9209,2.9624,2.9779,2.9779,2.9779,2.9779,2.9779,2.9779,2.9779,2.9779,2.9779,2.9779,2.9779,2.9779,2.9779,2.9779,2.9779,2.9779,2.9779,2.9779,2.9779,2.9779,2.9779,2.9779,2.9779,2.9779,2.9779,2.9729,2.9679,2.9616,2.9289,2.8812,2.8335,2.7936,2.77,2.7416,3.1311,3.1085,3.0181,2.9779,2.9779,2.9779,2.9779,2.9779,2.9779,2.9779,2.9779,2.9779,2.9779,2.9779,2.9779,2.9779,2.9779,2.9779,2.9779,2.9779,2.9779,2.9275,2.8438,2.7452,2.6213,2.4787,2.3963,2.3387,2.3135,2.3144,2.3144,2.3144,2.3144,2.3144,2.3144,2.3144,2.3144,2.3144,2.3144,2.3144,2.3144,2.3144,2.3144,2.3144,2.3135,2.3135,2.3135,2.3144,2.3076,2.2861,2.2803,2.2918,2.3265,2.3113,2.2998,2.3096,2.3144,2.3144,2.3387,2.4467,2.5546,2.6472,2.7787,2.8937,2.9702,2.9779,2.9779,2.9779,2.9779,2.9779,2.9779,2.9779,2.9779,2.9779,2.9779,2.9287,2.8211,2.8542,2.8949,2.7799,2.8882,2.9624,2.9779,2.9779,2.9779,2.9779,2.9779,2.9779,2.9779,2.9779,2.9779,2.9779,2.9779,2.9779,2.9779,2.9779,2.9779,2.9779,2.9779,2.9779,2.9779,2.9779,2.9779,2.9779,2.9779,2.9779,2.9578,2.944,2.9365,2.9302,2.8649,2.8009,2.7758,2.75,2.6998,3.1386,3.1298,3.0231,2.9779,2.9779,2.9779,2.9779,2.9779,2.9779,2.9779,2.9779,2.9779,2.9779,2.9779,2.9779,2.9779,2.9779,2.9779,2.9779,2.9714,2.9275,2.845,2.7371,2.6295,2.521,2.4135,2.3387,2.3135,2.3144,2.3144,2.3144,2.3144,2.3144,2.3144,2.3144,2.3144,2.3144,2.3144,2.3144,2.3144,2.3144,2.3144,2.3144,2.3222,2.3464,2.38,2.38,2.3387,2.3144,2.3135,2.3135,2.3144,2.3144,2.3144,2.3144,2.3144,2.3144,2.3144,2.3299,2.4125,2.5031,2.5953,2.7105,2.8267,2.9015,2.9443,2.9779,2.9779,2.9779,2.9779,2.9779,2.9779,2.9779,2.9779,2.9779,2.9287,2.7959,2.8609,2.87,2.8371,2.8961,2.9779,2.9779,2.9779,2.9779,2.9779,2.9779,2.9779,2.9779,2.9779,2.9779,2.9779,2.9779,2.9779,2.9779,2.9779,2.9779,2.9779,2.9779,2.9779,2.9779,2.9779,2.9754,2.9754,2.9767,2.9666,2.9377,2.9176,2.9151,2.8888,2.8235,2.7795,2.7532,2.7218,2.6691,3.1361,3.1223,3.0218,2.9779,2.9779,2.9779,2.9779,2.9779,2.9779,2.9779,2.9779,2.9779,2.9779,2.9779,2.9779,2.9779,2.9779,2.9779,2.9779,2.9443,2.8609,2.7452,2.6637,2.5546,2.4372,2.3387,2.3135,2.3144,2.3144,2.3144,2.3144,2.3144,2.3144,2.3144,2.3144,2.3144,2.3144,2.3144,2.3144,2.3144,2.3144,2.3144,2.3144,2.3212,2.38,2.4211,2.4125,2.3637,2.3144,2.3144,2.3144,2.3144,2.3144,2.3144,2.3144,2.3144,2.3144,2.3144,2.3222,2.3963,2.4787,2.5368,2.6942,2.8096,2.8518,2.9365,2.9779,2.9779,2.9779,2.9779,2.9779,2.9779,2.9779,2.9779,2.9779,2.9779,2.9611,2.8858,2.8688,2.9456,2.9624,2.9792,2.9779,2.9779,2.9779,2.9779,2.9779,2.9779,2.9779,2.9779,2.9779,2.9779,2.9779,2.9779,2.9779,2.9779,2.9779,2.9779,2.9779,2.9779,2.9779,2.9767,2.9716,2.9666,2.949,2.9264,2.9001,2.89,2.8837,2.8473,2.7833,2.7519,2.7268,2.6917,2.6521,3.1148,3.0721,3.008,2.9779,2.9779,2.9779,2.9779,2.9779,2.9779,2.9779,2.9779,2.9779,2.9779,2.9779,2.9779,2.9779,2.9779,2.9702,2.9779,2.9546,2.7718,2.6883,2.6224,2.521,2.4211,2.3299,2.3144,2.3144,2.3144,2.3144,2.3144,2.3144,2.3144,2.3144,2.3144,2.3144,2.3144,2.3144,2.3144,2.3144,2.3144,2.3144,2.3135,2.3212,2.3474,2.3464,2.3474,2.3222,2.3144,2.3144,2.3144,2.3144,2.3144,2.3144,2.3144,2.3144,2.3144,2.3144,2.3135,2.3474,2.4221,2.5714,2.6378,2.7545,2.9275,2.9443,2.9702,2.9792,2.9779,2.9779,2.9779,2.9779,2.9779,2.9779,2.9779,2.9779,2.9779,2.9546,2.9209,2.8937,2.9353,2.9779,2.9779,2.9779,2.9779,2.9779,2.9702,2.9779,2.9779,2.9702,2.9702,2.9702,2.9779,2.9779,2.9779,2.9779,2.9779,2.9779,2.9779,2.9628,2.9641,2.9616,2.9515,2.9327,2.9089,2.8863,2.8649,2.8348,2.8235,2.7821,2.7494,2.7268,2.7005,2.664,2.6521,3.0859,3.0557,3.0018,2.9779,2.9779,2.9779,2.9779,2.9779,2.9779,2.9779,2.9779,2.9779,2.9779,2.9779,2.9779,2.9779,2.9611,2.9197,2.9015,2.8438,2.6789,2.5714,2.5462,2.4628,2.3637,2.3135,2.3144,2.3144,2.3144,2.3144,2.3144,2.3144,2.3144,2.3144,2.3144,2.3144,2.3144,2.3144,2.3144,2.3144,2.3144,2.3144,2.3464,2.3637,2.3474,2.3299,2.3877,2.3377,2.3135,2.3144,2.3144,2.3144,2.3144,2.3144,2.3144,2.3144,2.3144,2.3144,2.3144,2.3135,2.3647,2.4893,2.5389,2.6213,2.7533,2.8279,2.9028,2.9118,2.9443,2.9779,2.9779,2.9779,2.9779,2.9779,2.9779,2.9779,2.9779,2.9792,2.9624,2.9106,2.9443,2.9702,2.9779,2.9779,2.9702,2.9702,2.8937,2.8937,2.9443,2.9443,2.9443,2.9443,2.9702,2.9779,2.9779,2.9779,2.9779,2.9779,2.9779,2.9528,2.9315,2.9289,2.9252,2.8988,2.8725,2.8574,2.8348,2.8021,2.767,2.7469,2.7231,2.703,2.6816,2.6553,2.6521,3.057,3.0457,2.9993,2.9779,2.9779,2.9779,2.9779,2.9779,2.9779,2.9779,2.9779,2.9779,2.9779,2.9779,2.9779,2.9792,2.9287,2.8688,2.8267,2.7614,2.5953,2.5126,2.4713,2.3887,2.3222,2.3135,2.3144,2.3144,2.3144,2.3144,2.3144,2.3144,2.3144,2.3144,2.3144,2.3144,2.3144,2.3144,2.3144,2.3144,2.3144,2.3135,2.3551,2.3877,2.3551,2.3474,2.3877,2.3551,2.3144,2.3144,2.3144,2.3144,2.3144,2.3144,2.3144,2.3144,2.3144,2.3144,2.3144,2.3135,2.3212,2.3299,2.4211,2.5126,2.5953,2.7267,2.8267,2.8846,2.9275,2.9779,2.9779,2.9779,2.9779,2.9779,2.9779,2.9779,2.9779,2.9779,2.9702,2.9702,2.9702,2.9779,2.9779,2.9779,2.9702,2.9456,2.8597,2.8176,2.8688,2.8858,2.87,2.8937,2.9106,2.9106,2.9106,2.8621,2.8791,2.9184,2.9353,2.9108,2.8874,2.9089,2.9013,2.8612,2.836,2.8147,2.7833,2.7406,2.7155,2.708,2.6954,2.6741,2.659,2.6533,2.6521,3.0357,2.9917,2.9829,2.9779,2.9779,2.9779,2.9702,2.9779,2.9702,2.9792,2.9702,2.9702,2.9624,2.9624,2.9792,2.9287,2.8438,2.7855,2.7441,2.6707,2.5294,2.4628,2.4372,2.3637,2.3135,2.3144,2.3144,2.3144,2.3144,2.3144,2.3144,2.3144,2.3144,2.3144,2.3144,2.3144,2.3144,2.3144,2.3144,2.3144,2.3144,2.3135,2.3222,2.3551,2.3222,2.3299,2.3387,2.3309,2.3144,2.3144,2.3144,2.3144,2.3144,2.3144,2.3144,2.3144,2.3144,2.3144,2.3144,2.3135,2.3627,2.4286,2.4542,2.5619,2.6778,2.7763,2.8347,2.9184,2.9534,2.9779,2.9779,2.9779,2.9779,2.9779,2.9779,2.9779,2.9779,2.9779,2.9779,2.9779,2.9779,2.9779,2.9779,2.9534,2.9197,2.8688,2.7844,2.736,2.7464,2.7545,2.7371,2.7775,2.8267,2.8267,2.8255,2.7614,2.7302,2.8084,2.833,2.8341,2.8264,2.8737,2.8675,2.7521,2.7381,2.7469,2.7118,2.6816,2.6741,2.6753,2.6603,2.6452,2.6521,2.6521,2.6521,3.003,2.9714,2.9184,2.9275,2.9624,2.9197,2.8937,2.8949,2.8937,2.8609,2.8211,2.8131,2.8131,2.8131,2.8131,2.7706,2.7279,2.6614,2.6119,2.5378,2.4457,2.3877,2.3963,2.3299,2.3135,2.3144,2.3144,2.3144,2.3144,2.3144,2.3144,2.3144,2.3144,2.3144,2.3144,2.3144,2.3144,2.3144,2.3144,2.3144,2.3144,2.3144,2.3144,2.3144,2.3144,2.3144,2.3144,2.3144,2.3144,2.3144,2.3144,2.3144,2.3144,2.3144,2.3144,2.3144,2.3144,2.3144,2.3144,2.3135,2.3387,2.3724,2.3963,2.4296,2.5535,2.6449,2.8028,2.9275,2.9779,2.9779,2.9779,2.9779,2.9779,2.9779,2.9779,2.9702,2.9779,2.9702,2.9702,2.9624,2.9624,2.9624,2.9611,2.9275,2.8688,2.7936,2.7093,2.6614,2.6307,2.6141,2.6047,2.6707,2.7279,2.7279,2.7186,2.6625,2.6135,2.6827,2.7093,2.712,2.702,2.71,2.645,2.5318,2.5601,2.6494,2.6766,2.6521,2.6502,2.6452,2.6383,2.6371,2.6452,2.6521,2.6383,2.9131,2.904,2.8199,2.8279,2.887,2.8187,2.7775,2.7763,2.7775,2.7371,2.6554,2.6565,2.6648,2.6565,2.6554,2.6389,2.6141,2.5199,2.4787,2.4296,2.3627,2.3135,2.3135,2.3144,2.3144,2.3144,2.3144,2.3144,2.3144,2.3144,2.3144,2.3144,2.3144,2.3144,2.3144,2.3144,2.3144,2.3144,2.3144,2.3144,2.3144,2.3144,2.3144,2.3144,2.3144,2.3144,2.3144,2.3144,2.3144,2.3144,2.3144,2.3144,2.3144,2.3144,2.3144,2.3144,2.3144,2.3144,2.3144,2.3144,2.3135,2.3309,2.3135,2.3309,2.4059,2.5797,2.7383,2.8949,2.9365,2.9365,2.9275,2.9443,2.9197,2.904,2.9131,2.9378,2.904,2.8961,2.8961,2.904,2.9221,2.9118,2.8949,2.8291,2.7533,2.686,2.5931,2.5368,2.5052,2.4723,2.4798,2.563,2.613,2.613,2.5964,2.563,2.5406,2.5634,2.5761,2.5723,2.5351,2.5006,2.4322,2.4022,2.4725,2.56,2.5914,2.5873,2.5417,2.5346,2.5861,2.5931,2.5417,2.5652,2.5873,2.6883,2.6894,2.673,2.6801,2.6964,2.6801,2.6719,2.6719,2.6719,2.6637,2.6235,2.64,2.6318,2.6224,2.6307,2.5797,2.521,2.4713,2.4211,2.356,2.3222,2.3144,2.3144,2.3144,2.3144,2.3144,2.3144,2.3144,2.3144,2.3144,2.3144,2.3144,2.3144,2.3144,2.3144,2.3144,2.3144,2.3144,2.3144,2.3144,2.3144,2.3144,2.3144,2.3144,2.3144,2.3144,2.3144,2.3144,2.3144,2.3144,2.3144,2.3144,2.3144,2.3144,2.3144,2.3144,2.3144,2.3144,2.3144,2.3144,2.3144,2.3144,2.3144,2.3627,2.4467,2.5389,2.6883,2.8096,2.8347,2.8267,2.8279,2.8347,2.7855,2.7695,2.7959,2.7706,2.7464,2.8039,2.8051,2.7637,2.7557,2.7787,2.7763,2.7116,2.6389,2.5619,2.4861,2.4372,2.4049,2.38,2.38,2.4628,2.4967,2.4957,2.4872,2.448,2.4367,2.4564,2.4285,2.4181,2.3878,2.3536,2.3632,2.359,2.4118,2.4073,2.3948,2.3879,2.3879,2.4241,2.4838,2.4541,2.3891,2.4409,2.5146,2.5316,2.6389,2.5797,2.5891,2.64,2.5797,2.5546,2.5546,2.5546,2.5136,2.4638,2.4553,2.4553,2.4723,2.4553,2.4296,2.3887,2.3887,2.3637,2.3222,2.3144,2.3144,2.3144,2.3144,2.3144,2.3144,2.3144,2.3144,2.3144,2.3144,2.3144,2.3144,2.3144,2.3144,2.3144,2.3144,2.3144,2.3144,2.3144,2.3144,2.3144,2.3144,2.3144,2.3144,2.3144,2.3144,2.3144,2.3144,2.3144,2.3144,2.3144,2.3144,2.3144,2.3144,2.3144,2.3144,2.3144,2.3144,2.3144,2.3144,2.3144,2.3144,2.3135,2.3637,2.4628,2.521,2.5975,2.7116,2.7197,2.7209,2.7209,2.7197,2.6964,2.6801,2.6789,2.6707,2.6554,2.6883,2.7046,2.6472,2.5975,2.6202,2.6356,2.587,2.5378,2.5041,2.4361,2.377,2.3454,2.3387,2.3377,2.3627,2.379,2.379,2.367,2.3428,2.3273,2.3223,2.2646,2.2553,2.2377,2.2252,2.2387,2.2174,2.2067,2.2025,2.1973,2.2627,2.3294,2.3588,2.3818,2.3526,2.322,2.3588,2.4181,2.3587,2.5557,2.4713,2.4893,2.5557,2.4702,2.4382,2.4382,2.4372,2.3877,2.3309,2.3222,2.3135,2.3135,2.3222,2.3299,2.3135,2.3144,2.3144,2.3144,2.3144,2.3144,2.3144,2.3144,2.3144,2.3144,2.3144,2.3144,2.3144,2.3144,2.3144,2.3144,2.3144,2.3144,2.3144,2.3144,2.3144,2.3144,2.3144,2.3144,2.3144,2.3144,2.3144,2.3144,2.3144,2.3144,2.3144,2.3144,2.3144,2.3144,2.3144,2.3144,2.3144,2.3144,2.3144,2.3144,2.3144,2.3144,2.3144,2.3144,2.3144,2.3144,2.3135,2.3387,2.4049,2.4382,2.4872,2.5964,2.6047,2.6058,2.6058,2.6047,2.5724,2.5641,2.5808,2.5808,2.5808,2.5964,2.5714,2.4967,2.4638,2.4467,2.4542,2.4457,2.4296,2.4211,2.378,2.3153,2.3008,2.2969,2.2928,2.3001,2.2932,2.2922,2.2788,2.2519,2.2373,2.2139,2.1572,2.1271,2.1382,2.1232,2.1198,2.0809,2.0576,2.0789,2.1308,2.2124,2.2787,2.2563,2.2489,2.2713,2.2776,2.2999,2.3147,2.1123,2.3299,2.3212,2.3299,2.3484,2.3309,2.3212,2.3387,2.3299,2.3299,2.3135,2.3144,2.3144,2.3144,2.3144,2.3144,2.3144,2.3144,2.3144,2.3144,2.3144,2.3144,2.3144,2.3144,2.3144,2.3144,2.3144,2.3144,2.3144,2.3144,2.3144,2.3144,2.3144,2.3144,2.3144,2.3144,2.3144,2.3144,2.3144,2.3144,2.3144,2.3144,2.3144,2.3144,2.3144,2.3144,2.3144,2.3144,2.3144,2.3144,2.3144,2.3144,2.3144,2.3144,2.3144,2.3144,2.3144,2.3144,2.3144,2.3144,2.3144,2.3144,2.3135,2.3135,2.3474,2.3299,2.38,2.4713,2.4882,2.4872,2.4872,2.4872,2.4553,2.4382,2.4553,2.4563,2.4553,2.4798,2.4467,2.3637,2.3387,2.3551,2.3637,2.3714,2.3714,2.3714,2.3418,2.2881,2.2617,2.2519,2.2334,2.2291,2.2173,2.2134,2.2105,2.1943,2.1875,2.1699,2.1299,2.0967,2.0791,2.0586,2.0576,2.0576,2.0576,2.0576,2.0644,2.1308,2.1603,2.1221,2.1221,2.1669,2.1821,2.1886,2.2038,2.0034,2.0944,2.1667,2.2394,2.3144,2.3144,2.3144,2.3144,2.3144,2.3144,2.3144,2.3144,2.3144,2.3144,2.3144,2.3144,2.3144,2.3144,2.3144,2.3144,2.3144,2.3144,2.3144,2.3144,2.3144,2.3144,2.3144,2.3144,2.3144,2.3144,2.3144,2.3144,2.3144,2.3144,2.3144,2.3144,2.3144,2.3144,2.3144,2.3144,2.3144,2.3144,2.3144,2.3144,2.3144,2.3144,2.3144,2.3144,2.3144,2.3144,2.3144,2.3144,2.3144,2.3144,2.3144,2.3144,2.3144,2.3144,2.3144,2.3144,2.3144,2.3144,2.3144,2.3144,2.3144,2.3144,2.3222,2.3637,2.38,2.3877,2.38,2.38,2.3637,2.3387,2.3299,2.3387,2.3551,2.3877,2.379,2.3299,2.3135,2.3222,2.3222,2.3222,2.3135,2.3115,2.2881,2.2627,2.2324,2.209,2.1924,2.1777,2.168,2.1699,2.1699,2.1572,2.1426,2.1221,2.1006,2.081,2.0596,2.0586,2.0576,2.0576,2.0576,2.0576,2.0576,2.0576,2.0644,2.0789,2.0779,2.0934,2.1001,2.1001,2.1155,1.8856,1.9497,2.0034,2.1123,2.2492,2.295,2.3144,2.3144,2.3144,2.3144,2.3144,2.3144,2.3144,2.3144,2.3144,2.3144,2.3144,2.3144,2.3144,2.3144,2.3144,2.3144,2.3144,2.3144,2.3144,2.3144,2.3144,2.3144,2.3144,2.3144,2.3144,2.3144,2.3144,2.3144,2.3144,2.3144,2.3144,2.3144,2.3144,2.3144,2.3144,2.3144,2.3144,2.3144,2.3144,2.3144,2.3144,2.3144,2.3144,2.3144,2.3144,2.3144,2.3144,2.3144,2.3144,2.3144,2.3144,2.3144,2.3144,2.3144,2.3144,2.3144,2.3144,2.3144,2.3144,2.3144,2.3222,2.3135,2.3135,2.3144,2.3144,2.3222,2.3299,2.3135,2.3135,2.3222,2.3222,2.3387,2.3299,2.3135,2.3135,2.3125,2.3027,2.2988,2.2822,2.2832,2.2754,2.2353,2.1836,2.1641,2.1543,2.1416,2.1309,2.1377,2.1445,2.1221,2.1025,2.0957,2.0781,2.0713,2.0576,2.0576,2.0576,2.0576,2.0576,2.0576,2.0576,2.0576,2.0576,2.0644,2.0644,2.0712,2.0712,2.0789,2.0712,1.7296,1.9222,1.8319,1.9231,2.1293,2.2589,2.3047,2.3057,2.3144,2.3144,2.3144,2.3144,2.3144,2.3144,2.3144,2.3144,2.3144,2.3144,2.3144,2.3144,2.3144,2.3144,2.3144,2.3144,2.3144,2.3144,2.295,2.2775,2.3047,2.2862,2.2862,2.3135,2.3144,2.3144,2.3144,2.3144,2.3144,2.3144,2.3144,2.3144,2.3144,2.3144,2.3144,2.3144,2.3144,2.3144,2.3144,2.3144,2.3144,2.3144,2.3144,2.3144,2.3144,2.3144,2.3144,2.3144,2.3144,2.3144,2.3144,2.3144,2.3144,2.3144,2.3144,2.3144,2.3144,2.3144,2.3144,2.3144,2.3144,2.3144,2.3144,2.3144,2.3144,2.3144,2.3144,2.3144,2.3144,2.3144,2.3144,2.3086,2.3096,2.3008,2.2949,2.2793,2.2539,2.2471,2.251,2.2129,2.1465,2.1221,2.1143,2.1084,2.0986,2.0977,2.0996,2.0791,2.0635,2.0596,2.0596,2.0576,2.0576,2.0576,2.0576,2.0566,2.0576,2.0576,2.0576,2.0576,2.0411,2.0333,2.0566,2.0644,2.0566,2.0411,2.0167,1.6285,1.7117,1.7822,1.8365,1.9222,2.1033,2.2315,2.3047,2.3144,2.3144,2.3144,2.3144,2.3144,2.3144,2.3144,2.3144,2.3144,2.3144,2.3144,2.3144,2.3144,2.3144,2.3047,2.3047,2.3047,2.2862,2.2492,2.2403,2.3144,2.2306,2.2492,2.2862,2.3047,2.3144,2.3144,2.3144,2.3144,2.3144,2.3144,2.3144,2.3144,2.3144,2.3144,2.3144,2.3144,2.3144,2.3144,2.3144,2.3144,2.3144,2.3144,2.3144,2.3144,2.3144,2.3144,2.3047,2.3047,2.3144,2.3144,2.3144,2.3144,2.3047,2.3057,2.3057,2.3144,2.3144,2.3144,2.3144,2.3144,2.3144,2.3144,2.3144,2.3144,2.3144,2.3144,2.3144,2.3144,2.3144,2.3125,2.3018,2.2988,2.2588,2.2353,2.2266,2.208,2.1816,2.1777,2.1543,2.0977,2.084,2.0762,2.0742,2.0684,2.0635,2.0566,2.0411,2.0333,2.0342,2.0498,2.0576,2.0576,2.0245,2.0245,2.0079,2.0323,2.0576,2.0245,1.9923,1.9923,2.001,1.9923,1.9766,1.952,1.9274,1.9027,1.5825,1.592,1.6986,1.7535,1.8156,2.0753,2.24,2.3057,2.3144,2.3144,2.3144,2.3144,2.3144,2.3144,2.3144,2.3144,2.3144,2.3144,2.3144,2.3144,2.3144,2.3144,2.3047,2.2677,2.2306,2.212,2.148,2.1123,2.1587,2.1033,2.1302,2.2217,2.2862,2.2677,2.2677,2.2677,2.3144,2.3144,2.3144,2.3144,2.3144,2.3144,2.3144,2.3144,2.3144,2.3144,2.3144,2.3144,2.3047,2.3047,2.3047,2.3047,2.3047,2.3047,2.3047,2.3047,2.2677,2.2589,2.2403,2.2394,2.2306,2.2306,2.2775,2.3057,2.3144,2.3144,2.3144,2.3144,2.3047,2.296,2.296,2.296,2.2862,2.2862,2.2872,2.2872,2.2843,2.2737,2.2707,2.2629,2.2529,2.2119,2.1748,2.165,2.1543,2.1269,2.1016,2.0791,2.0635,2.0596,2.0576,2.0576,2.0566,2.0566,2.0323,2.0079,2.0001,2.001,1.9923,1.9766,1.9353,1.8789,1.9186,1.9511,1.9195,1.9116,1.9274,1.9195,1.8957,1.8798,1.8789,1.863,1.847,1.823,1.798,1.5825,1.5825,1.5825,1.6574,1.8079,2.0958,2.2682,2.2969,2.3047,2.3135,2.3144,2.3144,2.3144,2.3144,2.3144,2.3144,2.3144,2.3144,2.3144,2.3144,2.3144,2.3047,2.258,2.1933,2.1569,2.0935,2.0215,1.948,1.9571,1.9455,2.009,2.1016,2.1854,2.1765,2.1765,2.1943,2.2501,2.2589,2.3047,2.3047,2.3144,2.3144,2.3144,2.3144,2.3144,2.3144,2.3144,2.3144,2.296,2.296,2.295,2.2862,2.295,2.3047,2.3047,2.2677,2.1854,2.1391,2.1212,2.1212,2.1203,2.1391,2.2129,2.2687,2.2862,2.2677,2.2501,2.2315,2.2227,2.2501,2.2687,2.2589,2.2501,2.2501,2.2501,2.2417,2.2303,2.2244,2.2165,2.2104,2.2002,2.168,2.1328,2.1162,2.1143,2.0957,2.0771,2.0723,2.0596,2.0596,2.0576,2.0576,2.0566,2.0489,2.0245,1.9678,1.9195,1.9036,1.839,1.8149,1.7738,1.7658,1.8141,1.8221,1.7658,1.7666,1.8149,1.8069,1.7585,1.7577,1.7577,1.7496,1.7253,1.7253,1.709,1.5825,1.5825,1.5825,1.6008,1.6574,1.8465,2.0201,2.1784,2.2687,2.3144,2.3144,2.3144,2.3135,2.3144,2.3144,2.3135,2.3135,2.3144,2.3144,2.3144,2.3135,2.258,2.1943,2.1382,2.0755,1.9852,1.894,1.8003,1.8026,1.8018,1.8018,1.8744,2.0082,2.0198,2.0305,2.0395,2.1033,2.1676,2.2315,2.2687,2.2775,2.2775,2.2775,2.2775,2.2872,2.2872,2.296,2.296,2.2687,2.2031,2.1854,2.1578,2.0584,2.1302,2.1845,2.1667,2.0755,2.0025,2.0034,2.0034,2.0034,2.0034,2.0494,2.1042,2.1489,2.1667,2.1489,2.1311,2.1042,2.123,2.123,2.1132,2.1132,2.1221,2.1159,2.1101,2.1099,2.1287,2.1287,2.1656,2.1553,2.1299,2.0947,2.084,2.081,2.0654,2.0576,2.0576,2.0576,2.0576,2.0576,2.0576,2.0245,2.0167,1.9599,1.9116,1.847,1.7989,1.7261,1.6854,1.7017,1.7098,1.7261,1.7098,1.669,1.6935,1.7423,1.7098,1.6535,1.6273,1.6273,1.6191,1.6198,1.6198,1.5959,1.5825,1.5825,1.5825,1.5825,1.6008,1.7131,1.8603,2.0051,2.1676,2.2589,2.3047,2.3144,2.3299,2.38,2.3877,2.4049,2.4563,2.4049,2.3877,2.38,2.3309,2.2394,2.1658,2.0755,1.9861,1.8672,1.7174,1.6035,1.6067,1.6126,1.612,1.6993,1.8057,1.864,1.894,1.9405,1.9579,2.0223,2.0764,2.1498,2.1774,2.1774,2.1676,2.1854,2.2041,2.2403,2.2403,2.2403,2.1943,2.1203,2.1025,2.0305,1.9579,2.0305,2.0567,2.0395,1.9497,1.8948,1.8772,1.878,1.8772,1.894,1.9107,1.9588,1.9951,2.0133,2.0034,1.9943,1.977,1.9588,1.9588,1.9497,1.9588,1.9588,1.9577,1.9554,1.9826,2.0081,2.0541,2.1124,2.1113,2.0889,2.0703,2.0615,2.0576,2.0576,2.0576,2.0576,2.0576,2.0576,2.0576,2.0576,2.0089,1.9678,1.9036,1.823,1.7415,1.6683,1.5959,1.5801,1.6124,1.6026,1.5764,1.5779,1.5876,1.6011,1.6032,1.5944,1.5553,1.5343,1.5141,1.5087,1.5108,1.5068,1.4824,1.5825,1.5825,1.5825,1.5825,1.592,1.7037,1.7591,1.7963,2.0215,2.1845,2.2765,2.3212,2.3877,2.4457,2.4798,2.5389,2.5389,2.4967,2.4457,2.4692,2.3551,2.2394,2.0944,2.0034,1.8748,1.708,1.5488,1.4339,1.3657,1.3622,1.3981,1.5334,1.6535,1.703,1.7174,1.8118,1.8311,1.8133,1.8764,1.9405,1.977,1.9679,1.9497,1.9852,2.0486,2.1123,2.1203,2.1114,2.1114,2.0666,2.0124,1.9314,1.9314,1.8948,1.9031,1.8851,1.8103,1.7582,1.7368,1.7338,1.739,1.7697,1.8409,1.8117,1.8131,1.88,1.8948,1.8488,1.8211,1.8118,1.808,1.8033,1.8018,1.7993,1.7897,1.7929,1.8189,1.8853,1.9807,2.0372,2.0771,2.0566,2.0644,2.0576,2.0576,2.0576,2.0576,2.0576,2.0566,2.0566,2.0304,2.0304,1.9844,1.9036,1.7971,1.7163,1.6183,1.5372,1.4887,1.4566,1.4911,1.4615,1.4105,1.4414,1.47,1.4469,1.4393,1.4441,1.4557,1.4317,1.4152,1.4102,1.4065,1.4185,1.421,1.5825,1.5825,1.5825,1.5825,1.5825,1.6103,1.685,1.7777,1.9214,2.0666,2.1924,2.3501,2.4542,2.4957,2.5808,2.6389,2.6213,2.5543,2.4946,2.4351,2.3521,2.1817,2.0215,1.9298,1.7624,1.5475,1.3872,1.2711,1.1448,1.1146,1.1142,1.1721,1.3425,1.4595,1.5298,1.6337,1.6648,1.648,1.6842,1.794,1.8948,1.9405,1.9497,1.9497,1.9861,1.9951,1.9943,1.9943,1.9314,1.8688,1.8411,1.8141,1.8149,1.721,1.7157,1.7348,1.6755,1.6225,1.5944,1.5994,1.6001,1.5861,1.6111,1.5896,1.6273,1.7452,1.774,1.7181,1.6757,1.6736,1.6657,1.66,1.6514,1.6433,1.6253,1.6433,1.6682,1.783,1.9012,1.9585,2.0089,2.0245,2.0323,2.0489,2.0576,2.0576,2.0576,2.0566,2.0566,2.0479,1.9681,1.9524,1.9344,1.855,1.7245,1.625,1.5343,1.4837,1.433,1.4081,1.3788,1.3754,1.3728,1.3594,1.3595,1.3607,1.3601,1.3514,1.3494,1.3527,1.3561,1.3621,1.3561,1.3588,1.3837,1.5825,1.5825,1.5825,1.5825,1.5825,1.5825,1.6197,1.7124,1.8672,1.9852,2.0926,2.3384,2.5041,2.5619,2.6719,2.7105,2.6885,2.5782,2.5217,2.4449,2.2871,2.1175,1.976,1.8433,1.6404,1.4244,1.2517,1.1068,0.9509,0.9229,0.9422,0.9899,1.1439,1.2302,1.3386,1.4657,1.5337,1.5832,1.5825,1.6655,1.8033,1.794,1.7848,1.7848,1.8311,1.8495,1.8688,1.8688,1.8326,1.7591,1.7217,1.6815,1.6586,1.6158,1.5913,1.6001,1.5624,1.513,1.5003,1.5019,1.4923,1.491,1.504,1.5286,1.5307,1.633,1.6472,1.592,1.5817,1.5707,1.5803,1.5789,1.5756,1.5604,1.5464,1.5474,1.593,1.6692,1.7619,1.8256,1.863,1.863,1.8877,1.952,1.9608,1.9923,2.001,2.0401,2.0401,1.9906,1.9136,1.8522,1.8294,1.7679,1.6519,1.5501,1.465,1.4219,1.3895,1.3707,1.352,1.3474,1.3407,1.33,1.326,1.334,1.3287,1.3133,1.3186,1.3327,1.3307,1.3267,1.3186,1.3133,1.3267,1.5765,1.5772,1.5725,1.5712,1.5718,1.5705,1.5691,1.6154,1.8064,1.9233,1.9822,2.2879,2.505,2.6532,2.7522,2.7888,2.7415,2.5828,2.5096,2.3981,2.1855,2.0509,1.8864,1.7035,1.5006,1.2866,1.0965,0.9604,0.8333,0.8347,0.8645,0.9308,0.9579,0.9853,1.2603,1.3974,1.4555,1.5439,1.5825,1.5825,1.592,1.5825,1.6103,1.6379,1.6756,1.7412,1.7505,1.7505,1.7412,1.7088,1.6411,1.6078,1.5749,1.5476,1.5248,1.517,1.5075,1.4856,1.4783,1.4736,1.4763,1.4803,1.4856,1.4856,1.485,1.4999,1.5134,1.5181,1.499,1.5003,1.5104,1.509,1.4963,1.4898,1.4744,1.4661,1.5141,1.5711,1.6445,1.7172,1.7415,1.7504,1.8069,1.8638,1.8877,1.9195,1.9353,1.9835,1.9866,1.8897,1.8075,1.735,1.6896,1.6155,1.536,1.4846,1.4015,1.3851,1.3567,1.34,1.326,1.318,1.3113,1.3039,1.3033,1.3066,1.3026,1.2899,1.2999,1.306,1.2946,1.2859,1.2879,1.2859,1.2804,1.5478,1.5458,1.5231,1.5137,1.5144,1.5137,1.513,1.5395,1.6721,1.7746,1.909,2.1297,2.3794,2.6543,2.7614,2.7747,2.6723,2.5322,2.4358,2.3389,2.1118,1.9809,1.824,1.5892,1.3561,1.1371,0.9406,0.8428,0.7949,0.8062,0.7959,0.823,0.84,0.9469,1.1838,1.3204,1.4364,1.5337,1.5825,1.5825,1.5825,1.5825,1.5825,1.592,1.6015,1.6109,1.6204,1.6204,1.6204,1.6048,1.5798,1.5564,1.5291,1.5124,1.4897,1.4696,1.4603,1.4516,1.4462,1.4409,1.4409,1.4389,1.4396,1.4376,1.4362,1.4355,1.4522,1.4716,1.4683,1.475,1.4803,1.471,1.4583,1.4416,1.4294,1.428,1.4523,1.5144,1.5869,1.6683,1.7415,1.7738,1.8399,1.8718,1.8718,1.8709,1.823,1.8541,1.8506,1.7669,1.6888,1.6268,1.5606,1.4633,1.3833,1.3936,1.3487,1.334,1.3233,1.306,1.2926,1.2936,1.2869,1.2732,1.2719,1.2739,1.2679,1.2665,1.2599,1.2612,1.2498,1.2438,1.2423,1.2194,1.1821]}]]